<?xml version="1.0" encoding="UTF-8" standalone="no" ?>
<gpx xmlns="http://www.topografix.com/GPX/1/1" xmlns:xsi="http://www.w3.org/2001/XMLSchema-instance" xsi:schemaLocation="http://www.topografix.com/GPX/1/1 http://www.topografix.com/GPX/1/1/gpx.xsd" version="1.1" creator="VisuGPX - https://www.visugpx.com">
  <metadata>
    <name>Longue distance Arith</name>
    <desc><![CDATA[CO longue distance a Arith]]></desc>
  </metadata>
  <trk>
    <name><![CDATA[co arith]]></name>
    <trkseg>
      <trkpt lat="45.72235" lon="6.06365">
        <ele>990.40002441406</ele>
        <time>2014-05-25T08:35:29.000Z</time>
      </trkpt>
      <trkpt lat="45.72246" lon="6.06354">
        <ele>991.59997558594</ele>
        <time>2014-05-25T08:35:33.000Z</time>
      </trkpt>
      <trkpt lat="45.72261" lon="6.06347">
        <ele>992.59997558594</ele>
        <time>2014-05-25T08:35:38.000Z</time>
      </trkpt>
      <trkpt lat="45.72269" lon="6.06338">
        <ele>992.79998779297</ele>
        <time>2014-05-25T08:35:41.000Z</time>
      </trkpt>
      <trkpt lat="45.72284" lon="6.06331">
        <ele>993.20001220703</ele>
        <time>2014-05-25T08:35:46.000Z</time>
      </trkpt>
      <trkpt lat="45.72295" lon="6.06322">
        <ele>993.59997558594</ele>
        <time>2014-05-25T08:35:50.000Z</time>
      </trkpt>
      <trkpt lat="45.72297" lon="6.0632">
        <ele>993.59997558594</ele>
        <time>2014-05-25T08:35:51.000Z</time>
      </trkpt>
      <trkpt lat="45.72316" lon="6.06319">
        <ele>994.40002441406</ele>
        <time>2014-05-25T08:35:56.000Z</time>
      </trkpt>
      <trkpt lat="45.72325" lon="6.06314">
        <ele>995.20001220703</ele>
        <time>2014-05-25T08:35:59.000Z</time>
      </trkpt>
      <trkpt lat="45.7233" lon="6.06311">
        <ele>995.59997558594</ele>
        <time>2014-05-25T08:36:01.000Z</time>
      </trkpt>
      <trkpt lat="45.72336" lon="6.06305">
        <ele>996.20001220703</ele>
        <time>2014-05-25T08:36:06.000Z</time>
      </trkpt>
      <trkpt lat="45.72341" lon="6.063">
        <ele>996.79998779297</ele>
        <time>2014-05-25T08:36:11.000Z</time>
      </trkpt>
      <trkpt lat="45.7234" lon="6.06302">
        <ele>996.59997558594</ele>
        <time>2014-05-25T08:36:16.000Z</time>
      </trkpt>
      <trkpt lat="45.72332" lon="6.06314">
        <ele>995.40002441406</ele>
        <time>2014-05-25T08:36:20.000Z</time>
      </trkpt>
      <trkpt lat="45.72332" lon="6.06338">
        <ele>994.59997558594</ele>
        <time>2014-05-25T08:36:25.000Z</time>
      </trkpt>
      <trkpt lat="45.72337" lon="6.06351">
        <ele>994.59997558594</ele>
        <time>2014-05-25T08:36:28.000Z</time>
      </trkpt>
      <trkpt lat="45.72348" lon="6.06359">
        <ele>995</ele>
        <time>2014-05-25T08:36:33.000Z</time>
      </trkpt>
      <trkpt lat="45.72358" lon="6.06361">
        <ele>995.40002441406</ele>
        <time>2014-05-25T08:36:37.000Z</time>
      </trkpt>
      <trkpt lat="45.72368" lon="6.06357">
        <ele>996.20001220703</ele>
        <time>2014-05-25T08:36:42.000Z</time>
      </trkpt>
      <trkpt lat="45.72381" lon="6.06353">
        <ele>997</ele>
        <time>2014-05-25T08:36:47.000Z</time>
      </trkpt>
      <trkpt lat="45.72393" lon="6.06361">
        <ele>997.40002441406</ele>
        <time>2014-05-25T08:36:53.000Z</time>
      </trkpt>
      <trkpt lat="45.72406" lon="6.0637">
        <ele>997.79998779297</ele>
        <time>2014-05-25T08:36:57.000Z</time>
      </trkpt>
      <trkpt lat="45.72416" lon="6.06373">
        <ele>998.20001220703</ele>
        <time>2014-05-25T08:37:00.000Z</time>
      </trkpt>
      <trkpt lat="45.72426" lon="6.06384">
        <ele>998.20001220703</ele>
        <time>2014-05-25T08:37:06.000Z</time>
      </trkpt>
      <trkpt lat="45.72434" lon="6.06396">
        <ele>998</ele>
        <time>2014-05-25T08:37:11.000Z</time>
      </trkpt>
      <trkpt lat="45.72446" lon="6.06409">
        <ele>997.79998779297</ele>
        <time>2014-05-25T08:37:16.000Z</time>
      </trkpt>
      <trkpt lat="45.72451" lon="6.06418">
        <ele>997.59997558594</ele>
        <time>2014-05-25T08:37:19.000Z</time>
      </trkpt>
      <trkpt lat="45.7246" lon="6.06431">
        <ele>997.20001220703</ele>
        <time>2014-05-25T08:37:24.000Z</time>
      </trkpt>
      <trkpt lat="45.72462" lon="6.06434">
        <ele>997.20001220703</ele>
        <time>2014-05-25T08:37:25.000Z</time>
      </trkpt>
      <trkpt lat="45.72477" lon="6.0645">
        <ele>997.20001220703</ele>
        <time>2014-05-25T08:37:32.000Z</time>
      </trkpt>
      <trkpt lat="45.7249" lon="6.06455">
        <ele>997.79998779297</ele>
        <time>2014-05-25T08:37:36.000Z</time>
      </trkpt>
      <trkpt lat="45.72503" lon="6.06462">
        <ele>998.59997558594</ele>
        <time>2014-05-25T08:37:40.000Z</time>
      </trkpt>
      <trkpt lat="45.72509" lon="6.06467">
        <ele>998.79998779297</ele>
        <time>2014-05-25T08:37:42.000Z</time>
      </trkpt>
      <trkpt lat="45.72521" lon="6.06475">
        <ele>999.40002441406</ele>
        <time>2014-05-25T08:37:46.000Z</time>
      </trkpt>
      <trkpt lat="45.7254" lon="6.06493">
        <ele>999.59997558594</ele>
        <time>2014-05-25T08:37:52.000Z</time>
      </trkpt>
      <trkpt lat="45.72552" lon="6.06499">
        <ele>1000.200012207</ele>
        <time>2014-05-25T08:37:56.000Z</time>
      </trkpt>
      <trkpt lat="45.72559" lon="6.06508">
        <ele>999.79998779297</ele>
        <time>2014-05-25T08:38:00.000Z</time>
      </trkpt>
      <trkpt lat="45.72569" lon="6.06528">
        <ele>998.59997558594</ele>
        <time>2014-05-25T08:38:05.000Z</time>
      </trkpt>
      <trkpt lat="45.72578" lon="6.0654">
        <ele>998</ele>
        <time>2014-05-25T08:38:09.000Z</time>
      </trkpt>
      <trkpt lat="45.72583" lon="6.0655">
        <ele>997.40002441406</ele>
        <time>2014-05-25T08:38:12.000Z</time>
      </trkpt>
      <trkpt lat="45.72585" lon="6.06553">
        <ele>997.20001220703</ele>
        <time>2014-05-25T08:38:13.000Z</time>
      </trkpt>
      <trkpt lat="45.72592" lon="6.06561">
        <ele>996.79998779297</ele>
        <time>2014-05-25T08:38:17.000Z</time>
      </trkpt>
      <trkpt lat="45.72596" lon="6.06566">
        <ele>996.79998779297</ele>
        <time>2014-05-25T08:38:24.000Z</time>
      </trkpt>
      <trkpt lat="45.72601" lon="6.06573">
        <ele>996.79998779297</ele>
        <time>2014-05-25T08:38:28.000Z</time>
      </trkpt>
      <trkpt lat="45.72613" lon="6.06589">
        <ele>996.59997558594</ele>
        <time>2014-05-25T08:38:34.000Z</time>
      </trkpt>
      <trkpt lat="45.72624" lon="6.06592">
        <ele>997</ele>
        <time>2014-05-25T08:38:39.000Z</time>
      </trkpt>
      <trkpt lat="45.72631" lon="6.06596">
        <ele>997</ele>
        <time>2014-05-25T08:38:42.000Z</time>
      </trkpt>
      <trkpt lat="45.72636" lon="6.06593">
        <ele>997.20001220703</ele>
        <time>2014-05-25T08:38:45.000Z</time>
      </trkpt>
      <trkpt lat="45.72644" lon="6.06589">
        <ele>997.79998779297</ele>
        <time>2014-05-25T08:38:49.000Z</time>
      </trkpt>
      <trkpt lat="45.7265" lon="6.06592">
        <ele>998.20001220703</ele>
        <time>2014-05-25T08:38:53.000Z</time>
      </trkpt>
      <trkpt lat="45.72655" lon="6.066">
        <ele>998.40002441406</ele>
        <time>2014-05-25T08:38:57.000Z</time>
      </trkpt>
      <trkpt lat="45.72657" lon="6.06602">
        <ele>998.59997558594</ele>
        <time>2014-05-25T08:39:03.000Z</time>
      </trkpt>
      <trkpt lat="45.72662" lon="6.06617">
        <ele>998.79998779297</ele>
        <time>2014-05-25T08:39:08.000Z</time>
      </trkpt>
      <trkpt lat="45.72668" lon="6.06624">
        <ele>999</ele>
        <time>2014-05-25T08:39:11.000Z</time>
      </trkpt>
      <trkpt lat="45.7268" lon="6.06642">
        <ele>999.59997558594</ele>
        <time>2014-05-25T08:39:16.000Z</time>
      </trkpt>
      <trkpt lat="45.72689" lon="6.06647">
        <ele>1000.4000244141</ele>
        <time>2014-05-25T08:39:20.000Z</time>
      </trkpt>
      <trkpt lat="45.72696" lon="6.06655">
        <ele>1001</ele>
        <time>2014-05-25T08:39:27.000Z</time>
      </trkpt>
      <trkpt lat="45.72696" lon="6.06657">
        <ele>1001</ele>
        <time>2014-05-25T08:39:28.000Z</time>
      </trkpt>
      <trkpt lat="45.72704" lon="6.06672">
        <ele>1001.5999755859</ele>
        <time>2014-05-25T08:39:34.000Z</time>
      </trkpt>
      <trkpt lat="45.72709" lon="6.0668">
        <ele>1002</ele>
        <time>2014-05-25T08:39:37.000Z</time>
      </trkpt>
      <trkpt lat="45.72713" lon="6.06685">
        <ele>1002.4000244141</ele>
        <time>2014-05-25T08:39:39.000Z</time>
      </trkpt>
      <trkpt lat="45.72716" lon="6.06687">
        <ele>1002.5999755859</ele>
        <time>2014-05-25T08:39:41.000Z</time>
      </trkpt>
      <trkpt lat="45.72717" lon="6.06691">
        <ele>1002.5999755859</ele>
        <time>2014-05-25T08:39:48.000Z</time>
      </trkpt>
      <trkpt lat="45.72716" lon="6.06687">
        <ele>1002.5999755859</ele>
        <time>2014-05-25T08:39:55.000Z</time>
      </trkpt>
      <trkpt lat="45.72715" lon="6.06686">
        <ele>1002.5999755859</ele>
        <time>2014-05-25T08:40:01.000Z</time>
      </trkpt>
      <trkpt lat="45.72718" lon="6.06699">
        <ele>1002.799987793</ele>
        <time>2014-05-25T08:40:05.000Z</time>
      </trkpt>
      <trkpt lat="45.7272" lon="6.06712">
        <ele>1003</ele>
        <time>2014-05-25T08:40:09.000Z</time>
      </trkpt>
      <trkpt lat="45.72724" lon="6.06717">
        <ele>1003.200012207</ele>
        <time>2014-05-25T08:40:14.000Z</time>
      </trkpt>
      <trkpt lat="45.72734" lon="6.06719">
        <ele>1004</ele>
        <time>2014-05-25T08:40:19.000Z</time>
      </trkpt>
      <trkpt lat="45.72749" lon="6.06724">
        <ele>1005</ele>
        <time>2014-05-25T08:40:24.000Z</time>
      </trkpt>
      <trkpt lat="45.72751" lon="6.06726">
        <ele>1005.200012207</ele>
        <time>2014-05-25T08:40:25.000Z</time>
      </trkpt>
      <trkpt lat="45.72759" lon="6.06739">
        <ele>1006</ele>
        <time>2014-05-25T08:40:30.000Z</time>
      </trkpt>
      <trkpt lat="45.72766" lon="6.06744">
        <ele>1006.799987793</ele>
        <time>2014-05-25T08:40:35.000Z</time>
      </trkpt>
      <trkpt lat="45.72776" lon="6.06751">
        <ele>1007.5999755859</ele>
        <time>2014-05-25T08:40:40.000Z</time>
      </trkpt>
      <trkpt lat="45.72785" lon="6.06757">
        <ele>1008.4000244141</ele>
        <time>2014-05-25T08:40:44.000Z</time>
      </trkpt>
      <trkpt lat="45.72787" lon="6.06758">
        <ele>1008.5999755859</ele>
        <time>2014-05-25T08:40:45.000Z</time>
      </trkpt>
      <trkpt lat="45.72799" lon="6.0676">
        <ele>1009.4000244141</ele>
        <time>2014-05-25T08:40:50.000Z</time>
      </trkpt>
      <trkpt lat="45.72807" lon="6.06763">
        <ele>1010.200012207</ele>
        <time>2014-05-25T08:40:54.000Z</time>
      </trkpt>
      <trkpt lat="45.72816" lon="6.06765">
        <ele>1011.4000244141</ele>
        <time>2014-05-25T08:40:59.000Z</time>
      </trkpt>
      <trkpt lat="45.72821" lon="6.06765">
        <ele>1012</ele>
        <time>2014-05-25T08:41:03.000Z</time>
      </trkpt>
      <trkpt lat="45.72826" lon="6.06763">
        <ele>1012.5999755859</ele>
        <time>2014-05-25T08:41:10.000Z</time>
      </trkpt>
      <trkpt lat="45.72832" lon="6.06764">
        <ele>1013.200012207</ele>
        <time>2014-05-25T08:41:14.000Z</time>
      </trkpt>
      <trkpt lat="45.72835" lon="6.06764">
        <ele>1013.5999755859</ele>
        <time>2014-05-25T08:41:18.000Z</time>
      </trkpt>
      <trkpt lat="45.72837" lon="6.06756">
        <ele>1013.5999755859</ele>
        <time>2014-05-25T08:41:23.000Z</time>
      </trkpt>
      <trkpt lat="45.72845" lon="6.06751">
        <ele>1014.200012207</ele>
        <time>2014-05-25T08:41:30.000Z</time>
      </trkpt>
      <trkpt lat="45.72848" lon="6.06752">
        <ele>1014.5999755859</ele>
        <time>2014-05-25T08:41:33.000Z</time>
      </trkpt>
      <trkpt lat="45.72858" lon="6.06752">
        <ele>1015.4000244141</ele>
        <time>2014-05-25T08:41:38.000Z</time>
      </trkpt>
      <trkpt lat="45.72866" lon="6.0675">
        <ele>1016.200012207</ele>
        <time>2014-05-25T08:41:43.000Z</time>
      </trkpt>
      <trkpt lat="45.72868" lon="6.06751">
        <ele>1016.4000244141</ele>
        <time>2014-05-25T08:41:45.000Z</time>
      </trkpt>
      <trkpt lat="45.7287" lon="6.06746">
        <ele>1016.4000244141</ele>
        <time>2014-05-25T08:41:50.000Z</time>
      </trkpt>
      <trkpt lat="45.72871" lon="6.06745">
        <ele>1016.4000244141</ele>
        <time>2014-05-25T08:41:51.000Z</time>
      </trkpt>
      <trkpt lat="45.72874" lon="6.0674">
        <ele>1016.4000244141</ele>
        <time>2014-05-25T08:41:55.000Z</time>
      </trkpt>
      <trkpt lat="45.72878" lon="6.06739">
        <ele>1016.799987793</ele>
        <time>2014-05-25T08:42:01.000Z</time>
      </trkpt>
      <trkpt lat="45.7288" lon="6.0674">
        <ele>1017</ele>
        <time>2014-05-25T08:42:02.000Z</time>
      </trkpt>
      <trkpt lat="45.72885" lon="6.06744">
        <ele>1017.799987793</ele>
        <time>2014-05-25T08:42:07.000Z</time>
      </trkpt>
      <trkpt lat="45.7289" lon="6.06747">
        <ele>1018.4000244141</ele>
        <time>2014-05-25T08:42:11.000Z</time>
      </trkpt>
      <trkpt lat="45.72897" lon="6.06749">
        <ele>1019</ele>
        <time>2014-05-25T08:42:17.000Z</time>
      </trkpt>
      <trkpt lat="45.72903" lon="6.06751">
        <ele>1019.5999755859</ele>
        <time>2014-05-25T08:42:21.000Z</time>
      </trkpt>
      <trkpt lat="45.72904" lon="6.06752">
        <ele>1019.799987793</ele>
        <time>2014-05-25T08:42:22.000Z</time>
      </trkpt>
      <trkpt lat="45.72914" lon="6.06756">
        <ele>1021</ele>
        <time>2014-05-25T08:42:29.000Z</time>
      </trkpt>
      <trkpt lat="45.72923" lon="6.06759">
        <ele>1022</ele>
        <time>2014-05-25T08:42:33.000Z</time>
      </trkpt>
      <trkpt lat="45.72926" lon="6.0676">
        <ele>1022.5999755859</ele>
        <time>2014-05-25T08:42:35.000Z</time>
      </trkpt>
      <trkpt lat="45.72934" lon="6.06754">
        <ele>1023.200012207</ele>
        <time>2014-05-25T08:42:42.000Z</time>
      </trkpt>
      <trkpt lat="45.72935" lon="6.06753">
        <ele>1023.4000244141</ele>
        <time>2014-05-25T08:42:44.000Z</time>
      </trkpt>
      <trkpt lat="45.72937" lon="6.06752">
        <ele>1023.5999755859</ele>
        <time>2014-05-25T08:42:46.000Z</time>
      </trkpt>
      <trkpt lat="45.72941" lon="6.06747">
        <ele>1024</ele>
        <time>2014-05-25T08:42:50.000Z</time>
      </trkpt>
      <trkpt lat="45.72942" lon="6.06744">
        <ele>1024</ele>
        <time>2014-05-25T08:42:53.000Z</time>
      </trkpt>
      <trkpt lat="45.72945" lon="6.06741">
        <ele>1024.1999511719</ele>
        <time>2014-05-25T08:43:00.000Z</time>
      </trkpt>
      <trkpt lat="45.72947" lon="6.06737">
        <ele>1024.5999755859</ele>
        <time>2014-05-25T08:43:04.000Z</time>
      </trkpt>
      <trkpt lat="45.72949" lon="6.06737">
        <ele>1024.8000488281</ele>
        <time>2014-05-25T08:43:06.000Z</time>
      </trkpt>
      <trkpt lat="45.72954" lon="6.06734">
        <ele>1025.1999511719</ele>
        <time>2014-05-25T08:43:10.000Z</time>
      </trkpt>
      <trkpt lat="45.72957" lon="6.06728">
        <ele>1025.4000244141</ele>
        <time>2014-05-25T08:43:15.000Z</time>
      </trkpt>
      <trkpt lat="45.7296" lon="6.06725">
        <ele>1025.8000488281</ele>
        <time>2014-05-25T08:43:19.000Z</time>
      </trkpt>
      <trkpt lat="45.72966" lon="6.06717">
        <ele>1026.1999511719</ele>
        <time>2014-05-25T08:43:24.000Z</time>
      </trkpt>
      <trkpt lat="45.72968" lon="6.06711">
        <ele>1026.1999511719</ele>
        <time>2014-05-25T08:43:27.000Z</time>
      </trkpt>
      <trkpt lat="45.72969" lon="6.06702">
        <ele>1026</ele>
        <time>2014-05-25T08:43:31.000Z</time>
      </trkpt>
      <trkpt lat="45.72969" lon="6.06697">
        <ele>1025.8000488281</ele>
        <time>2014-05-25T08:43:37.000Z</time>
      </trkpt>
      <trkpt lat="45.7297" lon="6.06686">
        <ele>1025.4000244141</ele>
        <time>2014-05-25T08:43:42.000Z</time>
      </trkpt>
      <trkpt lat="45.72968" lon="6.06679">
        <ele>1025</ele>
        <time>2014-05-25T08:43:46.000Z</time>
      </trkpt>
      <trkpt lat="45.72961" lon="6.06663">
        <ele>1023.5999755859</ele>
        <time>2014-05-25T08:43:52.000Z</time>
      </trkpt>
      <trkpt lat="45.72959" lon="6.06653">
        <ele>1023.200012207</ele>
        <time>2014-05-25T08:43:55.000Z</time>
      </trkpt>
      <trkpt lat="45.72959" lon="6.06649">
        <ele>1023</ele>
        <time>2014-05-25T08:43:57.000Z</time>
      </trkpt>
      <trkpt lat="45.72958" lon="6.06645">
        <ele>1022.5999755859</ele>
        <time>2014-05-25T08:44:04.000Z</time>
      </trkpt>
      <trkpt lat="45.72958" lon="6.06644">
        <ele>1022.5999755859</ele>
        <time>2014-05-25T08:44:20.000Z</time>
      </trkpt>
      <trkpt lat="45.72955" lon="6.06634">
        <ele>1022.200012207</ele>
        <time>2014-05-25T08:44:24.000Z</time>
      </trkpt>
      <trkpt lat="45.72964" lon="6.06627">
        <ele>1023</ele>
        <time>2014-05-25T08:44:31.000Z</time>
      </trkpt>
      <trkpt lat="45.72971" lon="6.06622">
        <ele>1023.5999755859</ele>
        <time>2014-05-25T08:44:35.000Z</time>
      </trkpt>
      <trkpt lat="45.72972" lon="6.0662">
        <ele>1023.5999755859</ele>
        <time>2014-05-25T08:44:36.000Z</time>
      </trkpt>
      <trkpt lat="45.72973" lon="6.06606">
        <ele>1023.4000244141</ele>
        <time>2014-05-25T08:44:42.000Z</time>
      </trkpt>
      <trkpt lat="45.72977" lon="6.06602">
        <ele>1023.5999755859</ele>
        <time>2014-05-25T08:44:46.000Z</time>
      </trkpt>
      <trkpt lat="45.72978" lon="6.06601">
        <ele>1023.5999755859</ele>
        <time>2014-05-25T08:44:47.000Z</time>
      </trkpt>
      <trkpt lat="45.72979" lon="6.06599">
        <ele>1023.799987793</ele>
        <time>2014-05-25T08:44:49.000Z</time>
      </trkpt>
      <trkpt lat="45.72984" lon="6.06597">
        <ele>1024.1999511719</ele>
        <time>2014-05-25T08:44:52.000Z</time>
      </trkpt>
      <trkpt lat="45.72991" lon="6.06595">
        <ele>1024.8000488281</ele>
        <time>2014-05-25T08:44:55.000Z</time>
      </trkpt>
      <trkpt lat="45.72993" lon="6.06596">
        <ele>1025</ele>
        <time>2014-05-25T08:44:57.000Z</time>
      </trkpt>
      <trkpt lat="45.72997" lon="6.06594">
        <ele>1025.4000244141</ele>
        <time>2014-05-25T08:45:01.000Z</time>
      </trkpt>
      <trkpt lat="45.73003" lon="6.06583">
        <ele>1025.5999755859</ele>
        <time>2014-05-25T08:45:06.000Z</time>
      </trkpt>
      <trkpt lat="45.7301" lon="6.06575">
        <ele>1026.1999511719</ele>
        <time>2014-05-25T08:45:10.000Z</time>
      </trkpt>
      <trkpt lat="45.73013" lon="6.06571">
        <ele>1026.4000244141</ele>
        <time>2014-05-25T08:45:14.000Z</time>
      </trkpt>
      <trkpt lat="45.73017" lon="6.0657">
        <ele>1026.5999755859</ele>
        <time>2014-05-25T08:45:18.000Z</time>
      </trkpt>
      <trkpt lat="45.7302" lon="6.06564">
        <ele>1026.8000488281</ele>
        <time>2014-05-25T08:45:23.000Z</time>
      </trkpt>
      <trkpt lat="45.73022" lon="6.06557">
        <ele>1026.8000488281</ele>
        <time>2014-05-25T08:45:27.000Z</time>
      </trkpt>
      <trkpt lat="45.73027" lon="6.06551">
        <ele>1027</ele>
        <time>2014-05-25T08:45:31.000Z</time>
      </trkpt>
      <trkpt lat="45.73032" lon="6.06548">
        <ele>1027.4000244141</ele>
        <time>2014-05-25T08:45:36.000Z</time>
      </trkpt>
      <trkpt lat="45.73037" lon="6.06545">
        <ele>1027.5999755859</ele>
        <time>2014-05-25T08:45:39.000Z</time>
      </trkpt>
      <trkpt lat="45.73039" lon="6.06537">
        <ele>1027.4000244141</ele>
        <time>2014-05-25T08:45:43.000Z</time>
      </trkpt>
      <trkpt lat="45.73042" lon="6.06532">
        <ele>1027.4000244141</ele>
        <time>2014-05-25T08:45:46.000Z</time>
      </trkpt>
      <trkpt lat="45.73043" lon="6.06532">
        <ele>1027.4000244141</ele>
        <time>2014-05-25T08:45:50.000Z</time>
      </trkpt>
      <trkpt lat="45.73044" lon="6.06525">
        <ele>1027.1999511719</ele>
        <time>2014-05-25T08:45:56.000Z</time>
      </trkpt>
      <trkpt lat="45.73046" lon="6.06523">
        <ele>1027</ele>
        <time>2014-05-25T08:46:01.000Z</time>
      </trkpt>
      <trkpt lat="45.73046" lon="6.06516">
        <ele>1026.8000488281</ele>
        <time>2014-05-25T08:46:05.000Z</time>
      </trkpt>
      <trkpt lat="45.73051" lon="6.06506">
        <ele>1026.5999755859</ele>
        <time>2014-05-25T08:46:11.000Z</time>
      </trkpt>
      <trkpt lat="45.73056" lon="6.06496">
        <ele>1026.1999511719</ele>
        <time>2014-05-25T08:46:17.000Z</time>
      </trkpt>
      <trkpt lat="45.73061" lon="6.06488">
        <ele>1026.1999511719</ele>
        <time>2014-05-25T08:46:21.000Z</time>
      </trkpt>
      <trkpt lat="45.73063" lon="6.06483">
        <ele>1026</ele>
        <time>2014-05-25T08:46:23.000Z</time>
      </trkpt>
      <trkpt lat="45.73067" lon="6.06468">
        <ele>1024.5999755859</ele>
        <time>2014-05-25T08:46:29.000Z</time>
      </trkpt>
      <trkpt lat="45.73066" lon="6.06466">
        <ele>1024.4000244141</ele>
        <time>2014-05-25T08:46:35.000Z</time>
      </trkpt>
      <trkpt lat="45.73066" lon="6.0646">
        <ele>1023.5999755859</ele>
        <time>2014-05-25T08:46:42.000Z</time>
      </trkpt>
      <trkpt lat="45.73068" lon="6.06454">
        <ele>1023.200012207</ele>
        <time>2014-05-25T08:46:46.000Z</time>
      </trkpt>
      <trkpt lat="45.7307" lon="6.06448">
        <ele>1022.4000244141</ele>
        <time>2014-05-25T08:46:50.000Z</time>
      </trkpt>
      <trkpt lat="45.73071" lon="6.06446">
        <ele>1022.4000244141</ele>
        <time>2014-05-25T08:46:52.000Z</time>
      </trkpt>
      <trkpt lat="45.73074" lon="6.06442">
        <ele>1022</ele>
        <time>2014-05-25T08:46:56.000Z</time>
      </trkpt>
      <trkpt lat="45.73077" lon="6.06435">
        <ele>1021.4000244141</ele>
        <time>2014-05-25T08:47:00.000Z</time>
      </trkpt>
      <trkpt lat="45.7308" lon="6.06433">
        <ele>1021.200012207</ele>
        <time>2014-05-25T08:47:02.000Z</time>
      </trkpt>
      <trkpt lat="45.73084" lon="6.06428">
        <ele>1020.799987793</ele>
        <time>2014-05-25T08:47:07.000Z</time>
      </trkpt>
      <trkpt lat="45.73088" lon="6.06419">
        <ele>1020</ele>
        <time>2014-05-25T08:47:12.000Z</time>
      </trkpt>
      <trkpt lat="45.73091" lon="6.06416">
        <ele>1019.799987793</ele>
        <time>2014-05-25T08:47:14.000Z</time>
      </trkpt>
      <trkpt lat="45.73093" lon="6.06413">
        <ele>1019.5999755859</ele>
        <time>2014-05-25T08:47:17.000Z</time>
      </trkpt>
      <trkpt lat="45.73096" lon="6.06412">
        <ele>1019.5999755859</ele>
        <time>2014-05-25T08:47:24.000Z</time>
      </trkpt>
      <trkpt lat="45.73097" lon="6.06414">
        <ele>1019.799987793</ele>
        <time>2014-05-25T08:47:30.000Z</time>
      </trkpt>
      <trkpt lat="45.73098" lon="6.06415">
        <ele>1020</ele>
        <time>2014-05-25T08:47:40.000Z</time>
      </trkpt>
      <trkpt lat="45.73101" lon="6.06403">
        <ele>1018.799987793</ele>
        <time>2014-05-25T08:47:54.000Z</time>
      </trkpt>
      <trkpt lat="45.73103" lon="6.06391">
        <ele>1017.5999755859</ele>
        <time>2014-05-25T08:47:58.000Z</time>
      </trkpt>
      <trkpt lat="45.7311" lon="6.0638">
        <ele>1017</ele>
        <time>2014-05-25T08:48:03.000Z</time>
      </trkpt>
      <trkpt lat="45.73118" lon="6.06374">
        <ele>1017</ele>
        <time>2014-05-25T08:48:09.000Z</time>
      </trkpt>
      <trkpt lat="45.7312" lon="6.06372">
        <ele>1016.799987793</ele>
        <time>2014-05-25T08:48:10.000Z</time>
      </trkpt>
      <trkpt lat="45.73121" lon="6.06367">
        <ele>1016.200012207</ele>
        <time>2014-05-25T08:48:13.000Z</time>
      </trkpt>
      <trkpt lat="45.73124" lon="6.06365">
        <ele>1016</ele>
        <time>2014-05-25T08:48:20.000Z</time>
      </trkpt>
      <trkpt lat="45.73126" lon="6.06362">
        <ele>1015.5999755859</ele>
        <time>2014-05-25T08:48:24.000Z</time>
      </trkpt>
      <trkpt lat="45.73128" lon="6.0636">
        <ele>1015.4000244141</ele>
        <time>2014-05-25T08:48:31.000Z</time>
      </trkpt>
      <trkpt lat="45.73131" lon="6.06356">
        <ele>1015</ele>
        <time>2014-05-25T08:48:33.000Z</time>
      </trkpt>
      <trkpt lat="45.73131" lon="6.06343">
        <ele>1013.5999755859</ele>
        <time>2014-05-25T08:48:38.000Z</time>
      </trkpt>
      <trkpt lat="45.73132" lon="6.06329">
        <ele>1012.200012207</ele>
        <time>2014-05-25T08:48:44.000Z</time>
      </trkpt>
      <trkpt lat="45.73139" lon="6.06327">
        <ele>1011.799987793</ele>
        <time>2014-05-25T08:48:50.000Z</time>
      </trkpt>
      <trkpt lat="45.7314" lon="6.06319">
        <ele>1011</ele>
        <time>2014-05-25T08:48:54.000Z</time>
      </trkpt>
      <trkpt lat="45.73136" lon="6.06307">
        <ele>1010</ele>
        <time>2014-05-25T08:48:59.000Z</time>
      </trkpt>
      <trkpt lat="45.73136" lon="6.06303">
        <ele>1009.799987793</ele>
        <time>2014-05-25T08:49:05.000Z</time>
      </trkpt>
      <trkpt lat="45.73136" lon="6.06297">
        <ele>1009.799987793</ele>
        <time>2014-05-25T08:49:07.000Z</time>
      </trkpt>
      <trkpt lat="45.73134" lon="6.06292">
        <ele>1009.799987793</ele>
        <time>2014-05-25T08:49:12.000Z</time>
      </trkpt>
      <trkpt lat="45.73134" lon="6.06292">
        <ele>1009.799987793</ele>
        <time>2014-05-25T08:49:13.000Z</time>
      </trkpt>
      <trkpt lat="45.73135" lon="6.06303">
        <ele>1009.799987793</ele>
        <time>2014-05-25T08:49:17.000Z</time>
      </trkpt>
      <trkpt lat="45.73136" lon="6.06309">
        <ele>1010</ele>
        <time>2014-05-25T08:49:21.000Z</time>
      </trkpt>
      <trkpt lat="45.73136" lon="6.0631">
        <ele>1010</ele>
        <time>2014-05-25T08:49:22.000Z</time>
      </trkpt>
      <trkpt lat="45.7314" lon="6.06308">
        <ele>1010</ele>
        <time>2014-05-25T08:49:26.000Z</time>
      </trkpt>
      <trkpt lat="45.73146" lon="6.0631">
        <ele>1010.200012207</ele>
        <time>2014-05-25T08:49:32.000Z</time>
      </trkpt>
      <trkpt lat="45.73148" lon="6.06309">
        <ele>1010.200012207</ele>
        <time>2014-05-25T08:49:33.000Z</time>
      </trkpt>
      <trkpt lat="45.7316" lon="6.06296">
        <ele>1010.4000244141</ele>
        <time>2014-05-25T08:49:38.000Z</time>
      </trkpt>
      <trkpt lat="45.73169" lon="6.06289">
        <ele>1010.5999755859</ele>
        <time>2014-05-25T08:49:42.000Z</time>
      </trkpt>
      <trkpt lat="45.7317" lon="6.06287">
        <ele>1010.5999755859</ele>
        <time>2014-05-25T08:49:44.000Z</time>
      </trkpt>
      <trkpt lat="45.73171" lon="6.06279">
        <ele>1010.4000244141</ele>
        <time>2014-05-25T08:49:53.000Z</time>
      </trkpt>
      <trkpt lat="45.73174" lon="6.06277">
        <ele>1010.4000244141</ele>
        <time>2014-05-25T08:49:57.000Z</time>
      </trkpt>
      <trkpt lat="45.73177" lon="6.06272">
        <ele>1010.5999755859</ele>
        <time>2014-05-25T08:50:01.000Z</time>
      </trkpt>
      <trkpt lat="45.73176" lon="6.06269">
        <ele>1010.4000244141</ele>
        <time>2014-05-25T08:50:06.000Z</time>
      </trkpt>
      <trkpt lat="45.73172" lon="6.06268">
        <ele>1010.4000244141</ele>
        <time>2014-05-25T08:50:23.000Z</time>
      </trkpt>
      <trkpt lat="45.73175" lon="6.06272">
        <ele>1010.4000244141</ele>
        <time>2014-05-25T08:50:33.000Z</time>
      </trkpt>
      <trkpt lat="45.73187" lon="6.06268">
        <ele>1010.799987793</ele>
        <time>2014-05-25T08:50:39.000Z</time>
      </trkpt>
      <trkpt lat="45.73193" lon="6.06265">
        <ele>1010.799987793</ele>
        <time>2014-05-25T08:50:45.000Z</time>
      </trkpt>
      <trkpt lat="45.73202" lon="6.06262">
        <ele>1011</ele>
        <time>2014-05-25T08:51:08.000Z</time>
      </trkpt>
      <trkpt lat="45.73208" lon="6.06261">
        <ele>1011.200012207</ele>
        <time>2014-05-25T08:51:11.000Z</time>
      </trkpt>
      <trkpt lat="45.73224" lon="6.06253">
        <ele>1011.5999755859</ele>
        <time>2014-05-25T08:51:16.000Z</time>
      </trkpt>
      <trkpt lat="45.73227" lon="6.06253">
        <ele>1011.799987793</ele>
        <time>2014-05-25T08:51:20.000Z</time>
      </trkpt>
      <trkpt lat="45.73224" lon="6.06248">
        <ele>1011.5999755859</ele>
        <time>2014-05-25T08:51:48.000Z</time>
      </trkpt>
      <trkpt lat="45.73223" lon="6.06253">
        <ele>1011.5999755859</ele>
        <time>2014-05-25T08:51:59.000Z</time>
      </trkpt>
      <trkpt lat="45.73222" lon="6.06254">
        <ele>1011.4000244141</ele>
        <time>2014-05-25T08:52:00.000Z</time>
      </trkpt>
      <trkpt lat="45.73213" lon="6.06257">
        <ele>1011.200012207</ele>
        <time>2014-05-25T08:52:05.000Z</time>
      </trkpt>
      <trkpt lat="45.73207" lon="6.06263">
        <ele>1011.200012207</ele>
        <time>2014-05-25T08:52:10.000Z</time>
      </trkpt>
      <trkpt lat="45.73207" lon="6.06268">
        <ele>1011.200012207</ele>
        <time>2014-05-25T08:52:16.000Z</time>
      </trkpt>
      <trkpt lat="45.73208" lon="6.06272">
        <ele>1011.200012207</ele>
        <time>2014-05-25T08:52:32.000Z</time>
      </trkpt>
      <trkpt lat="45.73209" lon="6.06273">
        <ele>1011.200012207</ele>
        <time>2014-05-25T08:52:37.000Z</time>
      </trkpt>
      <trkpt lat="45.73212" lon="6.06279">
        <ele>1011.4000244141</ele>
        <time>2014-05-25T08:52:44.000Z</time>
      </trkpt>
      <trkpt lat="45.73216" lon="6.06282">
        <ele>1011.5999755859</ele>
        <time>2014-05-25T08:52:47.000Z</time>
      </trkpt>
      <trkpt lat="45.73231" lon="6.06284">
        <ele>1012.4000244141</ele>
        <time>2014-05-25T08:52:53.000Z</time>
      </trkpt>
      <trkpt lat="45.7324" lon="6.06287">
        <ele>1013</ele>
        <time>2014-05-25T08:52:56.000Z</time>
      </trkpt>
      <trkpt lat="45.73247" lon="6.06286">
        <ele>1013.5999755859</ele>
        <time>2014-05-25T08:53:05.000Z</time>
      </trkpt>
      <trkpt lat="45.73248" lon="6.06289">
        <ele>1013.799987793</ele>
        <time>2014-05-25T08:53:11.000Z</time>
      </trkpt>
      <trkpt lat="45.73252" lon="6.06294">
        <ele>1014</ele>
        <time>2014-05-25T08:53:18.000Z</time>
      </trkpt>
      <trkpt lat="45.73253" lon="6.063">
        <ele>1014.200012207</ele>
        <time>2014-05-25T08:53:26.000Z</time>
      </trkpt>
      <trkpt lat="45.73255" lon="6.06305">
        <ele>1014.4000244141</ele>
        <time>2014-05-25T08:53:28.000Z</time>
      </trkpt>
      <trkpt lat="45.73255" lon="6.06314">
        <ele>1014.799987793</ele>
        <time>2014-05-25T08:53:34.000Z</time>
      </trkpt>
      <trkpt lat="45.73256" lon="6.06318">
        <ele>1015.4000244141</ele>
        <time>2014-05-25T08:53:40.000Z</time>
      </trkpt>
      <trkpt lat="45.73254" lon="6.06316">
        <ele>1015</ele>
        <time>2014-05-25T08:53:52.000Z</time>
      </trkpt>
      <trkpt lat="45.73255" lon="6.06323">
        <ele>1015.799987793</ele>
        <time>2014-05-25T08:53:55.000Z</time>
      </trkpt>
      <trkpt lat="45.73254" lon="6.06332">
        <ele>1016.5999755859</ele>
        <time>2014-05-25T08:53:59.000Z</time>
      </trkpt>
      <trkpt lat="45.73256" lon="6.06356">
        <ele>1019.200012207</ele>
        <time>2014-05-25T08:54:05.000Z</time>
      </trkpt>
      <trkpt lat="45.73258" lon="6.06361">
        <ele>1019.799987793</ele>
        <time>2014-05-25T08:54:08.000Z</time>
      </trkpt>
      <trkpt lat="45.73262" lon="6.06368">
        <ele>1020.799987793</ele>
        <time>2014-05-25T08:54:13.000Z</time>
      </trkpt>
      <trkpt lat="45.73264" lon="6.06376">
        <ele>1021.799987793</ele>
        <time>2014-05-25T08:54:18.000Z</time>
      </trkpt>
      <trkpt lat="45.73263" lon="6.06389">
        <ele>1023.200012207</ele>
        <time>2014-05-25T08:54:24.000Z</time>
      </trkpt>
      <trkpt lat="45.73263" lon="6.06396">
        <ele>1024</ele>
        <time>2014-05-25T08:54:27.000Z</time>
      </trkpt>
      <trkpt lat="45.73256" lon="6.06419">
        <ele>1026.1999511719</ele>
        <time>2014-05-25T08:54:33.000Z</time>
      </trkpt>
      <trkpt lat="45.73259" lon="6.06432">
        <ele>1028</ele>
        <time>2014-05-25T08:54:38.000Z</time>
      </trkpt>
      <trkpt lat="45.73256" lon="6.06453">
        <ele>1030.1999511719</ele>
        <time>2014-05-25T08:54:44.000Z</time>
      </trkpt>
      <trkpt lat="45.73256" lon="6.06456">
        <ele>1030.4000244141</ele>
        <time>2014-05-25T08:54:45.000Z</time>
      </trkpt>
      <trkpt lat="45.73259" lon="6.06465">
        <ele>1031.5999755859</ele>
        <time>2014-05-25T08:54:51.000Z</time>
      </trkpt>
      <trkpt lat="45.73259" lon="6.06465">
        <ele>1031.5999755859</ele>
        <time>2014-05-25T08:54:52.000Z</time>
      </trkpt>
      <trkpt lat="45.73261" lon="6.06468">
        <ele>1032</ele>
        <time>2014-05-25T08:55:00.000Z</time>
      </trkpt>
      <trkpt lat="45.73261" lon="6.06468">
        <ele>1032</ele>
        <time>2014-05-25T08:55:14.000Z</time>
      </trkpt>
      <trkpt lat="45.73257" lon="6.06465">
        <ele>1031.4000244141</ele>
        <time>2014-05-25T08:55:21.000Z</time>
      </trkpt>
      <trkpt lat="45.73256" lon="6.06463">
        <ele>1031.1999511719</ele>
        <time>2014-05-25T08:55:22.000Z</time>
      </trkpt>
      <trkpt lat="45.73254" lon="6.06447">
        <ele>1029.1999511719</ele>
        <time>2014-05-25T08:55:27.000Z</time>
      </trkpt>
      <trkpt lat="45.73253" lon="6.06421">
        <ele>1026.4000244141</ele>
        <time>2014-05-25T08:55:31.000Z</time>
      </trkpt>
      <trkpt lat="45.73253" lon="6.06414">
        <ele>1025.4000244141</ele>
        <time>2014-05-25T08:55:32.000Z</time>
      </trkpt>
      <trkpt lat="45.73254" lon="6.06392">
        <ele>1023</ele>
        <time>2014-05-25T08:55:36.000Z</time>
      </trkpt>
      <trkpt lat="45.73255" lon="6.06365">
        <ele>1020</ele>
        <time>2014-05-25T08:55:42.000Z</time>
      </trkpt>
      <trkpt lat="45.73256" lon="6.06333">
        <ele>1016.799987793</ele>
        <time>2014-05-25T08:55:48.000Z</time>
      </trkpt>
      <trkpt lat="45.73255" lon="6.06306">
        <ele>1014.4000244141</ele>
        <time>2014-05-25T08:55:53.000Z</time>
      </trkpt>
      <trkpt lat="45.73254" lon="6.063">
        <ele>1014.4000244141</ele>
        <time>2014-05-25T08:55:55.000Z</time>
      </trkpt>
      <trkpt lat="45.73255" lon="6.06283">
        <ele>1014.200012207</ele>
        <time>2014-05-25T08:56:00.000Z</time>
      </trkpt>
      <trkpt lat="45.73258" lon="6.06268">
        <ele>1014.200012207</ele>
        <time>2014-05-25T08:56:04.000Z</time>
      </trkpt>
      <trkpt lat="45.7326" lon="6.06255">
        <ele>1013.5999755859</ele>
        <time>2014-05-25T08:56:07.000Z</time>
      </trkpt>
      <trkpt lat="45.73263" lon="6.06239">
        <ele>1012.4000244141</ele>
        <time>2014-05-25T08:56:10.000Z</time>
      </trkpt>
      <trkpt lat="45.73262" lon="6.06212">
        <ele>1010.5999755859</ele>
        <time>2014-05-25T08:56:14.000Z</time>
      </trkpt>
      <trkpt lat="45.73265" lon="6.06191">
        <ele>1009.4000244141</ele>
        <time>2014-05-25T08:56:17.000Z</time>
      </trkpt>
      <trkpt lat="45.73271" lon="6.06163">
        <ele>1007.4000244141</ele>
        <time>2014-05-25T08:56:21.000Z</time>
      </trkpt>
      <trkpt lat="45.73271" lon="6.06156">
        <ele>1007</ele>
        <time>2014-05-25T08:56:22.000Z</time>
      </trkpt>
      <trkpt lat="45.73269" lon="6.06145">
        <ele>1006.200012207</ele>
        <time>2014-05-25T08:56:24.000Z</time>
      </trkpt>
      <trkpt lat="45.73267" lon="6.06135">
        <ele>1005.5999755859</ele>
        <time>2014-05-25T08:56:26.000Z</time>
      </trkpt>
      <trkpt lat="45.73262" lon="6.06116">
        <ele>1004.799987793</ele>
        <time>2014-05-25T08:56:31.000Z</time>
      </trkpt>
      <trkpt lat="45.73261" lon="6.06108">
        <ele>1004.4000244141</ele>
        <time>2014-05-25T08:56:36.000Z</time>
      </trkpt>
      <trkpt lat="45.73262" lon="6.06113">
        <ele>1004.5999755859</ele>
        <time>2014-05-25T08:56:52.000Z</time>
      </trkpt>
      <trkpt lat="45.73262" lon="6.06116">
        <ele>1004.799987793</ele>
        <time>2014-05-25T08:56:59.000Z</time>
      </trkpt>
      <trkpt lat="45.73262" lon="6.06118">
        <ele>1004.799987793</ele>
        <time>2014-05-25T08:57:00.000Z</time>
      </trkpt>
      <trkpt lat="45.73261" lon="6.06132">
        <ele>1005.4000244141</ele>
        <time>2014-05-25T08:57:05.000Z</time>
      </trkpt>
      <trkpt lat="45.73262" lon="6.06142">
        <ele>1006</ele>
        <time>2014-05-25T08:57:08.000Z</time>
      </trkpt>
      <trkpt lat="45.73262" lon="6.06147">
        <ele>1006.200012207</ele>
        <time>2014-05-25T08:57:09.000Z</time>
      </trkpt>
      <trkpt lat="45.73262" lon="6.06171">
        <ele>1008</ele>
        <time>2014-05-25T08:57:14.000Z</time>
      </trkpt>
      <trkpt lat="45.73258" lon="6.06191">
        <ele>1009.4000244141</ele>
        <time>2014-05-25T08:57:18.000Z</time>
      </trkpt>
      <trkpt lat="45.73256" lon="6.0622">
        <ele>1011</ele>
        <time>2014-05-25T08:57:23.000Z</time>
      </trkpt>
      <trkpt lat="45.73245" lon="6.06238">
        <ele>1012.200012207</ele>
        <time>2014-05-25T08:57:27.000Z</time>
      </trkpt>
      <trkpt lat="45.73242" lon="6.06242">
        <ele>1012.4000244141</ele>
        <time>2014-05-25T08:57:28.000Z</time>
      </trkpt>
      <trkpt lat="45.7323" lon="6.06254">
        <ele>1012</ele>
        <time>2014-05-25T08:57:32.000Z</time>
      </trkpt>
      <trkpt lat="45.73211" lon="6.0626">
        <ele>1011.200012207</ele>
        <time>2014-05-25T08:57:38.000Z</time>
      </trkpt>
      <trkpt lat="45.73202" lon="6.06265">
        <ele>1011</ele>
        <time>2014-05-25T08:57:41.000Z</time>
      </trkpt>
      <trkpt lat="45.73189" lon="6.06264">
        <ele>1010.5999755859</ele>
        <time>2014-05-25T08:57:46.000Z</time>
      </trkpt>
      <trkpt lat="45.73182" lon="6.06266">
        <ele>1010.5999755859</ele>
        <time>2014-05-25T08:57:49.000Z</time>
      </trkpt>
      <trkpt lat="45.73166" lon="6.06268">
        <ele>1010.200012207</ele>
        <time>2014-05-25T08:57:55.000Z</time>
      </trkpt>
      <trkpt lat="45.73156" lon="6.06269">
        <ele>1010</ele>
        <time>2014-05-25T08:57:58.000Z</time>
      </trkpt>
      <trkpt lat="45.73144" lon="6.06275">
        <ele>1009.799987793</ele>
        <time>2014-05-25T08:58:03.000Z</time>
      </trkpt>
      <trkpt lat="45.73133" lon="6.0628">
        <ele>1009.5999755859</ele>
        <time>2014-05-25T08:58:07.000Z</time>
      </trkpt>
      <trkpt lat="45.73119" lon="6.06281">
        <ele>1009.200012207</ele>
        <time>2014-05-25T08:58:12.000Z</time>
      </trkpt>
      <trkpt lat="45.73106" lon="6.06283">
        <ele>1009</ele>
        <time>2014-05-25T08:58:16.000Z</time>
      </trkpt>
      <trkpt lat="45.73088" lon="6.06276">
        <ele>1008.799987793</ele>
        <time>2014-05-25T08:58:21.000Z</time>
      </trkpt>
      <trkpt lat="45.73071" lon="6.06267">
        <ele>1008.4000244141</ele>
        <time>2014-05-25T08:58:26.000Z</time>
      </trkpt>
      <trkpt lat="45.73058" lon="6.06263">
        <ele>1008.4000244141</ele>
        <time>2014-05-25T08:58:30.000Z</time>
      </trkpt>
      <trkpt lat="45.73045" lon="6.06262">
        <ele>1008.5999755859</ele>
        <time>2014-05-25T08:58:34.000Z</time>
      </trkpt>
      <trkpt lat="45.73034" lon="6.06272">
        <ele>1009.200012207</ele>
        <time>2014-05-25T08:58:38.000Z</time>
      </trkpt>
      <trkpt lat="45.73019" lon="6.06271">
        <ele>1009.4000244141</ele>
        <time>2014-05-25T08:58:42.000Z</time>
      </trkpt>
      <trkpt lat="45.73015" lon="6.0627">
        <ele>1009.5999755859</ele>
        <time>2014-05-25T08:58:43.000Z</time>
      </trkpt>
      <trkpt lat="45.72995" lon="6.06258">
        <ele>1009.200012207</ele>
        <time>2014-05-25T08:58:49.000Z</time>
      </trkpt>
      <trkpt lat="45.72982" lon="6.0625">
        <ele>1009.200012207</ele>
        <time>2014-05-25T08:58:53.000Z</time>
      </trkpt>
      <trkpt lat="45.72969" lon="6.06241">
        <ele>1009</ele>
        <time>2014-05-25T08:58:58.000Z</time>
      </trkpt>
      <trkpt lat="45.72958" lon="6.06232">
        <ele>1009</ele>
        <time>2014-05-25T08:59:01.000Z</time>
      </trkpt>
      <trkpt lat="45.72947" lon="6.06225">
        <ele>1009</ele>
        <time>2014-05-25T08:59:06.000Z</time>
      </trkpt>
      <trkpt lat="45.72944" lon="6.06226">
        <ele>1009</ele>
        <time>2014-05-25T08:59:09.000Z</time>
      </trkpt>
      <trkpt lat="45.7294" lon="6.06228">
        <ele>1009</ele>
        <time>2014-05-25T08:59:13.000Z</time>
      </trkpt>
      <trkpt lat="45.72929" lon="6.06241">
        <ele>1009</ele>
        <time>2014-05-25T08:59:18.000Z</time>
      </trkpt>
      <trkpt lat="45.72917" lon="6.06252">
        <ele>1009</ele>
        <time>2014-05-25T08:59:23.000Z</time>
      </trkpt>
      <trkpt lat="45.7291" lon="6.06251">
        <ele>1009</ele>
        <time>2014-05-25T08:59:26.000Z</time>
      </trkpt>
      <trkpt lat="45.72896" lon="6.0625">
        <ele>1009</ele>
        <time>2014-05-25T08:59:30.000Z</time>
      </trkpt>
      <trkpt lat="45.72891" lon="6.06252">
        <ele>1009</ele>
        <time>2014-05-25T08:59:34.000Z</time>
      </trkpt>
      <trkpt lat="45.7289" lon="6.06253">
        <ele>1009</ele>
        <time>2014-05-25T08:59:37.000Z</time>
      </trkpt>
      <trkpt lat="45.72887" lon="6.06258">
        <ele>1009</ele>
        <time>2014-05-25T08:59:43.000Z</time>
      </trkpt>
      <trkpt lat="45.72882" lon="6.06267">
        <ele>1009</ele>
        <time>2014-05-25T08:59:47.000Z</time>
      </trkpt>
      <trkpt lat="45.72874" lon="6.06279">
        <ele>1009</ele>
        <time>2014-05-25T08:59:51.000Z</time>
      </trkpt>
      <trkpt lat="45.72867" lon="6.06289">
        <ele>1009</ele>
        <time>2014-05-25T08:59:54.000Z</time>
      </trkpt>
      <trkpt lat="45.72853" lon="6.06298">
        <ele>1008.799987793</ele>
        <time>2014-05-25T08:59:58.000Z</time>
      </trkpt>
      <trkpt lat="45.72841" lon="6.06309">
        <ele>1008.4000244141</ele>
        <time>2014-05-25T09:00:02.000Z</time>
      </trkpt>
      <trkpt lat="45.72834" lon="6.06318">
        <ele>1008.4000244141</ele>
        <time>2014-05-25T09:00:06.000Z</time>
      </trkpt>
      <trkpt lat="45.72827" lon="6.06324">
        <ele>1008.200012207</ele>
        <time>2014-05-25T09:00:12.000Z</time>
      </trkpt>
      <trkpt lat="45.72827" lon="6.06324">
        <ele>1008.200012207</ele>
        <time>2014-05-25T09:00:13.000Z</time>
      </trkpt>
      <trkpt lat="45.72819" lon="6.06323">
        <ele>1008.200012207</ele>
        <time>2014-05-25T09:00:18.000Z</time>
      </trkpt>
      <trkpt lat="45.72817" lon="6.06324">
        <ele>1008.200012207</ele>
        <time>2014-05-25T09:00:19.000Z</time>
      </trkpt>
      <trkpt lat="45.72812" lon="6.06335">
        <ele>1007.799987793</ele>
        <time>2014-05-25T09:00:24.000Z</time>
      </trkpt>
      <trkpt lat="45.72807" lon="6.06342">
        <ele>1007.5999755859</ele>
        <time>2014-05-25T09:00:28.000Z</time>
      </trkpt>
      <trkpt lat="45.72804" lon="6.06347">
        <ele>1007.5999755859</ele>
        <time>2014-05-25T09:00:31.000Z</time>
      </trkpt>
      <trkpt lat="45.728" lon="6.06351">
        <ele>1007.5999755859</ele>
        <time>2014-05-25T09:00:33.000Z</time>
      </trkpt>
      <trkpt lat="45.72799" lon="6.06362">
        <ele>1007.4000244141</ele>
        <time>2014-05-25T09:00:37.000Z</time>
      </trkpt>
      <trkpt lat="45.72794" lon="6.06371">
        <ele>1007.4000244141</ele>
        <time>2014-05-25T09:00:42.000Z</time>
      </trkpt>
      <trkpt lat="45.72787" lon="6.06378">
        <ele>1007.4000244141</ele>
        <time>2014-05-25T09:00:49.000Z</time>
      </trkpt>
      <trkpt lat="45.72782" lon="6.06382">
        <ele>1007.4000244141</ele>
        <time>2014-05-25T09:00:54.000Z</time>
      </trkpt>
      <trkpt lat="45.7278" lon="6.06387">
        <ele>1007.4000244141</ele>
        <time>2014-05-25T09:01:00.000Z</time>
      </trkpt>
      <trkpt lat="45.72778" lon="6.06389">
        <ele>1007.4000244141</ele>
        <time>2014-05-25T09:01:07.000Z</time>
      </trkpt>
      <trkpt lat="45.72771" lon="6.06393">
        <ele>1007.4000244141</ele>
        <time>2014-05-25T09:01:11.000Z</time>
      </trkpt>
      <trkpt lat="45.72768" lon="6.06393">
        <ele>1007.4000244141</ele>
        <time>2014-05-25T09:01:16.000Z</time>
      </trkpt>
      <trkpt lat="45.72764" lon="6.06392">
        <ele>1007.4000244141</ele>
        <time>2014-05-25T09:01:21.000Z</time>
      </trkpt>
      <trkpt lat="45.72761" lon="6.06393">
        <ele>1007.5999755859</ele>
        <time>2014-05-25T09:01:23.000Z</time>
      </trkpt>
      <trkpt lat="45.72756" lon="6.064">
        <ele>1007.4000244141</ele>
        <time>2014-05-25T09:01:27.000Z</time>
      </trkpt>
      <trkpt lat="45.72755" lon="6.06418">
        <ele>1007.200012207</ele>
        <time>2014-05-25T09:01:34.000Z</time>
      </trkpt>
      <trkpt lat="45.72751" lon="6.06426">
        <ele>1007.200012207</ele>
        <time>2014-05-25T09:01:40.000Z</time>
      </trkpt>
      <trkpt lat="45.72749" lon="6.06428">
        <ele>1007.200012207</ele>
        <time>2014-05-25T09:01:41.000Z</time>
      </trkpt>
      <trkpt lat="45.72745" lon="6.06429">
        <ele>1007.200012207</ele>
        <time>2014-05-25T09:01:46.000Z</time>
      </trkpt>
      <trkpt lat="45.72738" lon="6.06423">
        <ele>1007.4000244141</ele>
        <time>2014-05-25T09:01:51.000Z</time>
      </trkpt>
      <trkpt lat="45.72733" lon="6.06425">
        <ele>1007.4000244141</ele>
        <time>2014-05-25T09:01:56.000Z</time>
      </trkpt>
      <trkpt lat="45.72729" lon="6.0643">
        <ele>1007.4000244141</ele>
        <time>2014-05-25T09:02:01.000Z</time>
      </trkpt>
      <trkpt lat="45.72727" lon="6.06432">
        <ele>1007.4000244141</ele>
        <time>2014-05-25T09:02:04.000Z</time>
      </trkpt>
      <trkpt lat="45.72721" lon="6.06429">
        <ele>1007.5999755859</ele>
        <time>2014-05-25T09:02:09.000Z</time>
      </trkpt>
      <trkpt lat="45.72721" lon="6.06429">
        <ele>1007.5999755859</ele>
        <time>2014-05-25T09:02:10.000Z</time>
      </trkpt>
      <trkpt lat="45.72721" lon="6.06426">
        <ele>1007.5999755859</ele>
        <time>2014-05-25T09:02:13.000Z</time>
      </trkpt>
      <trkpt lat="45.72729" lon="6.06422">
        <ele>1007.5999755859</ele>
        <time>2014-05-25T09:02:18.000Z</time>
      </trkpt>
      <trkpt lat="45.72734" lon="6.06419">
        <ele>1007.5999755859</ele>
        <time>2014-05-25T09:02:22.000Z</time>
      </trkpt>
      <trkpt lat="45.7274" lon="6.06422">
        <ele>1007.4000244141</ele>
        <time>2014-05-25T09:02:25.000Z</time>
      </trkpt>
      <trkpt lat="45.72741" lon="6.06423">
        <ele>1007.4000244141</ele>
        <time>2014-05-25T09:02:26.000Z</time>
      </trkpt>
      <trkpt lat="45.7275" lon="6.06419">
        <ele>1007.4000244141</ele>
        <time>2014-05-25T09:02:32.000Z</time>
      </trkpt>
      <trkpt lat="45.72757" lon="6.06421">
        <ele>1007.200012207</ele>
        <time>2014-05-25T09:02:36.000Z</time>
      </trkpt>
      <trkpt lat="45.72764" lon="6.06418">
        <ele>1007.200012207</ele>
        <time>2014-05-25T09:02:40.000Z</time>
      </trkpt>
      <trkpt lat="45.72766" lon="6.06418">
        <ele>1007.200012207</ele>
        <time>2014-05-25T09:02:41.000Z</time>
      </trkpt>
      <trkpt lat="45.72768" lon="6.06418">
        <ele>1007.200012207</ele>
        <time>2014-05-25T09:02:43.000Z</time>
      </trkpt>
      <trkpt lat="45.7277" lon="6.06419">
        <ele>1007</ele>
        <time>2014-05-25T09:02:47.000Z</time>
      </trkpt>
      <trkpt lat="45.72775" lon="6.06425">
        <ele>1007</ele>
        <time>2014-05-25T09:02:52.000Z</time>
      </trkpt>
      <trkpt lat="45.72776" lon="6.06428">
        <ele>1007</ele>
        <time>2014-05-25T09:03:00.000Z</time>
      </trkpt>
      <trkpt lat="45.72776" lon="6.0643">
        <ele>1006.799987793</ele>
        <time>2014-05-25T09:03:04.000Z</time>
      </trkpt>
      <trkpt lat="45.72777" lon="6.06433">
        <ele>1006.799987793</ele>
        <time>2014-05-25T09:03:07.000Z</time>
      </trkpt>
      <trkpt lat="45.72781" lon="6.06444">
        <ele>1006.5999755859</ele>
        <time>2014-05-25T09:03:12.000Z</time>
      </trkpt>
      <trkpt lat="45.72776" lon="6.06449">
        <ele>1006.5999755859</ele>
        <time>2014-05-25T09:03:19.000Z</time>
      </trkpt>
      <trkpt lat="45.72775" lon="6.06447">
        <ele>1006.5999755859</ele>
        <time>2014-05-25T09:03:24.000Z</time>
      </trkpt>
      <trkpt lat="45.72769" lon="6.06435">
        <ele>1007</ele>
        <time>2014-05-25T09:03:30.000Z</time>
      </trkpt>
      <trkpt lat="45.72772" lon="6.06431">
        <ele>1007</ele>
        <time>2014-05-25T09:03:33.000Z</time>
      </trkpt>
      <trkpt lat="45.72776" lon="6.06428">
        <ele>1007</ele>
        <time>2014-05-25T09:03:38.000Z</time>
      </trkpt>
      <trkpt lat="45.72776" lon="6.06429">
        <ele>1006.799987793</ele>
        <time>2014-05-25T09:03:39.000Z</time>
      </trkpt>
      <trkpt lat="45.72786" lon="6.06424">
        <ele>1006.799987793</ele>
        <time>2014-05-25T09:03:45.000Z</time>
      </trkpt>
      <trkpt lat="45.72789" lon="6.06422">
        <ele>1006.799987793</ele>
        <time>2014-05-25T09:03:47.000Z</time>
      </trkpt>
      <trkpt lat="45.72792" lon="6.06421">
        <ele>1006.799987793</ele>
        <time>2014-05-25T09:03:49.000Z</time>
      </trkpt>
      <trkpt lat="45.72795" lon="6.06413">
        <ele>1006.799987793</ele>
        <time>2014-05-25T09:03:55.000Z</time>
      </trkpt>
      <trkpt lat="45.72797" lon="6.06403">
        <ele>1007</ele>
        <time>2014-05-25T09:04:00.000Z</time>
      </trkpt>
      <trkpt lat="45.728" lon="6.06397">
        <ele>1007</ele>
        <time>2014-05-25T09:04:04.000Z</time>
      </trkpt>
      <trkpt lat="45.72801" lon="6.06397">
        <ele>1007</ele>
        <time>2014-05-25T09:04:14.000Z</time>
      </trkpt>
      <trkpt lat="45.72802" lon="6.06403">
        <ele>1007</ele>
        <time>2014-05-25T09:04:21.000Z</time>
      </trkpt>
      <trkpt lat="45.72803" lon="6.06403">
        <ele>1006.799987793</ele>
        <time>2014-05-25T09:04:26.000Z</time>
      </trkpt>
      <trkpt lat="45.72803" lon="6.06402">
        <ele>1007</ele>
        <time>2014-05-25T09:04:30.000Z</time>
      </trkpt>
      <trkpt lat="45.72806" lon="6.06406">
        <ele>1007</ele>
        <time>2014-05-25T09:04:36.000Z</time>
      </trkpt>
      <trkpt lat="45.72809" lon="6.06427">
        <ele>1007</ele>
        <time>2014-05-25T09:04:42.000Z</time>
      </trkpt>
      <trkpt lat="45.72813" lon="6.06438">
        <ele>1007</ele>
        <time>2014-05-25T09:04:46.000Z</time>
      </trkpt>
      <trkpt lat="45.72814" lon="6.06444">
        <ele>1007</ele>
        <time>2014-05-25T09:04:49.000Z</time>
      </trkpt>
      <trkpt lat="45.72815" lon="6.06474">
        <ele>1006.799987793</ele>
        <time>2014-05-25T09:04:55.000Z</time>
      </trkpt>
      <trkpt lat="45.72817" lon="6.06487">
        <ele>1007.200012207</ele>
        <time>2014-05-25T09:04:58.000Z</time>
      </trkpt>
      <trkpt lat="45.72818" lon="6.0649">
        <ele>1007.4000244141</ele>
        <time>2014-05-25T09:05:01.000Z</time>
      </trkpt>
      <trkpt lat="45.72817" lon="6.06513">
        <ele>1007.200012207</ele>
        <time>2014-05-25T09:05:07.000Z</time>
      </trkpt>
      <trkpt lat="45.72821" lon="6.06523">
        <ele>1007.5999755859</ele>
        <time>2014-05-25T09:05:11.000Z</time>
      </trkpt>
      <trkpt lat="45.72823" lon="6.06529">
        <ele>1007.799987793</ele>
        <time>2014-05-25T09:05:16.000Z</time>
      </trkpt>
      <trkpt lat="45.72826" lon="6.06528">
        <ele>1008.200012207</ele>
        <time>2014-05-25T09:05:23.000Z</time>
      </trkpt>
      <trkpt lat="45.72832" lon="6.06537">
        <ele>1008.799987793</ele>
        <time>2014-05-25T09:05:28.000Z</time>
      </trkpt>
      <trkpt lat="45.72835" lon="6.06539">
        <ele>1009</ele>
        <time>2014-05-25T09:05:30.000Z</time>
      </trkpt>
      <trkpt lat="45.72839" lon="6.06542">
        <ele>1009.4000244141</ele>
        <time>2014-05-25T09:05:36.000Z</time>
      </trkpt>
      <trkpt lat="45.72835" lon="6.06551">
        <ele>1009</ele>
        <time>2014-05-25T09:05:41.000Z</time>
      </trkpt>
      <trkpt lat="45.72832" lon="6.06558">
        <ele>1008.799987793</ele>
        <time>2014-05-25T09:05:43.000Z</time>
      </trkpt>
      <trkpt lat="45.7282" lon="6.06581">
        <ele>1007.799987793</ele>
        <time>2014-05-25T09:05:50.000Z</time>
      </trkpt>
      <trkpt lat="45.72811" lon="6.06589">
        <ele>1007.200012207</ele>
        <time>2014-05-25T09:05:54.000Z</time>
      </trkpt>
      <trkpt lat="45.72802" lon="6.06597">
        <ele>1006.799987793</ele>
        <time>2014-05-25T09:05:58.000Z</time>
      </trkpt>
      <trkpt lat="45.728" lon="6.06598">
        <ele>1006.799987793</ele>
        <time>2014-05-25T09:05:59.000Z</time>
      </trkpt>
      <trkpt lat="45.72794" lon="6.06606">
        <ele>1006.799987793</ele>
        <time>2014-05-25T09:06:04.000Z</time>
      </trkpt>
      <trkpt lat="45.72793" lon="6.0661">
        <ele>1006.799987793</ele>
        <time>2014-05-25T09:06:06.000Z</time>
      </trkpt>
      <trkpt lat="45.72781" lon="6.06619">
        <ele>1006.5999755859</ele>
        <time>2014-05-25T09:06:12.000Z</time>
      </trkpt>
      <trkpt lat="45.72779" lon="6.06633">
        <ele>1006.4000244141</ele>
        <time>2014-05-25T09:06:16.000Z</time>
      </trkpt>
      <trkpt lat="45.72775" lon="6.06641">
        <ele>1006.200012207</ele>
        <time>2014-05-25T09:06:20.000Z</time>
      </trkpt>
      <trkpt lat="45.72775" lon="6.06653">
        <ele>1006.4000244141</ele>
        <time>2014-05-25T09:06:24.000Z</time>
      </trkpt>
      <trkpt lat="45.72774" lon="6.0667">
        <ele>1006.5999755859</ele>
        <time>2014-05-25T09:06:29.000Z</time>
      </trkpt>
      <trkpt lat="45.72773" lon="6.06683">
        <ele>1006.5999755859</ele>
        <time>2014-05-25T09:06:34.000Z</time>
      </trkpt>
      <trkpt lat="45.7277" lon="6.06688">
        <ele>1006.5999755859</ele>
        <time>2014-05-25T09:06:38.000Z</time>
      </trkpt>
      <trkpt lat="45.72768" lon="6.06689">
        <ele>1006.4000244141</ele>
        <time>2014-05-25T09:06:48.000Z</time>
      </trkpt>
      <trkpt lat="45.72766" lon="6.06689">
        <ele>1006.200012207</ele>
        <time>2014-05-25T09:06:54.000Z</time>
      </trkpt>
      <trkpt lat="45.72762" lon="6.0669">
        <ele>1006</ele>
        <time>2014-05-25T09:06:59.000Z</time>
      </trkpt>
      <trkpt lat="45.72761" lon="6.0669">
        <ele>1006</ele>
        <time>2014-05-25T09:07:06.000Z</time>
      </trkpt>
      <trkpt lat="45.72761" lon="6.0669">
        <ele>1005.799987793</ele>
        <time>2014-05-25T09:07:07.000Z</time>
      </trkpt>
      <trkpt lat="45.72744" lon="6.06684">
        <ele>1004.5999755859</ele>
        <time>2014-05-25T09:07:13.000Z</time>
      </trkpt>
      <trkpt lat="45.72731" lon="6.06681">
        <ele>1003.799987793</ele>
        <time>2014-05-25T09:07:17.000Z</time>
      </trkpt>
      <trkpt lat="45.72728" lon="6.06681">
        <ele>1003.5999755859</ele>
        <time>2014-05-25T09:07:18.000Z</time>
      </trkpt>
      <trkpt lat="45.72722" lon="6.06687">
        <ele>1003.200012207</ele>
        <time>2014-05-25T09:07:23.000Z</time>
      </trkpt>
      <trkpt lat="45.7272" lon="6.06689">
        <ele>1003</ele>
        <time>2014-05-25T09:07:27.000Z</time>
      </trkpt>
      <trkpt lat="45.72716" lon="6.06704">
        <ele>1002.5999755859</ele>
        <time>2014-05-25T09:07:32.000Z</time>
      </trkpt>
      <trkpt lat="45.72725" lon="6.06716">
        <ele>1003.4000244141</ele>
        <time>2014-05-25T09:07:37.000Z</time>
      </trkpt>
      <trkpt lat="45.72738" lon="6.06719">
        <ele>1004.200012207</ele>
        <time>2014-05-25T09:07:41.000Z</time>
      </trkpt>
      <trkpt lat="45.72752" lon="6.0673">
        <ele>1005.4000244141</ele>
        <time>2014-05-25T09:07:46.000Z</time>
      </trkpt>
      <trkpt lat="45.72757" lon="6.06737">
        <ele>1005.799987793</ele>
        <time>2014-05-25T09:07:48.000Z</time>
      </trkpt>
      <trkpt lat="45.72769" lon="6.06747">
        <ele>1007</ele>
        <time>2014-05-25T09:07:53.000Z</time>
      </trkpt>
      <trkpt lat="45.72782" lon="6.06756">
        <ele>1008.200012207</ele>
        <time>2014-05-25T09:07:58.000Z</time>
      </trkpt>
      <trkpt lat="45.7279" lon="6.06761">
        <ele>1008.799987793</ele>
        <time>2014-05-25T09:08:01.000Z</time>
      </trkpt>
      <trkpt lat="45.72807" lon="6.06763">
        <ele>1010.200012207</ele>
        <time>2014-05-25T09:08:06.000Z</time>
      </trkpt>
      <trkpt lat="45.72814" lon="6.06764">
        <ele>1011.200012207</ele>
        <time>2014-05-25T09:08:10.000Z</time>
      </trkpt>
      <trkpt lat="45.72823" lon="6.06763">
        <ele>1012.200012207</ele>
        <time>2014-05-25T09:08:15.000Z</time>
      </trkpt>
      <trkpt lat="45.7283" lon="6.06764">
        <ele>1013</ele>
        <time>2014-05-25T09:08:20.000Z</time>
      </trkpt>
      <trkpt lat="45.72836" lon="6.06764">
        <ele>1013.799987793</ele>
        <time>2014-05-25T09:08:32.000Z</time>
      </trkpt>
      <trkpt lat="45.72838" lon="6.06763">
        <ele>1014</ele>
        <time>2014-05-25T09:08:38.000Z</time>
      </trkpt>
      <trkpt lat="45.72838" lon="6.06763">
        <ele>1014</ele>
        <time>2014-05-25T09:08:40.000Z</time>
      </trkpt>
      <trkpt lat="45.72842" lon="6.06765">
        <ele>1014.4000244141</ele>
        <time>2014-05-25T09:08:45.000Z</time>
      </trkpt>
      <trkpt lat="45.72849" lon="6.0677">
        <ele>1015.4000244141</ele>
        <time>2014-05-25T09:08:50.000Z</time>
      </trkpt>
      <trkpt lat="45.72855" lon="6.06773">
        <ele>1016.200012207</ele>
        <time>2014-05-25T09:08:55.000Z</time>
      </trkpt>
      <trkpt lat="45.72862" lon="6.06773">
        <ele>1016.799987793</ele>
        <time>2014-05-25T09:09:01.000Z</time>
      </trkpt>
      <trkpt lat="45.72864" lon="6.06772">
        <ele>1017</ele>
        <time>2014-05-25T09:09:02.000Z</time>
      </trkpt>
      <trkpt lat="45.7287" lon="6.06773">
        <ele>1017.5999755859</ele>
        <time>2014-05-25T09:09:09.000Z</time>
      </trkpt>
      <trkpt lat="45.72873" lon="6.06774">
        <ele>1018</ele>
        <time>2014-05-25T09:09:15.000Z</time>
      </trkpt>
      <trkpt lat="45.72881" lon="6.06782">
        <ele>1019</ele>
        <time>2014-05-25T09:09:21.000Z</time>
      </trkpt>
      <trkpt lat="45.72887" lon="6.06791">
        <ele>1020.200012207</ele>
        <time>2014-05-25T09:09:25.000Z</time>
      </trkpt>
      <trkpt lat="45.72893" lon="6.06797">
        <ele>1021</ele>
        <time>2014-05-25T09:09:29.000Z</time>
      </trkpt>
      <trkpt lat="45.72895" lon="6.06808">
        <ele>1021.5999755859</ele>
        <time>2014-05-25T09:09:33.000Z</time>
      </trkpt>
      <trkpt lat="45.72898" lon="6.06818">
        <ele>1022.200012207</ele>
        <time>2014-05-25T09:09:38.000Z</time>
      </trkpt>
      <trkpt lat="45.729" lon="6.06822">
        <ele>1022.4000244141</ele>
        <time>2014-05-25T09:09:40.000Z</time>
      </trkpt>
      <trkpt lat="45.729" lon="6.0683">
        <ele>1022.5999755859</ele>
        <time>2014-05-25T09:09:45.000Z</time>
      </trkpt>
      <trkpt lat="45.72903" lon="6.06832">
        <ele>1022.799987793</ele>
        <time>2014-05-25T09:09:48.000Z</time>
      </trkpt>
      <trkpt lat="45.72904" lon="6.06835">
        <ele>1023</ele>
        <time>2014-05-25T09:09:50.000Z</time>
      </trkpt>
      <trkpt lat="45.72909" lon="6.06843">
        <ele>1023.5999755859</ele>
        <time>2014-05-25T09:09:55.000Z</time>
      </trkpt>
      <trkpt lat="45.72914" lon="6.06846">
        <ele>1024.1999511719</ele>
        <time>2014-05-25T09:09:59.000Z</time>
      </trkpt>
      <trkpt lat="45.72918" lon="6.06851">
        <ele>1024.5999755859</ele>
        <time>2014-05-25T09:10:02.000Z</time>
      </trkpt>
      <trkpt lat="45.72923" lon="6.06856">
        <ele>1025.1999511719</ele>
        <time>2014-05-25T09:10:07.000Z</time>
      </trkpt>
      <trkpt lat="45.72926" lon="6.0686">
        <ele>1025.4000244141</ele>
        <time>2014-05-25T09:10:11.000Z</time>
      </trkpt>
      <trkpt lat="45.72928" lon="6.06862">
        <ele>1025.5999755859</ele>
        <time>2014-05-25T09:10:13.000Z</time>
      </trkpt>
      <trkpt lat="45.72934" lon="6.06863">
        <ele>1026.1999511719</ele>
        <time>2014-05-25T09:10:17.000Z</time>
      </trkpt>
      <trkpt lat="45.72942" lon="6.0687">
        <ele>1027</ele>
        <time>2014-05-25T09:10:22.000Z</time>
      </trkpt>
      <trkpt lat="45.72943" lon="6.06874">
        <ele>1027.1999511719</ele>
        <time>2014-05-25T09:10:25.000Z</time>
      </trkpt>
      <trkpt lat="45.72943" lon="6.06876">
        <ele>1027.1999511719</ele>
        <time>2014-05-25T09:10:27.000Z</time>
      </trkpt>
      <trkpt lat="45.72942" lon="6.06883">
        <ele>1027.4000244141</ele>
        <time>2014-05-25T09:10:33.000Z</time>
      </trkpt>
      <trkpt lat="45.72945" lon="6.06886">
        <ele>1027.8000488281</ele>
        <time>2014-05-25T09:10:37.000Z</time>
      </trkpt>
      <trkpt lat="45.72948" lon="6.0689">
        <ele>1028</ele>
        <time>2014-05-25T09:10:41.000Z</time>
      </trkpt>
      <trkpt lat="45.72951" lon="6.06889">
        <ele>1028.1999511719</ele>
        <time>2014-05-25T09:10:43.000Z</time>
      </trkpt>
      <trkpt lat="45.72959" lon="6.06888">
        <ele>1028.8000488281</ele>
        <time>2014-05-25T09:10:48.000Z</time>
      </trkpt>
      <trkpt lat="45.72964" lon="6.06887">
        <ele>1029.1999511719</ele>
        <time>2014-05-25T09:10:51.000Z</time>
      </trkpt>
      <trkpt lat="45.72969" lon="6.06886">
        <ele>1029.8000488281</ele>
        <time>2014-05-25T09:10:54.000Z</time>
      </trkpt>
      <trkpt lat="45.72975" lon="6.06895">
        <ele>1030.5999755859</ele>
        <time>2014-05-25T09:10:59.000Z</time>
      </trkpt>
      <trkpt lat="45.72978" lon="6.069">
        <ele>1031</ele>
        <time>2014-05-25T09:11:01.000Z</time>
      </trkpt>
      <trkpt lat="45.72983" lon="6.06906">
        <ele>1031.5999755859</ele>
        <time>2014-05-25T09:11:08.000Z</time>
      </trkpt>
      <trkpt lat="45.72986" lon="6.06909">
        <ele>1032</ele>
        <time>2014-05-25T09:11:13.000Z</time>
      </trkpt>
      <trkpt lat="45.72989" lon="6.06912">
        <ele>1032.4000244141</ele>
        <time>2014-05-25T09:11:17.000Z</time>
      </trkpt>
      <trkpt lat="45.7299" lon="6.06914">
        <ele>1032.5999755859</ele>
        <time>2014-05-25T09:11:24.000Z</time>
      </trkpt>
      <trkpt lat="45.72993" lon="6.06914">
        <ele>1033</ele>
        <time>2014-05-25T09:11:29.000Z</time>
      </trkpt>
      <trkpt lat="45.72995" lon="6.06915">
        <ele>1033.1999511719</ele>
        <time>2014-05-25T09:11:30.000Z</time>
      </trkpt>
      <trkpt lat="45.73006" lon="6.06917">
        <ele>1034.4000244141</ele>
        <time>2014-05-25T09:11:35.000Z</time>
      </trkpt>
      <trkpt lat="45.73013" lon="6.06917">
        <ele>1035.1999511719</ele>
        <time>2014-05-25T09:11:39.000Z</time>
      </trkpt>
      <trkpt lat="45.73015" lon="6.06917">
        <ele>1035.4000244141</ele>
        <time>2014-05-25T09:11:41.000Z</time>
      </trkpt>
      <trkpt lat="45.73021" lon="6.06916">
        <ele>1036</ele>
        <time>2014-05-25T09:11:46.000Z</time>
      </trkpt>
      <trkpt lat="45.73025" lon="6.0692">
        <ele>1036.5999755859</ele>
        <time>2014-05-25T09:11:50.000Z</time>
      </trkpt>
      <trkpt lat="45.73027" lon="6.06923">
        <ele>1036.8000488281</ele>
        <time>2014-05-25T09:11:54.000Z</time>
      </trkpt>
      <trkpt lat="45.7303" lon="6.06933">
        <ele>1037.4000244141</ele>
        <time>2014-05-25T09:11:58.000Z</time>
      </trkpt>
      <trkpt lat="45.73032" lon="6.06934">
        <ele>1037.5999755859</ele>
        <time>2014-05-25T09:12:01.000Z</time>
      </trkpt>
      <trkpt lat="45.73035" lon="6.06935">
        <ele>1038</ele>
        <time>2014-05-25T09:12:05.000Z</time>
      </trkpt>
      <trkpt lat="45.73038" lon="6.06938">
        <ele>1038.4000244141</ele>
        <time>2014-05-25T09:12:11.000Z</time>
      </trkpt>
      <trkpt lat="45.73041" lon="6.06943">
        <ele>1038.8000488281</ele>
        <time>2014-05-25T09:12:15.000Z</time>
      </trkpt>
      <trkpt lat="45.73051" lon="6.06947">
        <ele>1040</ele>
        <time>2014-05-25T09:12:20.000Z</time>
      </trkpt>
      <trkpt lat="45.73055" lon="6.06944">
        <ele>1040.4000244141</ele>
        <time>2014-05-25T09:12:28.000Z</time>
      </trkpt>
      <trkpt lat="45.7306" lon="6.06941">
        <ele>1040.8000488281</ele>
        <time>2014-05-25T09:12:34.000Z</time>
      </trkpt>
      <trkpt lat="45.73065" lon="6.06938">
        <ele>1041.4000244141</ele>
        <time>2014-05-25T09:12:39.000Z</time>
      </trkpt>
      <trkpt lat="45.73078" lon="6.06939">
        <ele>1043</ele>
        <time>2014-05-25T09:12:43.000Z</time>
      </trkpt>
      <trkpt lat="45.73088" lon="6.06941">
        <ele>1044.1999511719</ele>
        <time>2014-05-25T09:12:46.000Z</time>
      </trkpt>
      <trkpt lat="45.73099" lon="6.06939">
        <ele>1045.5999755859</ele>
        <time>2014-05-25T09:12:51.000Z</time>
      </trkpt>
      <trkpt lat="45.73104" lon="6.0694">
        <ele>1046</ele>
        <time>2014-05-25T09:12:55.000Z</time>
      </trkpt>
      <trkpt lat="45.73104" lon="6.06941">
        <ele>1046.1999511719</ele>
        <time>2014-05-25T09:12:56.000Z</time>
      </trkpt>
      <trkpt lat="45.73111" lon="6.06947">
        <ele>1047</ele>
        <time>2014-05-25T09:13:01.000Z</time>
      </trkpt>
      <trkpt lat="45.73114" lon="6.06947">
        <ele>1047.4000244141</ele>
        <time>2014-05-25T09:13:04.000Z</time>
      </trkpt>
      <trkpt lat="45.73118" lon="6.06944">
        <ele>1047.5999755859</ele>
        <time>2014-05-25T09:13:12.000Z</time>
      </trkpt>
      <trkpt lat="45.73118" lon="6.06942">
        <ele>1047.4000244141</ele>
        <time>2014-05-25T09:13:24.000Z</time>
      </trkpt>
      <trkpt lat="45.7312" lon="6.06948">
        <ele>1048</ele>
        <time>2014-05-25T09:13:29.000Z</time>
      </trkpt>
      <trkpt lat="45.73124" lon="6.06953">
        <ele>1048.5999755859</ele>
        <time>2014-05-25T09:13:39.000Z</time>
      </trkpt>
      <trkpt lat="45.73124" lon="6.06957">
        <ele>1048.8000488281</ele>
        <time>2014-05-25T09:13:44.000Z</time>
      </trkpt>
      <trkpt lat="45.73124" lon="6.06958">
        <ele>1048.8000488281</ele>
        <time>2014-05-25T09:13:51.000Z</time>
      </trkpt>
      <trkpt lat="45.73124" lon="6.06959">
        <ele>1048.8000488281</ele>
        <time>2014-05-25T09:13:56.000Z</time>
      </trkpt>
      <trkpt lat="45.73125" lon="6.06961">
        <ele>1049</ele>
        <time>2014-05-25T09:13:59.000Z</time>
      </trkpt>
      <trkpt lat="45.73127" lon="6.06969">
        <ele>1049.5999755859</ele>
        <time>2014-05-25T09:14:04.000Z</time>
      </trkpt>
      <trkpt lat="45.73128" lon="6.06969">
        <ele>1049.8000488281</ele>
        <time>2014-05-25T09:14:05.000Z</time>
      </trkpt>
      <trkpt lat="45.73133" lon="6.06971">
        <ele>1050.4000244141</ele>
        <time>2014-05-25T09:14:10.000Z</time>
      </trkpt>
      <trkpt lat="45.73134" lon="6.06973">
        <ele>1050.5999755859</ele>
        <time>2014-05-25T09:14:12.000Z</time>
      </trkpt>
      <trkpt lat="45.73135" lon="6.06984">
        <ele>1051.4000244141</ele>
        <time>2014-05-25T09:14:16.000Z</time>
      </trkpt>
      <trkpt lat="45.73139" lon="6.06995">
        <ele>1052.8000488281</ele>
        <time>2014-05-25T09:14:21.000Z</time>
      </trkpt>
      <trkpt lat="45.73142" lon="6.07001">
        <ele>1053.8000488281</ele>
        <time>2014-05-25T09:14:25.000Z</time>
      </trkpt>
      <trkpt lat="45.73145" lon="6.07004">
        <ele>1054.5999755859</ele>
        <time>2014-05-25T09:14:28.000Z</time>
      </trkpt>
      <trkpt lat="45.73145" lon="6.07008">
        <ele>1054.8000488281</ele>
        <time>2014-05-25T09:14:31.000Z</time>
      </trkpt>
      <trkpt lat="45.73145" lon="6.0701">
        <ele>1055</ele>
        <time>2014-05-25T09:14:34.000Z</time>
      </trkpt>
      <trkpt lat="45.73149" lon="6.07019">
        <ele>1056.4000244141</ele>
        <time>2014-05-25T09:14:39.000Z</time>
      </trkpt>
      <trkpt lat="45.73147" lon="6.07029">
        <ele>1057</ele>
        <time>2014-05-25T09:14:44.000Z</time>
      </trkpt>
      <trkpt lat="45.73146" lon="6.07035">
        <ele>1057.4000244141</ele>
        <time>2014-05-25T09:14:48.000Z</time>
      </trkpt>
      <trkpt lat="45.73147" lon="6.07041">
        <ele>1058</ele>
        <time>2014-05-25T09:14:52.000Z</time>
      </trkpt>
      <trkpt lat="45.73146" lon="6.0704">
        <ele>1057.8000488281</ele>
        <time>2014-05-25T09:14:59.000Z</time>
      </trkpt>
      <trkpt lat="45.73147" lon="6.07042">
        <ele>1058</ele>
        <time>2014-05-25T09:15:11.000Z</time>
      </trkpt>
      <trkpt lat="45.73146" lon="6.07045">
        <ele>1058.1999511719</ele>
        <time>2014-05-25T09:15:20.000Z</time>
      </trkpt>
      <trkpt lat="45.73143" lon="6.0705">
        <ele>1058.1999511719</ele>
        <time>2014-05-25T09:15:25.000Z</time>
      </trkpt>
      <trkpt lat="45.73145" lon="6.07054">
        <ele>1058.5999755859</ele>
        <time>2014-05-25T09:15:29.000Z</time>
      </trkpt>
      <trkpt lat="45.73145" lon="6.07062">
        <ele>1059.4000244141</ele>
        <time>2014-05-25T09:15:35.000Z</time>
      </trkpt>
      <trkpt lat="45.73146" lon="6.07065">
        <ele>1059.8000488281</ele>
        <time>2014-05-25T09:15:39.000Z</time>
      </trkpt>
      <trkpt lat="45.73148" lon="6.07065">
        <ele>1060</ele>
        <time>2014-05-25T09:15:43.000Z</time>
      </trkpt>
      <trkpt lat="45.73151" lon="6.07062">
        <ele>1060.1999511719</ele>
        <time>2014-05-25T09:15:46.000Z</time>
      </trkpt>
      <trkpt lat="45.7316" lon="6.07066">
        <ele>1061.8000488281</ele>
        <time>2014-05-25T09:15:52.000Z</time>
      </trkpt>
      <trkpt lat="45.73164" lon="6.07064">
        <ele>1062.4000244141</ele>
        <time>2014-05-25T09:15:55.000Z</time>
      </trkpt>
      <trkpt lat="45.73168" lon="6.07064">
        <ele>1063.1999511719</ele>
        <time>2014-05-25T09:15:57.000Z</time>
      </trkpt>
      <trkpt lat="45.73175" lon="6.07068">
        <ele>1064.4000244141</ele>
        <time>2014-05-25T09:16:01.000Z</time>
      </trkpt>
      <trkpt lat="45.73177" lon="6.0707">
        <ele>1064.8000488281</ele>
        <time>2014-05-25T09:16:03.000Z</time>
      </trkpt>
      <trkpt lat="45.73177" lon="6.07079">
        <ele>1065.4000244141</ele>
        <time>2014-05-25T09:16:08.000Z</time>
      </trkpt>
      <trkpt lat="45.73177" lon="6.07081">
        <ele>1065.5999755859</ele>
        <time>2014-05-25T09:16:09.000Z</time>
      </trkpt>
      <trkpt lat="45.73182" lon="6.0709">
        <ele>1066.8000488281</ele>
        <time>2014-05-25T09:16:13.000Z</time>
      </trkpt>
      <trkpt lat="45.73186" lon="6.07094">
        <ele>1067.5999755859</ele>
        <time>2014-05-25T09:16:16.000Z</time>
      </trkpt>
      <trkpt lat="45.73188" lon="6.07097">
        <ele>1068.1999511719</ele>
        <time>2014-05-25T09:16:19.000Z</time>
      </trkpt>
      <trkpt lat="45.73189" lon="6.07099">
        <ele>1068.5999755859</ele>
        <time>2014-05-25T09:16:21.000Z</time>
      </trkpt>
      <trkpt lat="45.73194" lon="6.07105">
        <ele>1069.5999755859</ele>
        <time>2014-05-25T09:16:26.000Z</time>
      </trkpt>
      <trkpt lat="45.73195" lon="6.07107">
        <ele>1069.8000488281</ele>
        <time>2014-05-25T09:16:27.000Z</time>
      </trkpt>
      <trkpt lat="45.73197" lon="6.07109">
        <ele>1070.4000244141</ele>
        <time>2014-05-25T09:16:30.000Z</time>
      </trkpt>
      <trkpt lat="45.73198" lon="6.07113">
        <ele>1070.8000488281</ele>
        <time>2014-05-25T09:16:36.000Z</time>
      </trkpt>
      <trkpt lat="45.73199" lon="6.07115">
        <ele>1071</ele>
        <time>2014-05-25T09:16:37.000Z</time>
      </trkpt>
      <trkpt lat="45.73201" lon="6.07121">
        <ele>1071.5999755859</ele>
        <time>2014-05-25T09:16:44.000Z</time>
      </trkpt>
      <trkpt lat="45.73202" lon="6.07124">
        <ele>1072</ele>
        <time>2014-05-25T09:16:49.000Z</time>
      </trkpt>
      <trkpt lat="45.73203" lon="6.07125">
        <ele>1072.1999511719</ele>
        <time>2014-05-25T09:16:53.000Z</time>
      </trkpt>
      <trkpt lat="45.73206" lon="6.07135">
        <ele>1073.4000244141</ele>
        <time>2014-05-25T09:16:58.000Z</time>
      </trkpt>
      <trkpt lat="45.73209" lon="6.07144">
        <ele>1074.1999511719</ele>
        <time>2014-05-25T09:17:03.000Z</time>
      </trkpt>
      <trkpt lat="45.73211" lon="6.07152">
        <ele>1075</ele>
        <time>2014-05-25T09:17:08.000Z</time>
      </trkpt>
      <trkpt lat="45.73213" lon="6.07154">
        <ele>1075.1999511719</ele>
        <time>2014-05-25T09:17:10.000Z</time>
      </trkpt>
      <trkpt lat="45.73219" lon="6.07162">
        <ele>1076.4000244141</ele>
        <time>2014-05-25T09:17:15.000Z</time>
      </trkpt>
      <trkpt lat="45.73222" lon="6.07169">
        <ele>1077.1999511719</ele>
        <time>2014-05-25T09:17:20.000Z</time>
      </trkpt>
      <trkpt lat="45.73223" lon="6.07166">
        <ele>1077.1999511719</ele>
        <time>2014-05-25T09:17:26.000Z</time>
      </trkpt>
      <trkpt lat="45.73223" lon="6.07157">
        <ele>1076.8000488281</ele>
        <time>2014-05-25T09:17:31.000Z</time>
      </trkpt>
      <trkpt lat="45.73223" lon="6.07154">
        <ele>1076.8000488281</ele>
        <time>2014-05-25T09:17:33.000Z</time>
      </trkpt>
      <trkpt lat="45.73228" lon="6.07143">
        <ele>1077.1999511719</ele>
        <time>2014-05-25T09:17:38.000Z</time>
      </trkpt>
      <trkpt lat="45.73231" lon="6.07128">
        <ele>1076.8000488281</ele>
        <time>2014-05-25T09:17:43.000Z</time>
      </trkpt>
      <trkpt lat="45.73238" lon="6.0712">
        <ele>1077.5999755859</ele>
        <time>2014-05-25T09:17:48.000Z</time>
      </trkpt>
      <trkpt lat="45.73237" lon="6.0712">
        <ele>1077.4000244141</ele>
        <time>2014-05-25T09:18:09.000Z</time>
      </trkpt>
      <trkpt lat="45.73236" lon="6.07119">
        <ele>1077.1999511719</ele>
        <time>2014-05-25T09:18:36.000Z</time>
      </trkpt>
      <trkpt lat="45.73236" lon="6.07119">
        <ele>1077.1999511719</ele>
        <time>2014-05-25T09:18:50.000Z</time>
      </trkpt>
      <trkpt lat="45.73228" lon="6.07129">
        <ele>1076.4000244141</ele>
        <time>2014-05-25T09:18:56.000Z</time>
      </trkpt>
      <trkpt lat="45.73229" lon="6.0713">
        <ele>1076.8000488281</ele>
        <time>2014-05-25T09:19:01.000Z</time>
      </trkpt>
      <trkpt lat="45.73228" lon="6.07142">
        <ele>1077.1999511719</ele>
        <time>2014-05-25T09:19:06.000Z</time>
      </trkpt>
      <trkpt lat="45.73222" lon="6.0716">
        <ele>1076.8000488281</ele>
        <time>2014-05-25T09:19:10.000Z</time>
      </trkpt>
      <trkpt lat="45.7322" lon="6.07181">
        <ele>1077.1999511719</ele>
        <time>2014-05-25T09:19:14.000Z</time>
      </trkpt>
      <trkpt lat="45.73218" lon="6.07194">
        <ele>1077.4000244141</ele>
        <time>2014-05-25T09:19:18.000Z</time>
      </trkpt>
      <trkpt lat="45.73219" lon="6.07205">
        <ele>1078</ele>
        <time>2014-05-25T09:19:23.000Z</time>
      </trkpt>
      <trkpt lat="45.73219" lon="6.07211">
        <ele>1078.1999511719</ele>
        <time>2014-05-25T09:19:29.000Z</time>
      </trkpt>
      <trkpt lat="45.73219" lon="6.07217">
        <ele>1078.4000244141</ele>
        <time>2014-05-25T09:19:31.000Z</time>
      </trkpt>
      <trkpt lat="45.73215" lon="6.07229">
        <ele>1078.8000488281</ele>
        <time>2014-05-25T09:19:35.000Z</time>
      </trkpt>
      <trkpt lat="45.7321" lon="6.07242">
        <ele>1079.8000488281</ele>
        <time>2014-05-25T09:19:39.000Z</time>
      </trkpt>
      <trkpt lat="45.73201" lon="6.07256">
        <ele>1080.5999755859</ele>
        <time>2014-05-25T09:19:44.000Z</time>
      </trkpt>
      <trkpt lat="45.73198" lon="6.07259">
        <ele>1080.8000488281</ele>
        <time>2014-05-25T09:19:46.000Z</time>
      </trkpt>
      <trkpt lat="45.73197" lon="6.07265">
        <ele>1081.4000244141</ele>
        <time>2014-05-25T09:19:50.000Z</time>
      </trkpt>
      <trkpt lat="45.73186" lon="6.07276">
        <ele>1081.8000488281</ele>
        <time>2014-05-25T09:19:55.000Z</time>
      </trkpt>
      <trkpt lat="45.73182" lon="6.07281">
        <ele>1082</ele>
        <time>2014-05-25T09:19:57.000Z</time>
      </trkpt>
      <trkpt lat="45.73178" lon="6.07286">
        <ele>1082.4000244141</ele>
        <time>2014-05-25T09:20:03.000Z</time>
      </trkpt>
      <trkpt lat="45.73174" lon="6.07288">
        <ele>1082.1999511719</ele>
        <time>2014-05-25T09:20:10.000Z</time>
      </trkpt>
      <trkpt lat="45.73168" lon="6.07291">
        <ele>1082.1999511719</ele>
        <time>2014-05-25T09:20:14.000Z</time>
      </trkpt>
      <trkpt lat="45.73165" lon="6.07299">
        <ele>1083</ele>
        <time>2014-05-25T09:20:19.000Z</time>
      </trkpt>
      <trkpt lat="45.7316" lon="6.07311">
        <ele>1084</ele>
        <time>2014-05-25T09:20:24.000Z</time>
      </trkpt>
      <trkpt lat="45.73155" lon="6.07316">
        <ele>1084.1999511719</ele>
        <time>2014-05-25T09:20:26.000Z</time>
      </trkpt>
      <trkpt lat="45.73148" lon="6.0732">
        <ele>1084</ele>
        <time>2014-05-25T09:20:31.000Z</time>
      </trkpt>
      <trkpt lat="45.73146" lon="6.07324">
        <ele>1084</ele>
        <time>2014-05-25T09:20:37.000Z</time>
      </trkpt>
      <trkpt lat="45.73141" lon="6.07335">
        <ele>1084.1999511719</ele>
        <time>2014-05-25T09:20:43.000Z</time>
      </trkpt>
      <trkpt lat="45.73141" lon="6.0734">
        <ele>1084.8000488281</ele>
        <time>2014-05-25T09:20:49.000Z</time>
      </trkpt>
      <trkpt lat="45.73138" lon="6.07352">
        <ele>1085.1999511719</ele>
        <time>2014-05-25T09:20:53.000Z</time>
      </trkpt>
      <trkpt lat="45.73128" lon="6.07353">
        <ele>1083.8000488281</ele>
        <time>2014-05-25T09:20:57.000Z</time>
      </trkpt>
      <trkpt lat="45.73116" lon="6.07352">
        <ele>1081.8000488281</ele>
        <time>2014-05-25T09:21:02.000Z</time>
      </trkpt>
      <trkpt lat="45.73108" lon="6.07367">
        <ele>1081.5999755859</ele>
        <time>2014-05-25T09:21:08.000Z</time>
      </trkpt>
      <trkpt lat="45.73102" lon="6.07379">
        <ele>1081.8000488281</ele>
        <time>2014-05-25T09:21:12.000Z</time>
      </trkpt>
      <trkpt lat="45.73097" lon="6.07381">
        <ele>1081.1999511719</ele>
        <time>2014-05-25T09:21:15.000Z</time>
      </trkpt>
      <trkpt lat="45.73094" lon="6.07385">
        <ele>1081</ele>
        <time>2014-05-25T09:21:21.000Z</time>
      </trkpt>
      <trkpt lat="45.73094" lon="6.07388">
        <ele>1081.4000244141</ele>
        <time>2014-05-25T09:21:24.000Z</time>
      </trkpt>
      <trkpt lat="45.73087" lon="6.07403">
        <ele>1080.8000488281</ele>
        <time>2014-05-25T09:21:30.000Z</time>
      </trkpt>
      <trkpt lat="45.73084" lon="6.07407">
        <ele>1080.1999511719</ele>
        <time>2014-05-25T09:21:35.000Z</time>
      </trkpt>
      <trkpt lat="45.73081" lon="6.07416">
        <ele>1079.8000488281</ele>
        <time>2014-05-25T09:21:46.000Z</time>
      </trkpt>
      <trkpt lat="45.73082" lon="6.0742">
        <ele>1080</ele>
        <time>2014-05-25T09:21:52.000Z</time>
      </trkpt>
      <trkpt lat="45.73078" lon="6.07432">
        <ele>1079</ele>
        <time>2014-05-25T09:21:56.000Z</time>
      </trkpt>
      <trkpt lat="45.73072" lon="6.07446">
        <ele>1077.8000488281</ele>
        <time>2014-05-25T09:22:01.000Z</time>
      </trkpt>
      <trkpt lat="45.7307" lon="6.07445">
        <ele>1077.4000244141</ele>
        <time>2014-05-25T09:22:06.000Z</time>
      </trkpt>
      <trkpt lat="45.73069" lon="6.07447">
        <ele>1077.1999511719</ele>
        <time>2014-05-25T09:22:08.000Z</time>
      </trkpt>
      <trkpt lat="45.73061" lon="6.07452">
        <ele>1075.8000488281</ele>
        <time>2014-05-25T09:22:12.000Z</time>
      </trkpt>
      <trkpt lat="45.73046" lon="6.07455">
        <ele>1073.1999511719</ele>
        <time>2014-05-25T09:22:16.000Z</time>
      </trkpt>
      <trkpt lat="45.73038" lon="6.07458">
        <ele>1071.5999755859</ele>
        <time>2014-05-25T09:22:19.000Z</time>
      </trkpt>
      <trkpt lat="45.7303" lon="6.07468">
        <ele>1069.4000244141</ele>
        <time>2014-05-25T09:22:24.000Z</time>
      </trkpt>
      <trkpt lat="45.73028" lon="6.07469">
        <ele>1069.1999511719</ele>
        <time>2014-05-25T09:22:26.000Z</time>
      </trkpt>
      <trkpt lat="45.73025" lon="6.07464">
        <ele>1068.5999755859</ele>
        <time>2014-05-25T09:22:31.000Z</time>
      </trkpt>
      <trkpt lat="45.73019" lon="6.07462">
        <ele>1067.5999755859</ele>
        <time>2014-05-25T09:22:35.000Z</time>
      </trkpt>
      <trkpt lat="45.73012" lon="6.07463">
        <ele>1066.1999511719</ele>
        <time>2014-05-25T09:22:39.000Z</time>
      </trkpt>
      <trkpt lat="45.73005" lon="6.07464">
        <ele>1064.5999755859</ele>
        <time>2014-05-25T09:22:43.000Z</time>
      </trkpt>
      <trkpt lat="45.72997" lon="6.07467">
        <ele>1062.8000488281</ele>
        <time>2014-05-25T09:22:47.000Z</time>
      </trkpt>
      <trkpt lat="45.7299" lon="6.07472">
        <ele>1061.1999511719</ele>
        <time>2014-05-25T09:22:51.000Z</time>
      </trkpt>
      <trkpt lat="45.72981" lon="6.07466">
        <ele>1059.5999755859</ele>
        <time>2014-05-25T09:22:55.000Z</time>
      </trkpt>
      <trkpt lat="45.72976" lon="6.07464">
        <ele>1058.5999755859</ele>
        <time>2014-05-25T09:22:57.000Z</time>
      </trkpt>
      <trkpt lat="45.72972" lon="6.07465">
        <ele>1058</ele>
        <time>2014-05-25T09:23:03.000Z</time>
      </trkpt>
      <trkpt lat="45.72967" lon="6.07472">
        <ele>1056.4000244141</ele>
        <time>2014-05-25T09:23:07.000Z</time>
      </trkpt>
      <trkpt lat="45.72961" lon="6.07473">
        <ele>1055</ele>
        <time>2014-05-25T09:23:12.000Z</time>
      </trkpt>
      <trkpt lat="45.72958" lon="6.07475">
        <ele>1054</ele>
        <time>2014-05-25T09:23:16.000Z</time>
      </trkpt>
      <trkpt lat="45.72953" lon="6.0748">
        <ele>1052.5999755859</ele>
        <time>2014-05-25T09:23:23.000Z</time>
      </trkpt>
      <trkpt lat="45.72946" lon="6.07484">
        <ele>1050.5999755859</ele>
        <time>2014-05-25T09:23:33.000Z</time>
      </trkpt>
      <trkpt lat="45.72943" lon="6.07489">
        <ele>1049.8000488281</ele>
        <time>2014-05-25T09:23:37.000Z</time>
      </trkpt>
      <trkpt lat="45.72936" lon="6.07485">
        <ele>1048.4000244141</ele>
        <time>2014-05-25T09:23:42.000Z</time>
      </trkpt>
      <trkpt lat="45.72932" lon="6.0748">
        <ele>1047.4000244141</ele>
        <time>2014-05-25T09:23:48.000Z</time>
      </trkpt>
      <trkpt lat="45.7293" lon="6.07476">
        <ele>1047.4000244141</ele>
        <time>2014-05-25T09:23:51.000Z</time>
      </trkpt>
      <trkpt lat="45.72934" lon="6.07476">
        <ele>1048.1999511719</ele>
        <time>2014-05-25T09:23:57.000Z</time>
      </trkpt>
      <trkpt lat="45.7293" lon="6.07484">
        <ele>1047</ele>
        <time>2014-05-25T09:24:00.000Z</time>
      </trkpt>
      <trkpt lat="45.7293" lon="6.07491">
        <ele>1046.5999755859</ele>
        <time>2014-05-25T09:24:04.000Z</time>
      </trkpt>
      <trkpt lat="45.72933" lon="6.07494">
        <ele>1047.1999511719</ele>
        <time>2014-05-25T09:24:11.000Z</time>
      </trkpt>
      <trkpt lat="45.72941" lon="6.07503">
        <ele>1048.8000488281</ele>
        <time>2014-05-25T09:24:16.000Z</time>
      </trkpt>
      <trkpt lat="45.72944" lon="6.07503">
        <ele>1049.4000244141</ele>
        <time>2014-05-25T09:24:21.000Z</time>
      </trkpt>
      <trkpt lat="45.72952" lon="6.07507">
        <ele>1051.1999511719</ele>
        <time>2014-05-25T09:24:26.000Z</time>
      </trkpt>
      <trkpt lat="45.72952" lon="6.0751">
        <ele>1050.8000488281</ele>
        <time>2014-05-25T09:24:32.000Z</time>
      </trkpt>
      <trkpt lat="45.72952" lon="6.07513">
        <ele>1050.8000488281</ele>
        <time>2014-05-25T09:24:34.000Z</time>
      </trkpt>
      <trkpt lat="45.7294" lon="6.07515">
        <ele>1048</ele>
        <time>2014-05-25T09:24:39.000Z</time>
      </trkpt>
      <trkpt lat="45.72931" lon="6.07515">
        <ele>1045.8000488281</ele>
        <time>2014-05-25T09:24:43.000Z</time>
      </trkpt>
      <trkpt lat="45.72929" lon="6.07516">
        <ele>1045</ele>
        <time>2014-05-25T09:24:45.000Z</time>
      </trkpt>
      <trkpt lat="45.72919" lon="6.07519">
        <ele>1042.5999755859</ele>
        <time>2014-05-25T09:24:50.000Z</time>
      </trkpt>
      <trkpt lat="45.72908" lon="6.07522">
        <ele>1039.8000488281</ele>
        <time>2014-05-25T09:24:56.000Z</time>
      </trkpt>
      <trkpt lat="45.72905" lon="6.07519">
        <ele>1039.1999511719</ele>
        <time>2014-05-25T09:25:00.000Z</time>
      </trkpt>
      <trkpt lat="45.72904" lon="6.07517">
        <ele>1039</ele>
        <time>2014-05-25T09:25:04.000Z</time>
      </trkpt>
      <trkpt lat="45.729" lon="6.07515">
        <ele>1038.1999511719</ele>
        <time>2014-05-25T09:25:08.000Z</time>
      </trkpt>
      <trkpt lat="45.72897" lon="6.0751">
        <ele>1037.8000488281</ele>
        <time>2014-05-25T09:25:13.000Z</time>
      </trkpt>
      <trkpt lat="45.72893" lon="6.07505">
        <ele>1037.1999511719</ele>
        <time>2014-05-25T09:25:17.000Z</time>
      </trkpt>
      <trkpt lat="45.72894" lon="6.07498">
        <ele>1037.5999755859</ele>
        <time>2014-05-25T09:25:21.000Z</time>
      </trkpt>
      <trkpt lat="45.72901" lon="6.07486">
        <ele>1039.8000488281</ele>
        <time>2014-05-25T09:25:28.000Z</time>
      </trkpt>
      <trkpt lat="45.72903" lon="6.07478">
        <ele>1040.8000488281</ele>
        <time>2014-05-25T09:25:37.000Z</time>
      </trkpt>
      <trkpt lat="45.72904" lon="6.07473">
        <ele>1041.1999511719</ele>
        <time>2014-05-25T09:25:50.000Z</time>
      </trkpt>
      <trkpt lat="45.72907" lon="6.07469">
        <ele>1042.1999511719</ele>
        <time>2014-05-25T09:25:56.000Z</time>
      </trkpt>
      <trkpt lat="45.7291" lon="6.07469">
        <ele>1042.8000488281</ele>
        <time>2014-05-25T09:26:09.000Z</time>
      </trkpt>
      <trkpt lat="45.72913" lon="6.07465">
        <ele>1043.8000488281</ele>
        <time>2014-05-25T09:26:24.000Z</time>
      </trkpt>
      <trkpt lat="45.72915" lon="6.07461">
        <ele>1044.5999755859</ele>
        <time>2014-05-25T09:26:30.000Z</time>
      </trkpt>
      <trkpt lat="45.72917" lon="6.07457">
        <ele>1045.1999511719</ele>
        <time>2014-05-25T09:26:35.000Z</time>
      </trkpt>
      <trkpt lat="45.72917" lon="6.07456">
        <ele>1045.1999511719</ele>
        <time>2014-05-25T09:26:39.000Z</time>
      </trkpt>
      <trkpt lat="45.72917" lon="6.07464">
        <ele>1044.8000488281</ele>
        <time>2014-05-25T09:26:43.000Z</time>
      </trkpt>
      <trkpt lat="45.72917" lon="6.0747">
        <ele>1044.5999755859</ele>
        <time>2014-05-25T09:26:46.000Z</time>
      </trkpt>
      <trkpt lat="45.72918" lon="6.07474">
        <ele>1044.4000244141</ele>
        <time>2014-05-25T09:26:48.000Z</time>
      </trkpt>
      <trkpt lat="45.72918" lon="6.07477">
        <ele>1044.4000244141</ele>
        <time>2014-05-25T09:26:50.000Z</time>
      </trkpt>
      <trkpt lat="45.72922" lon="6.07481">
        <ele>1045.1999511719</ele>
        <time>2014-05-25T09:26:57.000Z</time>
      </trkpt>
      <trkpt lat="45.72923" lon="6.07483">
        <ele>1045.4000244141</ele>
        <time>2014-05-25T09:26:58.000Z</time>
      </trkpt>
      <trkpt lat="45.7293" lon="6.07493">
        <ele>1046.4000244141</ele>
        <time>2014-05-25T09:27:03.000Z</time>
      </trkpt>
      <trkpt lat="45.72932" lon="6.07506">
        <ele>1046.4000244141</ele>
        <time>2014-05-25T09:27:07.000Z</time>
      </trkpt>
      <trkpt lat="45.72931" lon="6.07522">
        <ele>1045.1999511719</ele>
        <time>2014-05-25T09:27:12.000Z</time>
      </trkpt>
      <trkpt lat="45.72932" lon="6.07527">
        <ele>1045.4000244141</ele>
        <time>2014-05-25T09:27:16.000Z</time>
      </trkpt>
      <trkpt lat="45.72928" lon="6.07541">
        <ele>1043.8000488281</ele>
        <time>2014-05-25T09:27:23.000Z</time>
      </trkpt>
      <trkpt lat="45.72927" lon="6.07548">
        <ele>1043.1999511719</ele>
        <time>2014-05-25T09:27:30.000Z</time>
      </trkpt>
      <trkpt lat="45.72929" lon="6.07544">
        <ele>1043.8000488281</ele>
        <time>2014-05-25T09:27:35.000Z</time>
      </trkpt>
      <trkpt lat="45.72936" lon="6.07527">
        <ele>1046.1999511719</ele>
        <time>2014-05-25T09:27:42.000Z</time>
      </trkpt>
      <trkpt lat="45.72941" lon="6.07518">
        <ele>1048</ele>
        <time>2014-05-25T09:27:50.000Z</time>
      </trkpt>
      <trkpt lat="45.72942" lon="6.07514">
        <ele>1048.4000244141</ele>
        <time>2014-05-25T09:27:57.000Z</time>
      </trkpt>
      <trkpt lat="45.72943" lon="6.07512">
        <ele>1048.5999755859</ele>
        <time>2014-05-25T09:27:58.000Z</time>
      </trkpt>
      <trkpt lat="45.72942" lon="6.075">
        <ele>1049</ele>
        <time>2014-05-25T09:28:02.000Z</time>
      </trkpt>
      <trkpt lat="45.72942" lon="6.07486">
        <ele>1049.5999755859</ele>
        <time>2014-05-25T09:28:06.000Z</time>
      </trkpt>
      <trkpt lat="45.72939" lon="6.07478">
        <ele>1049.4000244141</ele>
        <time>2014-05-25T09:28:10.000Z</time>
      </trkpt>
      <trkpt lat="45.7294" lon="6.07473">
        <ele>1049.8000488281</ele>
        <time>2014-05-25T09:28:13.000Z</time>
      </trkpt>
      <trkpt lat="45.72939" lon="6.07466">
        <ele>1050.1999511719</ele>
        <time>2014-05-25T09:28:17.000Z</time>
      </trkpt>
      <trkpt lat="45.72941" lon="6.07457">
        <ele>1051.1999511719</ele>
        <time>2014-05-25T09:28:22.000Z</time>
      </trkpt>
      <trkpt lat="45.72942" lon="6.07454">
        <ele>1051.5999755859</ele>
        <time>2014-05-25T09:28:24.000Z</time>
      </trkpt>
      <trkpt lat="45.72942" lon="6.07444">
        <ele>1052.1999511719</ele>
        <time>2014-05-25T09:28:29.000Z</time>
      </trkpt>
      <trkpt lat="45.72942" lon="6.07443">
        <ele>1052.1999511719</ele>
        <time>2014-05-25T09:28:30.000Z</time>
      </trkpt>
      <trkpt lat="45.72938" lon="6.07432">
        <ele>1051.8000488281</ele>
        <time>2014-05-25T09:28:35.000Z</time>
      </trkpt>
      <trkpt lat="45.72937" lon="6.07429">
        <ele>1051.5999755859</ele>
        <time>2014-05-25T09:28:39.000Z</time>
      </trkpt>
      <trkpt lat="45.72936" lon="6.07427">
        <ele>1051.4000244141</ele>
        <time>2014-05-25T09:28:40.000Z</time>
      </trkpt>
      <trkpt lat="45.72934" lon="6.0742">
        <ele>1051.4000244141</ele>
        <time>2014-05-25T09:28:44.000Z</time>
      </trkpt>
      <trkpt lat="45.72936" lon="6.07417">
        <ele>1051.8000488281</ele>
        <time>2014-05-25T09:28:46.000Z</time>
      </trkpt>
      <trkpt lat="45.72941" lon="6.0741">
        <ele>1053.4000244141</ele>
        <time>2014-05-25T09:28:52.000Z</time>
      </trkpt>
      <trkpt lat="45.72946" lon="6.0741">
        <ele>1054.5999755859</ele>
        <time>2014-05-25T09:28:58.000Z</time>
      </trkpt>
      <trkpt lat="45.72952" lon="6.07411">
        <ele>1056</ele>
        <time>2014-05-25T09:29:04.000Z</time>
      </trkpt>
      <trkpt lat="45.72956" lon="6.07412">
        <ele>1056.5999755859</ele>
        <time>2014-05-25T09:29:11.000Z</time>
      </trkpt>
      <trkpt lat="45.72961" lon="6.0741">
        <ele>1058</ele>
        <time>2014-05-25T09:29:18.000Z</time>
      </trkpt>
      <trkpt lat="45.72961" lon="6.07411">
        <ele>1058</ele>
        <time>2014-05-25T09:29:19.000Z</time>
      </trkpt>
      <trkpt lat="45.72965" lon="6.07413">
        <ele>1058.8000488281</ele>
        <time>2014-05-25T09:29:24.000Z</time>
      </trkpt>
      <trkpt lat="45.72966" lon="6.07413">
        <ele>1059</ele>
        <time>2014-05-25T09:29:25.000Z</time>
      </trkpt>
      <trkpt lat="45.72975" lon="6.07411">
        <ele>1061.1999511719</ele>
        <time>2014-05-25T09:29:30.000Z</time>
      </trkpt>
      <trkpt lat="45.72989" lon="6.0741">
        <ele>1063.8000488281</ele>
        <time>2014-05-25T09:29:35.000Z</time>
      </trkpt>
      <trkpt lat="45.73" lon="6.07406">
        <ele>1066</ele>
        <time>2014-05-25T09:29:40.000Z</time>
      </trkpt>
      <trkpt lat="45.73003" lon="6.07406">
        <ele>1066.5999755859</ele>
        <time>2014-05-25T09:29:42.000Z</time>
      </trkpt>
      <trkpt lat="45.73009" lon="6.07404">
        <ele>1067.8000488281</ele>
        <time>2014-05-25T09:29:48.000Z</time>
      </trkpt>
      <trkpt lat="45.73008" lon="6.07403">
        <ele>1067.5999755859</ele>
        <time>2014-05-25T09:29:53.000Z</time>
      </trkpt>
      <trkpt lat="45.7301" lon="6.07401">
        <ele>1068</ele>
        <time>2014-05-25T09:29:58.000Z</time>
      </trkpt>
      <trkpt lat="45.73011" lon="6.07398">
        <ele>1068.1999511719</ele>
        <time>2014-05-25T09:30:05.000Z</time>
      </trkpt>
      <trkpt lat="45.73015" lon="6.07395">
        <ele>1069</ele>
        <time>2014-05-25T09:30:09.000Z</time>
      </trkpt>
      <trkpt lat="45.73019" lon="6.07397">
        <ele>1069.5999755859</ele>
        <time>2014-05-25T09:30:13.000Z</time>
      </trkpt>
      <trkpt lat="45.73022" lon="6.07407">
        <ele>1069.8000488281</ele>
        <time>2014-05-25T09:30:17.000Z</time>
      </trkpt>
      <trkpt lat="45.73025" lon="6.07421">
        <ele>1070</ele>
        <time>2014-05-25T09:30:22.000Z</time>
      </trkpt>
      <trkpt lat="45.73032" lon="6.07429">
        <ele>1071.1999511719</ele>
        <time>2014-05-25T09:30:27.000Z</time>
      </trkpt>
      <trkpt lat="45.73042" lon="6.07428">
        <ele>1073</ele>
        <time>2014-05-25T09:30:33.000Z</time>
      </trkpt>
      <trkpt lat="45.73043" lon="6.07427">
        <ele>1073.1999511719</ele>
        <time>2014-05-25T09:30:34.000Z</time>
      </trkpt>
      <trkpt lat="45.73056" lon="6.07434">
        <ele>1075.4000244141</ele>
        <time>2014-05-25T09:30:41.000Z</time>
      </trkpt>
      <trkpt lat="45.73068" lon="6.07441">
        <ele>1077.1999511719</ele>
        <time>2014-05-25T09:30:46.000Z</time>
      </trkpt>
      <trkpt lat="45.73075" lon="6.07441">
        <ele>1078.4000244141</ele>
        <time>2014-05-25T09:30:50.000Z</time>
      </trkpt>
      <trkpt lat="45.73078" lon="6.0744">
        <ele>1078.8000488281</ele>
        <time>2014-05-25T09:30:52.000Z</time>
      </trkpt>
      <trkpt lat="45.73084" lon="6.07436">
        <ele>1080</ele>
        <time>2014-05-25T09:30:57.000Z</time>
      </trkpt>
      <trkpt lat="45.73091" lon="6.07433">
        <ele>1081.4000244141</ele>
        <time>2014-05-25T09:31:01.000Z</time>
      </trkpt>
      <trkpt lat="45.73095" lon="6.07432">
        <ele>1081.8000488281</ele>
        <time>2014-05-25T09:31:03.000Z</time>
      </trkpt>
      <trkpt lat="45.73106" lon="6.07427">
        <ele>1083.4000244141</ele>
        <time>2014-05-25T09:31:10.000Z</time>
      </trkpt>
      <trkpt lat="45.73114" lon="6.07419">
        <ele>1084.8000488281</ele>
        <time>2014-05-25T09:31:16.000Z</time>
      </trkpt>
      <trkpt lat="45.73121" lon="6.07416">
        <ele>1085.8000488281</ele>
        <time>2014-05-25T09:31:20.000Z</time>
      </trkpt>
      <trkpt lat="45.73135" lon="6.0741">
        <ele>1087.5999755859</ele>
        <time>2014-05-25T09:31:26.000Z</time>
      </trkpt>
      <trkpt lat="45.73138" lon="6.07407">
        <ele>1088.1999511719</ele>
        <time>2014-05-25T09:31:28.000Z</time>
      </trkpt>
      <trkpt lat="45.73144" lon="6.07403">
        <ele>1088.5999755859</ele>
        <time>2014-05-25T09:31:33.000Z</time>
      </trkpt>
      <trkpt lat="45.73149" lon="6.07398">
        <ele>1089.4000244141</ele>
        <time>2014-05-25T09:31:38.000Z</time>
      </trkpt>
      <trkpt lat="45.73158" lon="6.07387">
        <ele>1090</ele>
        <time>2014-05-25T09:31:43.000Z</time>
      </trkpt>
      <trkpt lat="45.73168" lon="6.07373">
        <ele>1090.1999511719</ele>
        <time>2014-05-25T09:31:48.000Z</time>
      </trkpt>
      <trkpt lat="45.73183" lon="6.07361">
        <ele>1091.1999511719</ele>
        <time>2014-05-25T09:31:54.000Z</time>
      </trkpt>
      <trkpt lat="45.73196" lon="6.07357">
        <ele>1092</ele>
        <time>2014-05-25T09:31:59.000Z</time>
      </trkpt>
      <trkpt lat="45.7321" lon="6.07344">
        <ele>1091.8000488281</ele>
        <time>2014-05-25T09:32:05.000Z</time>
      </trkpt>
      <trkpt lat="45.73219" lon="6.07335">
        <ele>1091.5999755859</ele>
        <time>2014-05-25T09:32:09.000Z</time>
      </trkpt>
      <trkpt lat="45.73228" lon="6.07329">
        <ele>1091.4000244141</ele>
        <time>2014-05-25T09:32:13.000Z</time>
      </trkpt>
      <trkpt lat="45.73241" lon="6.0732">
        <ele>1091.4000244141</ele>
        <time>2014-05-25T09:32:18.000Z</time>
      </trkpt>
      <trkpt lat="45.73251" lon="6.07315">
        <ele>1092</ele>
        <time>2014-05-25T09:32:22.000Z</time>
      </trkpt>
      <trkpt lat="45.73261" lon="6.07311">
        <ele>1092.4000244141</ele>
        <time>2014-05-25T09:32:26.000Z</time>
      </trkpt>
      <trkpt lat="45.73272" lon="6.07301">
        <ele>1092.1999511719</ele>
        <time>2014-05-25T09:32:30.000Z</time>
      </trkpt>
      <trkpt lat="45.73287" lon="6.07298">
        <ele>1093.1999511719</ele>
        <time>2014-05-25T09:32:35.000Z</time>
      </trkpt>
      <trkpt lat="45.73296" lon="6.07301">
        <ele>1094.4000244141</ele>
        <time>2014-05-25T09:32:40.000Z</time>
      </trkpt>
      <trkpt lat="45.73307" lon="6.07292">
        <ele>1095.1999511719</ele>
        <time>2014-05-25T09:32:46.000Z</time>
      </trkpt>
      <trkpt lat="45.73311" lon="6.07288">
        <ele>1095.4000244141</ele>
        <time>2014-05-25T09:32:49.000Z</time>
      </trkpt>
      <trkpt lat="45.73319" lon="6.07282">
        <ele>1096</ele>
        <time>2014-05-25T09:32:54.000Z</time>
      </trkpt>
      <trkpt lat="45.73324" lon="6.07276">
        <ele>1096.1999511719</ele>
        <time>2014-05-25T09:32:59.000Z</time>
      </trkpt>
      <trkpt lat="45.73325" lon="6.07275">
        <ele>1096.1999511719</ele>
        <time>2014-05-25T09:33:00.000Z</time>
      </trkpt>
      <trkpt lat="45.7333" lon="6.07269">
        <ele>1096.4000244141</ele>
        <time>2014-05-25T09:33:05.000Z</time>
      </trkpt>
      <trkpt lat="45.73334" lon="6.07268">
        <ele>1096.8000488281</ele>
        <time>2014-05-25T09:33:11.000Z</time>
      </trkpt>
      <trkpt lat="45.73337" lon="6.07266">
        <ele>1097</ele>
        <time>2014-05-25T09:33:27.000Z</time>
      </trkpt>
      <trkpt lat="45.73341" lon="6.07268">
        <ele>1097.4000244141</ele>
        <time>2014-05-25T09:33:30.000Z</time>
      </trkpt>
      <trkpt lat="45.73352" lon="6.07253">
        <ele>1098.5999755859</ele>
        <time>2014-05-25T09:33:36.000Z</time>
      </trkpt>
      <trkpt lat="45.7336" lon="6.07243">
        <ele>1099.4000244141</ele>
        <time>2014-05-25T09:33:40.000Z</time>
      </trkpt>
      <trkpt lat="45.73364" lon="6.07235">
        <ele>1099.8000488281</ele>
        <time>2014-05-25T09:33:43.000Z</time>
      </trkpt>
      <trkpt lat="45.7337" lon="6.07228">
        <ele>1100.5999755859</ele>
        <time>2014-05-25T09:33:47.000Z</time>
      </trkpt>
      <trkpt lat="45.73377" lon="6.07224">
        <ele>1101.5999755859</ele>
        <time>2014-05-25T09:33:51.000Z</time>
      </trkpt>
      <trkpt lat="45.73387" lon="6.07217">
        <ele>1102.5999755859</ele>
        <time>2014-05-25T09:33:56.000Z</time>
      </trkpt>
      <trkpt lat="45.73392" lon="6.07213">
        <ele>1103.1999511719</ele>
        <time>2014-05-25T09:33:59.000Z</time>
      </trkpt>
      <trkpt lat="45.73401" lon="6.07204">
        <ele>1104.5999755859</ele>
        <time>2014-05-25T09:34:04.000Z</time>
      </trkpt>
      <trkpt lat="45.73407" lon="6.07197">
        <ele>1105.5999755859</ele>
        <time>2014-05-25T09:34:08.000Z</time>
      </trkpt>
      <trkpt lat="45.73409" lon="6.07194">
        <ele>1105.5999755859</ele>
        <time>2014-05-25T09:34:09.000Z</time>
      </trkpt>
      <trkpt lat="45.73414" lon="6.07191">
        <ele>1106.5999755859</ele>
        <time>2014-05-25T09:34:14.000Z</time>
      </trkpt>
      <trkpt lat="45.73416" lon="6.07188">
        <ele>1106.8000488281</ele>
        <time>2014-05-25T09:34:17.000Z</time>
      </trkpt>
      <trkpt lat="45.73424" lon="6.07182">
        <ele>1108</ele>
        <time>2014-05-25T09:34:22.000Z</time>
      </trkpt>
      <trkpt lat="45.73431" lon="6.0718">
        <ele>1109</ele>
        <time>2014-05-25T09:34:26.000Z</time>
      </trkpt>
      <trkpt lat="45.73436" lon="6.07181">
        <ele>1109.8000488281</ele>
        <time>2014-05-25T09:34:36.000Z</time>
      </trkpt>
      <trkpt lat="45.73441" lon="6.0718">
        <ele>1110.5999755859</ele>
        <time>2014-05-25T09:34:40.000Z</time>
      </trkpt>
      <trkpt lat="45.73445" lon="6.07179">
        <ele>1110.8000488281</ele>
        <time>2014-05-25T09:34:45.000Z</time>
      </trkpt>
      <trkpt lat="45.73448" lon="6.07175">
        <ele>1111</ele>
        <time>2014-05-25T09:34:51.000Z</time>
      </trkpt>
      <trkpt lat="45.73451" lon="6.07174">
        <ele>1111.4000244141</ele>
        <time>2014-05-25T09:34:55.000Z</time>
      </trkpt>
      <trkpt lat="45.73456" lon="6.07174">
        <ele>1112</ele>
        <time>2014-05-25T09:34:59.000Z</time>
      </trkpt>
      <trkpt lat="45.73461" lon="6.07175">
        <ele>1112.8000488281</ele>
        <time>2014-05-25T09:35:04.000Z</time>
      </trkpt>
      <trkpt lat="45.73465" lon="6.07172">
        <ele>1113.1999511719</ele>
        <time>2014-05-25T09:35:09.000Z</time>
      </trkpt>
      <trkpt lat="45.7347" lon="6.07174">
        <ele>1114</ele>
        <time>2014-05-25T09:35:14.000Z</time>
      </trkpt>
      <trkpt lat="45.73472" lon="6.07176">
        <ele>1114.5999755859</ele>
        <time>2014-05-25T09:35:16.000Z</time>
      </trkpt>
      <trkpt lat="45.73475" lon="6.07179">
        <ele>1115.4000244141</ele>
        <time>2014-05-25T09:35:19.000Z</time>
      </trkpt>
      <trkpt lat="45.73482" lon="6.07175">
        <ele>1116.1999511719</ele>
        <time>2014-05-25T09:35:26.000Z</time>
      </trkpt>
      <trkpt lat="45.73489" lon="6.07174">
        <ele>1117.1999511719</ele>
        <time>2014-05-25T09:35:31.000Z</time>
      </trkpt>
      <trkpt lat="45.73491" lon="6.07174">
        <ele>1117.8000488281</ele>
        <time>2014-05-25T09:35:35.000Z</time>
      </trkpt>
      <trkpt lat="45.73493" lon="6.07173">
        <ele>1118</ele>
        <time>2014-05-25T09:35:40.000Z</time>
      </trkpt>
      <trkpt lat="45.73494" lon="6.07171">
        <ele>1118</ele>
        <time>2014-05-25T09:35:43.000Z</time>
      </trkpt>
      <trkpt lat="45.73498" lon="6.07168">
        <ele>1118.4000244141</ele>
        <time>2014-05-25T09:35:47.000Z</time>
      </trkpt>
      <trkpt lat="45.73501" lon="6.07162">
        <ele>1118.5999755859</ele>
        <time>2014-05-25T09:35:51.000Z</time>
      </trkpt>
      <trkpt lat="45.73503" lon="6.0716">
        <ele>1118.8000488281</ele>
        <time>2014-05-25T09:35:55.000Z</time>
      </trkpt>
      <trkpt lat="45.73503" lon="6.07158">
        <ele>1118.8000488281</ele>
        <time>2014-05-25T09:36:09.000Z</time>
      </trkpt>
      <trkpt lat="45.73504" lon="6.07154">
        <ele>1118.5999755859</ele>
        <time>2014-05-25T09:36:15.000Z</time>
      </trkpt>
      <trkpt lat="45.73506" lon="6.07151">
        <ele>1118.8000488281</ele>
        <time>2014-05-25T09:36:17.000Z</time>
      </trkpt>
      <trkpt lat="45.73508" lon="6.07146">
        <ele>1119</ele>
        <time>2014-05-25T09:36:20.000Z</time>
      </trkpt>
      <trkpt lat="45.73509" lon="6.0714">
        <ele>1118.5999755859</ele>
        <time>2014-05-25T09:36:24.000Z</time>
      </trkpt>
      <trkpt lat="45.73511" lon="6.07136">
        <ele>1118.8000488281</ele>
        <time>2014-05-25T09:36:27.000Z</time>
      </trkpt>
      <trkpt lat="45.73512" lon="6.07129">
        <ele>1118.5999755859</ele>
        <time>2014-05-25T09:36:31.000Z</time>
      </trkpt>
      <trkpt lat="45.73518" lon="6.07122">
        <ele>1119.4000244141</ele>
        <time>2014-05-25T09:36:37.000Z</time>
      </trkpt>
      <trkpt lat="45.7352" lon="6.07118">
        <ele>1119.5999755859</ele>
        <time>2014-05-25T09:36:40.000Z</time>
      </trkpt>
      <trkpt lat="45.73524" lon="6.07113">
        <ele>1119.8000488281</ele>
        <time>2014-05-25T09:36:45.000Z</time>
      </trkpt>
      <trkpt lat="45.73529" lon="6.07105">
        <ele>1120.5999755859</ele>
        <time>2014-05-25T09:36:49.000Z</time>
      </trkpt>
      <trkpt lat="45.73532" lon="6.07101">
        <ele>1121.1999511719</ele>
        <time>2014-05-25T09:36:53.000Z</time>
      </trkpt>
      <trkpt lat="45.73532" lon="6.07095">
        <ele>1121</ele>
        <time>2014-05-25T09:36:58.000Z</time>
      </trkpt>
      <trkpt lat="45.73531" lon="6.07091">
        <ele>1120.5999755859</ele>
        <time>2014-05-25T09:37:02.000Z</time>
      </trkpt>
      <trkpt lat="45.73533" lon="6.07084">
        <ele>1121</ele>
        <time>2014-05-25T09:37:06.000Z</time>
      </trkpt>
      <trkpt lat="45.73535" lon="6.07072">
        <ele>1121.1999511719</ele>
        <time>2014-05-25T09:37:12.000Z</time>
      </trkpt>
      <trkpt lat="45.73536" lon="6.07069">
        <ele>1121.1999511719</ele>
        <time>2014-05-25T09:37:13.000Z</time>
      </trkpt>
      <trkpt lat="45.73539" lon="6.07064">
        <ele>1122</ele>
        <time>2014-05-25T09:37:19.000Z</time>
      </trkpt>
      <trkpt lat="45.73541" lon="6.07062">
        <ele>1122.1999511719</ele>
        <time>2014-05-25T09:37:21.000Z</time>
      </trkpt>
      <trkpt lat="45.73543" lon="6.07056">
        <ele>1122.5999755859</ele>
        <time>2014-05-25T09:37:25.000Z</time>
      </trkpt>
      <trkpt lat="45.73549" lon="6.07048">
        <ele>1123.4000244141</ele>
        <time>2014-05-25T09:37:31.000Z</time>
      </trkpt>
      <trkpt lat="45.73553" lon="6.07042">
        <ele>1124</ele>
        <time>2014-05-25T09:37:36.000Z</time>
      </trkpt>
      <trkpt lat="45.73552" lon="6.07036">
        <ele>1123.5999755859</ele>
        <time>2014-05-25T09:37:41.000Z</time>
      </trkpt>
      <trkpt lat="45.7356" lon="6.07021">
        <ele>1124.5999755859</ele>
        <time>2014-05-25T09:38:09.000Z</time>
      </trkpt>
      <trkpt lat="45.73558" lon="6.07024">
        <ele>1124.1999511719</ele>
        <time>2014-05-25T09:38:11.000Z</time>
      </trkpt>
      <trkpt lat="45.73553" lon="6.07019">
        <ele>1122.8000488281</ele>
        <time>2014-05-25T09:38:15.000Z</time>
      </trkpt>
      <trkpt lat="45.7355" lon="6.07016">
        <ele>1122</ele>
        <time>2014-05-25T09:38:22.000Z</time>
      </trkpt>
      <trkpt lat="45.73548" lon="6.07014">
        <ele>1121.5999755859</ele>
        <time>2014-05-25T09:38:25.000Z</time>
      </trkpt>
      <trkpt lat="45.7354" lon="6.07009">
        <ele>1119.5999755859</ele>
        <time>2014-05-25T09:38:30.000Z</time>
      </trkpt>
      <trkpt lat="45.73537" lon="6.07005">
        <ele>1119</ele>
        <time>2014-05-25T09:38:35.000Z</time>
      </trkpt>
      <trkpt lat="45.7353" lon="6.06998">
        <ele>1117.1999511719</ele>
        <time>2014-05-25T09:38:41.000Z</time>
      </trkpt>
      <trkpt lat="45.73529" lon="6.06989">
        <ele>1116.5999755859</ele>
        <time>2014-05-25T09:38:45.000Z</time>
      </trkpt>
      <trkpt lat="45.73527" lon="6.06987">
        <ele>1116</ele>
        <time>2014-05-25T09:38:50.000Z</time>
      </trkpt>
      <trkpt lat="45.73527" lon="6.06987">
        <ele>1116</ele>
        <time>2014-05-25T09:38:51.000Z</time>
      </trkpt>
      <trkpt lat="45.73521" lon="6.06985">
        <ele>1114.5999755859</ele>
        <time>2014-05-25T09:38:54.000Z</time>
      </trkpt>
      <trkpt lat="45.73518" lon="6.06982">
        <ele>1114</ele>
        <time>2014-05-25T09:39:00.000Z</time>
      </trkpt>
      <trkpt lat="45.7352" lon="6.06977">
        <ele>1114</ele>
        <time>2014-05-25T09:39:07.000Z</time>
      </trkpt>
      <trkpt lat="45.7352" lon="6.0697">
        <ele>1113.5999755859</ele>
        <time>2014-05-25T09:39:11.000Z</time>
      </trkpt>
      <trkpt lat="45.7352" lon="6.06968">
        <ele>1113.4000244141</ele>
        <time>2014-05-25T09:39:12.000Z</time>
      </trkpt>
      <trkpt lat="45.73522" lon="6.06964">
        <ele>1113.5999755859</ele>
        <time>2014-05-25T09:39:16.000Z</time>
      </trkpt>
      <trkpt lat="45.73524" lon="6.06957">
        <ele>1113.4000244141</ele>
        <time>2014-05-25T09:39:20.000Z</time>
      </trkpt>
      <trkpt lat="45.73523" lon="6.06952">
        <ele>1113</ele>
        <time>2014-05-25T09:39:24.000Z</time>
      </trkpt>
      <trkpt lat="45.73522" lon="6.06952">
        <ele>1112.8000488281</ele>
        <time>2014-05-25T09:39:25.000Z</time>
      </trkpt>
      <trkpt lat="45.73516" lon="6.06948">
        <ele>1111.1999511719</ele>
        <time>2014-05-25T09:39:30.000Z</time>
      </trkpt>
      <trkpt lat="45.73514" lon="6.06941">
        <ele>1110.4000244141</ele>
        <time>2014-05-25T09:39:36.000Z</time>
      </trkpt>
      <trkpt lat="45.73514" lon="6.06941">
        <ele>1110.1999511719</ele>
        <time>2014-05-25T09:39:37.000Z</time>
      </trkpt>
      <trkpt lat="45.73511" lon="6.06931">
        <ele>1109</ele>
        <time>2014-05-25T09:39:42.000Z</time>
      </trkpt>
      <trkpt lat="45.73511" lon="6.06926">
        <ele>1108.5999755859</ele>
        <time>2014-05-25T09:39:46.000Z</time>
      </trkpt>
      <trkpt lat="45.73509" lon="6.0692">
        <ele>1107.8000488281</ele>
        <time>2014-05-25T09:39:52.000Z</time>
      </trkpt>
      <trkpt lat="45.73509" lon="6.06917">
        <ele>1107.4000244141</ele>
        <time>2014-05-25T09:39:57.000Z</time>
      </trkpt>
      <trkpt lat="45.73508" lon="6.06912">
        <ele>1107</ele>
        <time>2014-05-25T09:40:04.000Z</time>
      </trkpt>
      <trkpt lat="45.73504" lon="6.06909">
        <ele>1106</ele>
        <time>2014-05-25T09:40:14.000Z</time>
      </trkpt>
      <trkpt lat="45.73502" lon="6.06905">
        <ele>1105.4000244141</ele>
        <time>2014-05-25T09:40:19.000Z</time>
      </trkpt>
      <trkpt lat="45.735" lon="6.06901">
        <ele>1104.5999755859</ele>
        <time>2014-05-25T09:40:25.000Z</time>
      </trkpt>
      <trkpt lat="45.73496" lon="6.06902">
        <ele>1103.8000488281</ele>
        <time>2014-05-25T09:40:30.000Z</time>
      </trkpt>
      <trkpt lat="45.73489" lon="6.06902">
        <ele>1102.4000244141</ele>
        <time>2014-05-25T09:40:58.000Z</time>
      </trkpt>
      <trkpt lat="45.73488" lon="6.06902">
        <ele>1102.1999511719</ele>
        <time>2014-05-25T09:41:10.000Z</time>
      </trkpt>
      <trkpt lat="45.73487" lon="6.06902">
        <ele>1102</ele>
        <time>2014-05-25T09:41:20.000Z</time>
      </trkpt>
      <trkpt lat="45.73484" lon="6.06908">
        <ele>1101.8000488281</ele>
        <time>2014-05-25T09:41:25.000Z</time>
      </trkpt>
      <trkpt lat="45.73481" lon="6.06907">
        <ele>1101.1999511719</ele>
        <time>2014-05-25T09:41:29.000Z</time>
      </trkpt>
      <trkpt lat="45.73477" lon="6.0691">
        <ele>1100.5999755859</ele>
        <time>2014-05-25T09:41:35.000Z</time>
      </trkpt>
      <trkpt lat="45.73475" lon="6.06912">
        <ele>1100.1999511719</ele>
        <time>2014-05-25T09:41:39.000Z</time>
      </trkpt>
      <trkpt lat="45.73468" lon="6.06916">
        <ele>1099.1999511719</ele>
        <time>2014-05-25T09:41:43.000Z</time>
      </trkpt>
      <trkpt lat="45.73464" lon="6.06922">
        <ele>1099</ele>
        <time>2014-05-25T09:41:48.000Z</time>
      </trkpt>
      <trkpt lat="45.73461" lon="6.06928">
        <ele>1099</ele>
        <time>2014-05-25T09:41:52.000Z</time>
      </trkpt>
      <trkpt lat="45.73457" lon="6.0693">
        <ele>1098.4000244141</ele>
        <time>2014-05-25T09:41:56.000Z</time>
      </trkpt>
      <trkpt lat="45.73452" lon="6.06931">
        <ele>1097.5999755859</ele>
        <time>2014-05-25T09:42:02.000Z</time>
      </trkpt>
      <trkpt lat="45.7345" lon="6.06933">
        <ele>1097.4000244141</ele>
        <time>2014-05-25T09:42:04.000Z</time>
      </trkpt>
      <trkpt lat="45.73446" lon="6.06941">
        <ele>1097.1999511719</ele>
        <time>2014-05-25T09:42:10.000Z</time>
      </trkpt>
      <trkpt lat="45.73445" lon="6.06942">
        <ele>1097.1999511719</ele>
        <time>2014-05-25T09:42:11.000Z</time>
      </trkpt>
      <trkpt lat="45.73444" lon="6.06946">
        <ele>1097.4000244141</ele>
        <time>2014-05-25T09:42:14.000Z</time>
      </trkpt>
      <trkpt lat="45.73441" lon="6.06949">
        <ele>1097</ele>
        <time>2014-05-25T09:42:17.000Z</time>
      </trkpt>
      <trkpt lat="45.73436" lon="6.06955">
        <ele>1096.5999755859</ele>
        <time>2014-05-25T09:42:22.000Z</time>
      </trkpt>
      <trkpt lat="45.73434" lon="6.06957">
        <ele>1096.4000244141</ele>
        <time>2014-05-25T09:42:23.000Z</time>
      </trkpt>
      <trkpt lat="45.73432" lon="6.06957">
        <ele>1096.1999511719</ele>
        <time>2014-05-25T09:42:25.000Z</time>
      </trkpt>
      <trkpt lat="45.73432" lon="6.0696">
        <ele>1096.4000244141</ele>
        <time>2014-05-25T09:42:31.000Z</time>
      </trkpt>
      <trkpt lat="45.73433" lon="6.06962">
        <ele>1096.5999755859</ele>
        <time>2014-05-25T09:42:32.000Z</time>
      </trkpt>
      <trkpt lat="45.73435" lon="6.06972">
        <ele>1097.5999755859</ele>
        <time>2014-05-25T09:42:37.000Z</time>
      </trkpt>
      <trkpt lat="45.73435" lon="6.06977">
        <ele>1098</ele>
        <time>2014-05-25T09:42:43.000Z</time>
      </trkpt>
      <trkpt lat="45.73435" lon="6.06985">
        <ele>1098.4000244141</ele>
        <time>2014-05-25T09:42:48.000Z</time>
      </trkpt>
      <trkpt lat="45.73428" lon="6.06992">
        <ele>1097.4000244141</ele>
        <time>2014-05-25T09:42:55.000Z</time>
      </trkpt>
      <trkpt lat="45.73421" lon="6.07001">
        <ele>1096.4000244141</ele>
        <time>2014-05-25T09:43:01.000Z</time>
      </trkpt>
      <trkpt lat="45.73418" lon="6.07008">
        <ele>1096.1999511719</ele>
        <time>2014-05-25T09:43:05.000Z</time>
      </trkpt>
      <trkpt lat="45.73414" lon="6.0701">
        <ele>1095.8000488281</ele>
        <time>2014-05-25T09:43:09.000Z</time>
      </trkpt>
      <trkpt lat="45.73409" lon="6.07011">
        <ele>1095.1999511719</ele>
        <time>2014-05-25T09:43:15.000Z</time>
      </trkpt>
      <trkpt lat="45.73405" lon="6.07011">
        <ele>1094.5999755859</ele>
        <time>2014-05-25T09:43:24.000Z</time>
      </trkpt>
      <trkpt lat="45.73398" lon="6.07013">
        <ele>1093.8000488281</ele>
        <time>2014-05-25T09:43:30.000Z</time>
      </trkpt>
      <trkpt lat="45.73389" lon="6.0701">
        <ele>1092.4000244141</ele>
        <time>2014-05-25T09:43:46.000Z</time>
      </trkpt>
      <trkpt lat="45.73386" lon="6.07009">
        <ele>1091.8000488281</ele>
        <time>2014-05-25T09:43:48.000Z</time>
      </trkpt>
      <trkpt lat="45.73383" lon="6.07005">
        <ele>1091.1999511719</ele>
        <time>2014-05-25T09:43:53.000Z</time>
      </trkpt>
      <trkpt lat="45.73382" lon="6.07004">
        <ele>1091</ele>
        <time>2014-05-25T09:43:55.000Z</time>
      </trkpt>
      <trkpt lat="45.73377" lon="6.07002">
        <ele>1090.1999511719</ele>
        <time>2014-05-25T09:44:01.000Z</time>
      </trkpt>
      <trkpt lat="45.73379" lon="6.07">
        <ele>1090.4000244141</ele>
        <time>2014-05-25T09:44:06.000Z</time>
      </trkpt>
      <trkpt lat="45.73382" lon="6.07002">
        <ele>1090.8000488281</ele>
        <time>2014-05-25T09:44:11.000Z</time>
      </trkpt>
      <trkpt lat="45.73387" lon="6.07003">
        <ele>1091.5999755859</ele>
        <time>2014-05-25T09:44:17.000Z</time>
      </trkpt>
      <trkpt lat="45.73388" lon="6.07005">
        <ele>1091.8000488281</ele>
        <time>2014-05-25T09:44:18.000Z</time>
      </trkpt>
      <trkpt lat="45.73394" lon="6.07007">
        <ele>1092.8000488281</ele>
        <time>2014-05-25T09:44:22.000Z</time>
      </trkpt>
      <trkpt lat="45.73402" lon="6.07008">
        <ele>1094</ele>
        <time>2014-05-25T09:44:28.000Z</time>
      </trkpt>
      <trkpt lat="45.73405" lon="6.07006">
        <ele>1094.4000244141</ele>
        <time>2014-05-25T09:44:31.000Z</time>
      </trkpt>
      <trkpt lat="45.73411" lon="6.07009">
        <ele>1095.4000244141</ele>
        <time>2014-05-25T09:44:35.000Z</time>
      </trkpt>
      <trkpt lat="45.73418" lon="6.07004">
        <ele>1096.1999511719</ele>
        <time>2014-05-25T09:44:41.000Z</time>
      </trkpt>
      <trkpt lat="45.73419" lon="6.07001">
        <ele>1096.1999511719</ele>
        <time>2014-05-25T09:44:45.000Z</time>
      </trkpt>
      <trkpt lat="45.73418" lon="6.07">
        <ele>1096</ele>
        <time>2014-05-25T09:44:46.000Z</time>
      </trkpt>
      <trkpt lat="45.73416" lon="6.06998">
        <ele>1095.5999755859</ele>
        <time>2014-05-25T09:44:50.000Z</time>
      </trkpt>
      <trkpt lat="45.73417" lon="6.06993">
        <ele>1095.5999755859</ele>
        <time>2014-05-25T09:44:53.000Z</time>
      </trkpt>
      <trkpt lat="45.73423" lon="6.06987">
        <ele>1096.4000244141</ele>
        <time>2014-05-25T09:44:58.000Z</time>
      </trkpt>
      <trkpt lat="45.73423" lon="6.06986">
        <ele>1096.4000244141</ele>
        <time>2014-05-25T09:44:59.000Z</time>
      </trkpt>
      <trkpt lat="45.73426" lon="6.06979">
        <ele>1096.5999755859</ele>
        <time>2014-05-25T09:45:04.000Z</time>
      </trkpt>
      <trkpt lat="45.73426" lon="6.06977">
        <ele>1096.5999755859</ele>
        <time>2014-05-25T09:45:05.000Z</time>
      </trkpt>
      <trkpt lat="45.73427" lon="6.06971">
        <ele>1096.1999511719</ele>
        <time>2014-05-25T09:45:09.000Z</time>
      </trkpt>
      <trkpt lat="45.73426" lon="6.06964">
        <ele>1095.5999755859</ele>
        <time>2014-05-25T09:45:14.000Z</time>
      </trkpt>
      <trkpt lat="45.73426" lon="6.06962">
        <ele>1095.4000244141</ele>
        <time>2014-05-25T09:45:15.000Z</time>
      </trkpt>
      <trkpt lat="45.73422" lon="6.06954">
        <ele>1094.1999511719</ele>
        <time>2014-05-25T09:45:19.000Z</time>
      </trkpt>
      <trkpt lat="45.73417" lon="6.06949">
        <ele>1093</ele>
        <time>2014-05-25T09:45:24.000Z</time>
      </trkpt>
      <trkpt lat="45.73416" lon="6.06948">
        <ele>1092.8000488281</ele>
        <time>2014-05-25T09:45:25.000Z</time>
      </trkpt>
      <trkpt lat="45.73413" lon="6.06946">
        <ele>1092</ele>
        <time>2014-05-25T09:45:28.000Z</time>
      </trkpt>
      <trkpt lat="45.73411" lon="6.06938">
        <ele>1091.1999511719</ele>
        <time>2014-05-25T09:45:34.000Z</time>
      </trkpt>
      <trkpt lat="45.73411" lon="6.06938">
        <ele>1091.1999511719</ele>
        <time>2014-05-25T09:45:40.000Z</time>
      </trkpt>
      <trkpt lat="45.73405" lon="6.06941">
        <ele>1090.4000244141</ele>
        <time>2014-05-25T09:45:45.000Z</time>
      </trkpt>
      <trkpt lat="45.73401" lon="6.06944">
        <ele>1090</ele>
        <time>2014-05-25T09:45:50.000Z</time>
      </trkpt>
      <trkpt lat="45.73398" lon="6.06945">
        <ele>1089.4000244141</ele>
        <time>2014-05-25T09:45:55.000Z</time>
      </trkpt>
      <trkpt lat="45.73396" lon="6.06943">
        <ele>1089</ele>
        <time>2014-05-25T09:45:59.000Z</time>
      </trkpt>
      <trkpt lat="45.73394" lon="6.06942">
        <ele>1088.5999755859</ele>
        <time>2014-05-25T09:46:04.000Z</time>
      </trkpt>
      <trkpt lat="45.73391" lon="6.06943">
        <ele>1088.1999511719</ele>
        <time>2014-05-25T09:46:09.000Z</time>
      </trkpt>
      <trkpt lat="45.7339" lon="6.06943">
        <ele>1088</ele>
        <time>2014-05-25T09:46:13.000Z</time>
      </trkpt>
      <trkpt lat="45.73392" lon="6.06938">
        <ele>1088</ele>
        <time>2014-05-25T09:46:25.000Z</time>
      </trkpt>
      <trkpt lat="45.73394" lon="6.06936">
        <ele>1088.1999511719</ele>
        <time>2014-05-25T09:46:29.000Z</time>
      </trkpt>
      <trkpt lat="45.73398" lon="6.06932">
        <ele>1088.5999755859</ele>
        <time>2014-05-25T09:46:33.000Z</time>
      </trkpt>
      <trkpt lat="45.73399" lon="6.06933">
        <ele>1089</ele>
        <time>2014-05-25T09:46:36.000Z</time>
      </trkpt>
      <trkpt lat="45.73403" lon="6.06936">
        <ele>1089.8000488281</ele>
        <time>2014-05-25T09:46:41.000Z</time>
      </trkpt>
      <trkpt lat="45.73407" lon="6.06934">
        <ele>1090.1999511719</ele>
        <time>2014-05-25T09:46:45.000Z</time>
      </trkpt>
      <trkpt lat="45.73408" lon="6.06932">
        <ele>1090.1999511719</ele>
        <time>2014-05-25T09:46:46.000Z</time>
      </trkpt>
      <trkpt lat="45.73414" lon="6.06932">
        <ele>1091.1999511719</ele>
        <time>2014-05-25T09:46:50.000Z</time>
      </trkpt>
      <trkpt lat="45.73417" lon="6.06933">
        <ele>1092</ele>
        <time>2014-05-25T09:46:55.000Z</time>
      </trkpt>
      <trkpt lat="45.73422" lon="6.06935">
        <ele>1092.8000488281</ele>
        <time>2014-05-25T09:47:00.000Z</time>
      </trkpt>
      <trkpt lat="45.73428" lon="6.06935">
        <ele>1093.8000488281</ele>
        <time>2014-05-25T09:47:05.000Z</time>
      </trkpt>
      <trkpt lat="45.73433" lon="6.06937">
        <ele>1094.8000488281</ele>
        <time>2014-05-25T09:47:09.000Z</time>
      </trkpt>
      <trkpt lat="45.73438" lon="6.06937">
        <ele>1095.8000488281</ele>
        <time>2014-05-25T09:47:15.000Z</time>
      </trkpt>
      <trkpt lat="45.73441" lon="6.06939">
        <ele>1096.1999511719</ele>
        <time>2014-05-25T09:47:19.000Z</time>
      </trkpt>
      <trkpt lat="45.73446" lon="6.06936">
        <ele>1096.8000488281</ele>
        <time>2014-05-25T09:47:24.000Z</time>
      </trkpt>
      <trkpt lat="45.73448" lon="6.06933">
        <ele>1097.1999511719</ele>
        <time>2014-05-25T09:47:27.000Z</time>
      </trkpt>
      <trkpt lat="45.7345" lon="6.06931">
        <ele>1097.1999511719</ele>
        <time>2014-05-25T09:47:29.000Z</time>
      </trkpt>
      <trkpt lat="45.7346" lon="6.06929">
        <ele>1098.8000488281</ele>
        <time>2014-05-25T09:47:34.000Z</time>
      </trkpt>
      <trkpt lat="45.73463" lon="6.06928">
        <ele>1099.1999511719</ele>
        <time>2014-05-25T09:47:36.000Z</time>
      </trkpt>
      <trkpt lat="45.73467" lon="6.0692">
        <ele>1099.4000244141</ele>
        <time>2014-05-25T09:47:41.000Z</time>
      </trkpt>
      <trkpt lat="45.73473" lon="6.06917">
        <ele>1100.1999511719</ele>
        <time>2014-05-25T09:47:45.000Z</time>
      </trkpt>
      <trkpt lat="45.73474" lon="6.06917">
        <ele>1100.4000244141</ele>
        <time>2014-05-25T09:47:46.000Z</time>
      </trkpt>
      <trkpt lat="45.73476" lon="6.06916">
        <ele>1100.8000488281</ele>
        <time>2014-05-25T09:47:53.000Z</time>
      </trkpt>
      <trkpt lat="45.73474" lon="6.06918">
        <ele>1100.4000244141</ele>
        <time>2014-05-25T09:48:00.000Z</time>
      </trkpt>
      <trkpt lat="45.73473" lon="6.0692">
        <ele>1100.4000244141</ele>
        <time>2014-05-25T09:48:04.000Z</time>
      </trkpt>
      <trkpt lat="45.73471" lon="6.06927">
        <ele>1100.4000244141</ele>
        <time>2014-05-25T09:48:09.000Z</time>
      </trkpt>
      <trkpt lat="45.73467" lon="6.06928">
        <ele>1100</ele>
        <time>2014-05-25T09:48:14.000Z</time>
      </trkpt>
      <trkpt lat="45.73464" lon="6.0693">
        <ele>1099.5999755859</ele>
        <time>2014-05-25T09:48:18.000Z</time>
      </trkpt>
      <trkpt lat="45.73458" lon="6.0694">
        <ele>1099.4000244141</ele>
        <time>2014-05-25T09:48:22.000Z</time>
      </trkpt>
      <trkpt lat="45.73459" lon="6.06941">
        <ele>1099.5999755859</ele>
        <time>2014-05-25T09:48:30.000Z</time>
      </trkpt>
      <trkpt lat="45.73459" lon="6.06944">
        <ele>1099.5999755859</ele>
        <time>2014-05-25T09:48:38.000Z</time>
      </trkpt>
      <trkpt lat="45.73459" lon="6.06951">
        <ele>1100.4000244141</ele>
        <time>2014-05-25T09:48:43.000Z</time>
      </trkpt>
      <trkpt lat="45.7346" lon="6.06957">
        <ele>1100.8000488281</ele>
        <time>2014-05-25T09:48:47.000Z</time>
      </trkpt>
      <trkpt lat="45.7346" lon="6.06958">
        <ele>1101</ele>
        <time>2014-05-25T09:48:48.000Z</time>
      </trkpt>
      <trkpt lat="45.73456" lon="6.06974">
        <ele>1101.4000244141</ele>
        <time>2014-05-25T09:48:54.000Z</time>
      </trkpt>
      <trkpt lat="45.73455" lon="6.06984">
        <ele>1101.5999755859</ele>
        <time>2014-05-25T09:48:57.000Z</time>
      </trkpt>
      <trkpt lat="45.73457" lon="6.06996">
        <ele>1102.5999755859</ele>
        <time>2014-05-25T09:49:01.000Z</time>
      </trkpt>
      <trkpt lat="45.73455" lon="6.07">
        <ele>1102.4000244141</ele>
        <time>2014-05-25T09:49:03.000Z</time>
      </trkpt>
      <trkpt lat="45.73446" lon="6.0701">
        <ele>1101</ele>
        <time>2014-05-25T09:49:08.000Z</time>
      </trkpt>
      <trkpt lat="45.73446" lon="6.07014">
        <ele>1101.1999511719</ele>
        <time>2014-05-25T09:49:12.000Z</time>
      </trkpt>
      <trkpt lat="45.73447" lon="6.07017">
        <ele>1101.5999755859</ele>
        <time>2014-05-25T09:49:16.000Z</time>
      </trkpt>
      <trkpt lat="45.73443" lon="6.0702">
        <ele>1101</ele>
        <time>2014-05-25T09:49:18.000Z</time>
      </trkpt>
      <trkpt lat="45.73434" lon="6.07031">
        <ele>1100</ele>
        <time>2014-05-25T09:49:23.000Z</time>
      </trkpt>
      <trkpt lat="45.73428" lon="6.07038">
        <ele>1099.5999755859</ele>
        <time>2014-05-25T09:49:28.000Z</time>
      </trkpt>
      <trkpt lat="45.73423" lon="6.07051">
        <ele>1099.5999755859</ele>
        <time>2014-05-25T09:49:33.000Z</time>
      </trkpt>
      <trkpt lat="45.73422" lon="6.07052">
        <ele>1099.5999755859</ele>
        <time>2014-05-25T09:49:34.000Z</time>
      </trkpt>
      <trkpt lat="45.73423" lon="6.07052">
        <ele>1099.8000488281</ele>
        <time>2014-05-25T09:49:36.000Z</time>
      </trkpt>
      <trkpt lat="45.73426" lon="6.07054">
        <ele>1100.1999511719</ele>
        <time>2014-05-25T09:49:38.000Z</time>
      </trkpt>
      <trkpt lat="45.73428" lon="6.07061">
        <ele>1101</ele>
        <time>2014-05-25T09:49:43.000Z</time>
      </trkpt>
      <trkpt lat="45.73427" lon="6.07069">
        <ele>1101.4000244141</ele>
        <time>2014-05-25T09:49:49.000Z</time>
      </trkpt>
      <trkpt lat="45.73426" lon="6.07074">
        <ele>1101.4000244141</ele>
        <time>2014-05-25T09:49:52.000Z</time>
      </trkpt>
      <trkpt lat="45.73427" lon="6.07079">
        <ele>1101.8000488281</ele>
        <time>2014-05-25T09:49:55.000Z</time>
      </trkpt>
      <trkpt lat="45.7343" lon="6.07092">
        <ele>1103</ele>
        <time>2014-05-25T09:50:01.000Z</time>
      </trkpt>
      <trkpt lat="45.73431" lon="6.07108">
        <ele>1104.1999511719</ele>
        <time>2014-05-25T09:50:07.000Z</time>
      </trkpt>
      <trkpt lat="45.73434" lon="6.07119">
        <ele>1105.1999511719</ele>
        <time>2014-05-25T09:50:12.000Z</time>
      </trkpt>
      <trkpt lat="45.73434" lon="6.0713">
        <ele>1106</ele>
        <time>2014-05-25T09:50:18.000Z</time>
      </trkpt>
      <trkpt lat="45.73435" lon="6.07133">
        <ele>1106.1999511719</ele>
        <time>2014-05-25T09:50:20.000Z</time>
      </trkpt>
      <trkpt lat="45.73435" lon="6.07141">
        <ele>1106.8000488281</ele>
        <time>2014-05-25T09:50:25.000Z</time>
      </trkpt>
      <trkpt lat="45.73433" lon="6.07151">
        <ele>1107.1999511719</ele>
        <time>2014-05-25T09:50:30.000Z</time>
      </trkpt>
      <trkpt lat="45.73434" lon="6.07153">
        <ele>1107.5999755859</ele>
        <time>2014-05-25T09:50:35.000Z</time>
      </trkpt>
      <trkpt lat="45.73431" lon="6.07155">
        <ele>1107.1999511719</ele>
        <time>2014-05-25T09:50:39.000Z</time>
      </trkpt>
      <trkpt lat="45.73431" lon="6.07157">
        <ele>1107.4000244141</ele>
        <time>2014-05-25T09:50:43.000Z</time>
      </trkpt>
      <trkpt lat="45.7343" lon="6.0716">
        <ele>1107.4000244141</ele>
        <time>2014-05-25T09:50:48.000Z</time>
      </trkpt>
      <trkpt lat="45.73427" lon="6.07164">
        <ele>1107.1999511719</ele>
        <time>2014-05-25T09:50:54.000Z</time>
      </trkpt>
      <trkpt lat="45.73428" lon="6.0717">
        <ele>1107.8000488281</ele>
        <time>2014-05-25T09:50:59.000Z</time>
      </trkpt>
      <trkpt lat="45.73428" lon="6.07175">
        <ele>1108.1999511719</ele>
        <time>2014-05-25T09:51:02.000Z</time>
      </trkpt>
      <trkpt lat="45.7342" lon="6.07186">
        <ele>1107.4000244141</ele>
        <time>2014-05-25T09:51:08.000Z</time>
      </trkpt>
      <trkpt lat="45.73418" lon="6.07187">
        <ele>1107.1999511719</ele>
        <time>2014-05-25T09:51:09.000Z</time>
      </trkpt>
      <trkpt lat="45.73415" lon="6.07188">
        <ele>1106.5999755859</ele>
        <time>2014-05-25T09:51:11.000Z</time>
      </trkpt>
      <trkpt lat="45.73402" lon="6.07201">
        <ele>1104.5999755859</ele>
        <time>2014-05-25T09:51:17.000Z</time>
      </trkpt>
      <trkpt lat="45.73398" lon="6.07203">
        <ele>1104.1999511719</ele>
        <time>2014-05-25T09:51:18.000Z</time>
      </trkpt>
      <trkpt lat="45.73388" lon="6.07212">
        <ele>1102.5999755859</ele>
        <time>2014-05-25T09:51:22.000Z</time>
      </trkpt>
      <trkpt lat="45.73386" lon="6.07216">
        <ele>1102.4000244141</ele>
        <time>2014-05-25T09:51:26.000Z</time>
      </trkpt>
      <trkpt lat="45.73374" lon="6.07226">
        <ele>1101</ele>
        <time>2014-05-25T09:51:32.000Z</time>
      </trkpt>
      <trkpt lat="45.73365" lon="6.07235">
        <ele>1100</ele>
        <time>2014-05-25T09:51:36.000Z</time>
      </trkpt>
      <trkpt lat="45.73362" lon="6.07238">
        <ele>1099.5999755859</ele>
        <time>2014-05-25T09:51:38.000Z</time>
      </trkpt>
      <trkpt lat="45.7336" lon="6.07246">
        <ele>1099.5999755859</ele>
        <time>2014-05-25T09:51:41.000Z</time>
      </trkpt>
      <trkpt lat="45.73351" lon="6.07257">
        <ele>1098.5999755859</ele>
        <time>2014-05-25T09:51:46.000Z</time>
      </trkpt>
      <trkpt lat="45.73345" lon="6.07266">
        <ele>1098</ele>
        <time>2014-05-25T09:51:51.000Z</time>
      </trkpt>
      <trkpt lat="45.73345" lon="6.07269">
        <ele>1098</ele>
        <time>2014-05-25T09:51:58.000Z</time>
      </trkpt>
      <trkpt lat="45.73338" lon="6.07281">
        <ele>1098</ele>
        <time>2014-05-25T09:52:03.000Z</time>
      </trkpt>
      <trkpt lat="45.73336" lon="6.07283">
        <ele>1098</ele>
        <time>2014-05-25T09:52:04.000Z</time>
      </trkpt>
      <trkpt lat="45.73334" lon="6.07287">
        <ele>1098</ele>
        <time>2014-05-25T09:52:06.000Z</time>
      </trkpt>
      <trkpt lat="45.73332" lon="6.07292">
        <ele>1098</ele>
        <time>2014-05-25T09:52:10.000Z</time>
      </trkpt>
      <trkpt lat="45.73329" lon="6.07303">
        <ele>1098.4000244141</ele>
        <time>2014-05-25T09:52:16.000Z</time>
      </trkpt>
      <trkpt lat="45.7333" lon="6.07308">
        <ele>1098.8000488281</ele>
        <time>2014-05-25T09:52:18.000Z</time>
      </trkpt>
      <trkpt lat="45.73331" lon="6.07318">
        <ele>1099.4000244141</ele>
        <time>2014-05-25T09:52:21.000Z</time>
      </trkpt>
      <trkpt lat="45.7333" lon="6.07331">
        <ele>1100</ele>
        <time>2014-05-25T09:52:26.000Z</time>
      </trkpt>
      <trkpt lat="45.73329" lon="6.07336">
        <ele>1100.4000244141</ele>
        <time>2014-05-25T09:52:29.000Z</time>
      </trkpt>
      <trkpt lat="45.73325" lon="6.07356">
        <ele>1101</ele>
        <time>2014-05-25T09:52:35.000Z</time>
      </trkpt>
      <trkpt lat="45.73324" lon="6.07365">
        <ele>1101.5999755859</ele>
        <time>2014-05-25T09:52:39.000Z</time>
      </trkpt>
      <trkpt lat="45.73322" lon="6.07375">
        <ele>1101.8000488281</ele>
        <time>2014-05-25T09:52:43.000Z</time>
      </trkpt>
      <trkpt lat="45.73321" lon="6.07378">
        <ele>1102</ele>
        <time>2014-05-25T09:52:45.000Z</time>
      </trkpt>
      <trkpt lat="45.7332" lon="6.07385">
        <ele>1102.4000244141</ele>
        <time>2014-05-25T09:52:50.000Z</time>
      </trkpt>
      <trkpt lat="45.73324" lon="6.074">
        <ele>1103.5999755859</ele>
        <time>2014-05-25T09:52:57.000Z</time>
      </trkpt>
      <trkpt lat="45.73324" lon="6.07403">
        <ele>1103.8000488281</ele>
        <time>2014-05-25T09:52:59.000Z</time>
      </trkpt>
      <trkpt lat="45.73325" lon="6.07414">
        <ele>1104.8000488281</ele>
        <time>2014-05-25T09:53:04.000Z</time>
      </trkpt>
      <trkpt lat="45.73325" lon="6.07417">
        <ele>1104.8000488281</ele>
        <time>2014-05-25T09:53:05.000Z</time>
      </trkpt>
      <trkpt lat="45.73332" lon="6.07425">
        <ele>1106.1999511719</ele>
        <time>2014-05-25T09:53:10.000Z</time>
      </trkpt>
      <trkpt lat="45.73337" lon="6.07431">
        <ele>1107.1999511719</ele>
        <time>2014-05-25T09:53:14.000Z</time>
      </trkpt>
      <trkpt lat="45.7334" lon="6.07432">
        <ele>1107.4000244141</ele>
        <time>2014-05-25T09:53:16.000Z</time>
      </trkpt>
      <trkpt lat="45.73344" lon="6.07442">
        <ele>1108.4000244141</ele>
        <time>2014-05-25T09:53:22.000Z</time>
      </trkpt>
      <trkpt lat="45.73347" lon="6.07443">
        <ele>1108.8000488281</ele>
        <time>2014-05-25T09:53:23.000Z</time>
      </trkpt>
      <trkpt lat="45.73351" lon="6.07448">
        <ele>1109.5999755859</ele>
        <time>2014-05-25T09:53:30.000Z</time>
      </trkpt>
      <trkpt lat="45.73349" lon="6.07453">
        <ele>1109.5999755859</ele>
        <time>2014-05-25T09:53:36.000Z</time>
      </trkpt>
      <trkpt lat="45.73344" lon="6.07457">
        <ele>1108.8000488281</ele>
        <time>2014-05-25T09:53:41.000Z</time>
      </trkpt>
      <trkpt lat="45.73343" lon="6.07462">
        <ele>1108.8000488281</ele>
        <time>2014-05-25T09:53:46.000Z</time>
      </trkpt>
      <trkpt lat="45.73341" lon="6.07466">
        <ele>1108.5999755859</ele>
        <time>2014-05-25T09:53:50.000Z</time>
      </trkpt>
      <trkpt lat="45.73339" lon="6.07471">
        <ele>1108.4000244141</ele>
        <time>2014-05-25T09:53:54.000Z</time>
      </trkpt>
      <trkpt lat="45.7334" lon="6.07474">
        <ele>1108.5999755859</ele>
        <time>2014-05-25T09:53:59.000Z</time>
      </trkpt>
      <trkpt lat="45.73341" lon="6.07479">
        <ele>1108.8000488281</ele>
        <time>2014-05-25T09:54:04.000Z</time>
      </trkpt>
      <trkpt lat="45.73341" lon="6.07483">
        <ele>1109</ele>
        <time>2014-05-25T09:54:13.000Z</time>
      </trkpt>
      <trkpt lat="45.7334" lon="6.07495">
        <ele>1109.1999511719</ele>
        <time>2014-05-25T09:54:19.000Z</time>
      </trkpt>
      <trkpt lat="45.7334" lon="6.07497">
        <ele>1109</ele>
        <time>2014-05-25T09:54:20.000Z</time>
      </trkpt>
      <trkpt lat="45.7334" lon="6.075">
        <ele>1109.1999511719</ele>
        <time>2014-05-25T09:54:23.000Z</time>
      </trkpt>
      <trkpt lat="45.73341" lon="6.07505">
        <ele>1109.5999755859</ele>
        <time>2014-05-25T09:54:26.000Z</time>
      </trkpt>
      <trkpt lat="45.7334" lon="6.07509">
        <ele>1109.4000244141</ele>
        <time>2014-05-25T09:54:32.000Z</time>
      </trkpt>
      <trkpt lat="45.73339" lon="6.07511">
        <ele>1109.4000244141</ele>
        <time>2014-05-25T09:54:34.000Z</time>
      </trkpt>
      <trkpt lat="45.73336" lon="6.07515">
        <ele>1108.8000488281</ele>
        <time>2014-05-25T09:54:37.000Z</time>
      </trkpt>
      <trkpt lat="45.73329" lon="6.07528">
        <ele>1107.5999755859</ele>
        <time>2014-05-25T09:54:42.000Z</time>
      </trkpt>
      <trkpt lat="45.73329" lon="6.07539">
        <ele>1107.4000244141</ele>
        <time>2014-05-25T09:54:49.000Z</time>
      </trkpt>
      <trkpt lat="45.7333" lon="6.07546">
        <ele>1107.5999755859</ele>
        <time>2014-05-25T09:54:54.000Z</time>
      </trkpt>
      <trkpt lat="45.7333" lon="6.07551">
        <ele>1107.5999755859</ele>
        <time>2014-05-25T09:54:58.000Z</time>
      </trkpt>
      <trkpt lat="45.73329" lon="6.07563">
        <ele>1107.4000244141</ele>
        <time>2014-05-25T09:55:02.000Z</time>
      </trkpt>
      <trkpt lat="45.7333" lon="6.07571">
        <ele>1107.4000244141</ele>
        <time>2014-05-25T09:55:06.000Z</time>
      </trkpt>
      <trkpt lat="45.73331" lon="6.07575">
        <ele>1107.5999755859</ele>
        <time>2014-05-25T09:55:10.000Z</time>
      </trkpt>
      <trkpt lat="45.73332" lon="6.07579">
        <ele>1107.5999755859</ele>
        <time>2014-05-25T09:55:13.000Z</time>
      </trkpt>
      <trkpt lat="45.73333" lon="6.07584">
        <ele>1107.5999755859</ele>
        <time>2014-05-25T09:55:20.000Z</time>
      </trkpt>
      <trkpt lat="45.73335" lon="6.07589">
        <ele>1108</ele>
        <time>2014-05-25T09:55:34.000Z</time>
      </trkpt>
      <trkpt lat="45.73337" lon="6.07595">
        <ele>1108.1999511719</ele>
        <time>2014-05-25T09:55:39.000Z</time>
      </trkpt>
      <trkpt lat="45.73337" lon="6.07601">
        <ele>1108</ele>
        <time>2014-05-25T09:55:44.000Z</time>
      </trkpt>
      <trkpt lat="45.73337" lon="6.07605">
        <ele>1107.8000488281</ele>
        <time>2014-05-25T09:55:47.000Z</time>
      </trkpt>
      <trkpt lat="45.73341" lon="6.07609">
        <ele>1108.4000244141</ele>
        <time>2014-05-25T09:55:51.000Z</time>
      </trkpt>
      <trkpt lat="45.73338" lon="6.07617">
        <ele>1107.8000488281</ele>
        <time>2014-05-25T09:55:55.000Z</time>
      </trkpt>
      <trkpt lat="45.73337" lon="6.07623">
        <ele>1107.4000244141</ele>
        <time>2014-05-25T09:56:00.000Z</time>
      </trkpt>
      <trkpt lat="45.73336" lon="6.0763">
        <ele>1107</ele>
        <time>2014-05-25T09:56:05.000Z</time>
      </trkpt>
      <trkpt lat="45.73336" lon="6.07633">
        <ele>1107</ele>
        <time>2014-05-25T09:56:06.000Z</time>
      </trkpt>
      <trkpt lat="45.73337" lon="6.07637">
        <ele>1107.1999511719</ele>
        <time>2014-05-25T09:56:09.000Z</time>
      </trkpt>
      <trkpt lat="45.73337" lon="6.07642">
        <ele>1107</ele>
        <time>2014-05-25T09:56:19.000Z</time>
      </trkpt>
      <trkpt lat="45.73337" lon="6.07644">
        <ele>1107</ele>
        <time>2014-05-25T09:56:20.000Z</time>
      </trkpt>
      <trkpt lat="45.73331" lon="6.07651">
        <ele>1105.8000488281</ele>
        <time>2014-05-25T09:56:24.000Z</time>
      </trkpt>
      <trkpt lat="45.73323" lon="6.07668">
        <ele>1104.1999511719</ele>
        <time>2014-05-25T09:56:29.000Z</time>
      </trkpt>
      <trkpt lat="45.73324" lon="6.07682">
        <ele>1104.4000244141</ele>
        <time>2014-05-25T09:56:34.000Z</time>
      </trkpt>
      <trkpt lat="45.73319" lon="6.07686">
        <ele>1103.5999755859</ele>
        <time>2014-05-25T09:56:54.000Z</time>
      </trkpt>
      <trkpt lat="45.73313" lon="6.07692">
        <ele>1102.4000244141</ele>
        <time>2014-05-25T09:56:59.000Z</time>
      </trkpt>
      <trkpt lat="45.73311" lon="6.07697">
        <ele>1102.1999511719</ele>
        <time>2014-05-25T09:57:03.000Z</time>
      </trkpt>
      <trkpt lat="45.73308" lon="6.07701">
        <ele>1101.8000488281</ele>
        <time>2014-05-25T09:57:08.000Z</time>
      </trkpt>
      <trkpt lat="45.73301" lon="6.07708">
        <ele>1100.5999755859</ele>
        <time>2014-05-25T09:57:13.000Z</time>
      </trkpt>
      <trkpt lat="45.73301" lon="6.07711">
        <ele>1100.5999755859</ele>
        <time>2014-05-25T09:57:17.000Z</time>
      </trkpt>
      <trkpt lat="45.73299" lon="6.07715">
        <ele>1100.4000244141</ele>
        <time>2014-05-25T09:57:19.000Z</time>
      </trkpt>
      <trkpt lat="45.73299" lon="6.07717">
        <ele>1100.4000244141</ele>
        <time>2014-05-25T09:57:21.000Z</time>
      </trkpt>
      <trkpt lat="45.73298" lon="6.07728">
        <ele>1100</ele>
        <time>2014-05-25T09:57:26.000Z</time>
      </trkpt>
      <trkpt lat="45.73303" lon="6.07734">
        <ele>1100.5999755859</ele>
        <time>2014-05-25T09:57:30.000Z</time>
      </trkpt>
      <trkpt lat="45.73313" lon="6.07744">
        <ele>1101.8000488281</ele>
        <time>2014-05-25T09:57:35.000Z</time>
      </trkpt>
      <trkpt lat="45.73322" lon="6.07754">
        <ele>1102.8000488281</ele>
        <time>2014-05-25T09:57:41.000Z</time>
      </trkpt>
      <trkpt lat="45.73325" lon="6.07754">
        <ele>1103.4000244141</ele>
        <time>2014-05-25T09:57:44.000Z</time>
      </trkpt>
      <trkpt lat="45.73329" lon="6.07754">
        <ele>1104</ele>
        <time>2014-05-25T09:57:46.000Z</time>
      </trkpt>
      <trkpt lat="45.7334" lon="6.07758">
        <ele>1105.4000244141</ele>
        <time>2014-05-25T09:57:51.000Z</time>
      </trkpt>
      <trkpt lat="45.73341" lon="6.07758">
        <ele>1105.8000488281</ele>
        <time>2014-05-25T09:57:52.000Z</time>
      </trkpt>
      <trkpt lat="45.73348" lon="6.07762">
        <ele>1106.8000488281</ele>
        <time>2014-05-25T09:57:56.000Z</time>
      </trkpt>
      <trkpt lat="45.7336" lon="6.07774">
        <ele>1108</ele>
        <time>2014-05-25T09:58:01.000Z</time>
      </trkpt>
      <trkpt lat="45.73374" lon="6.07786">
        <ele>1109.8000488281</ele>
        <time>2014-05-25T09:58:05.000Z</time>
      </trkpt>
      <trkpt lat="45.73376" lon="6.07788">
        <ele>1110.1999511719</ele>
        <time>2014-05-25T09:58:06.000Z</time>
      </trkpt>
      <trkpt lat="45.73384" lon="6.07809">
        <ele>1110.5999755859</ele>
        <time>2014-05-25T09:58:11.000Z</time>
      </trkpt>
      <trkpt lat="45.73392" lon="6.07823">
        <ele>1111.1999511719</ele>
        <time>2014-05-25T09:58:16.000Z</time>
      </trkpt>
      <trkpt lat="45.73394" lon="6.07825">
        <ele>1111.5999755859</ele>
        <time>2014-05-25T09:58:17.000Z</time>
      </trkpt>
      <trkpt lat="45.73397" lon="6.07833">
        <ele>1111.8000488281</ele>
        <time>2014-05-25T09:58:21.000Z</time>
      </trkpt>
      <trkpt lat="45.7341" lon="6.07849">
        <ele>1113.8000488281</ele>
        <time>2014-05-25T09:58:26.000Z</time>
      </trkpt>
      <trkpt lat="45.73422" lon="6.07863">
        <ele>1115.5999755859</ele>
        <time>2014-05-25T09:58:30.000Z</time>
      </trkpt>
      <trkpt lat="45.7343" lon="6.07878">
        <ele>1116.4000244141</ele>
        <time>2014-05-25T09:58:34.000Z</time>
      </trkpt>
      <trkpt lat="45.73438" lon="6.07893">
        <ele>1117.4000244141</ele>
        <time>2014-05-25T09:58:39.000Z</time>
      </trkpt>
      <trkpt lat="45.7344" lon="6.07894">
        <ele>1117.5999755859</ele>
        <time>2014-05-25T09:58:41.000Z</time>
      </trkpt>
      <trkpt lat="45.73441" lon="6.07896">
        <ele>1117.5999755859</ele>
        <time>2014-05-25T09:58:43.000Z</time>
      </trkpt>
      <trkpt lat="45.73442" lon="6.07901">
        <ele>1117.5999755859</ele>
        <time>2014-05-25T09:58:49.000Z</time>
      </trkpt>
      <trkpt lat="45.73447" lon="6.07906">
        <ele>1118.1999511719</ele>
        <time>2014-05-25T09:58:55.000Z</time>
      </trkpt>
      <trkpt lat="45.73454" lon="6.07916">
        <ele>1118.5999755859</ele>
        <time>2014-05-25T09:59:01.000Z</time>
      </trkpt>
      <trkpt lat="45.73455" lon="6.07919">
        <ele>1118.5999755859</ele>
        <time>2014-05-25T09:59:02.000Z</time>
      </trkpt>
      <trkpt lat="45.73461" lon="6.07926">
        <ele>1119.1999511719</ele>
        <time>2014-05-25T09:59:05.000Z</time>
      </trkpt>
      <trkpt lat="45.73467" lon="6.07937">
        <ele>1119.5999755859</ele>
        <time>2014-05-25T09:59:13.000Z</time>
      </trkpt>
      <trkpt lat="45.73468" lon="6.07941">
        <ele>1119.4000244141</ele>
        <time>2014-05-25T09:59:23.000Z</time>
      </trkpt>
      <trkpt lat="45.73458" lon="6.07957">
        <ele>1116</ele>
        <time>2014-05-25T09:59:29.000Z</time>
      </trkpt>
      <trkpt lat="45.73451" lon="6.07977">
        <ele>1113.1999511719</ele>
        <time>2014-05-25T09:59:34.000Z</time>
      </trkpt>
      <trkpt lat="45.73442" lon="6.07997">
        <ele>1109.8000488281</ele>
        <time>2014-05-25T09:59:39.000Z</time>
      </trkpt>
      <trkpt lat="45.73436" lon="6.08013">
        <ele>1107.1999511719</ele>
        <time>2014-05-25T09:59:44.000Z</time>
      </trkpt>
      <trkpt lat="45.73436" lon="6.08019">
        <ele>1106.8000488281</ele>
        <time>2014-05-25T09:59:49.000Z</time>
      </trkpt>
      <trkpt lat="45.73434" lon="6.0802">
        <ele>1106.1999511719</ele>
        <time>2014-05-25T10:00:03.000Z</time>
      </trkpt>
      <trkpt lat="45.73435" lon="6.08024">
        <ele>1106.1999511719</ele>
        <time>2014-05-25T10:00:11.000Z</time>
      </trkpt>
      <trkpt lat="45.73435" lon="6.08025">
        <ele>1106.1999511719</ele>
        <time>2014-05-25T10:00:13.000Z</time>
      </trkpt>
      <trkpt lat="45.73431" lon="6.08035">
        <ele>1104.1999511719</ele>
        <time>2014-05-25T10:00:17.000Z</time>
      </trkpt>
      <trkpt lat="45.73424" lon="6.08049">
        <ele>1101.5999755859</ele>
        <time>2014-05-25T10:00:21.000Z</time>
      </trkpt>
      <trkpt lat="45.73422" lon="6.08069">
        <ele>1099.4000244141</ele>
        <time>2014-05-25T10:00:28.000Z</time>
      </trkpt>
      <trkpt lat="45.73418" lon="6.08082">
        <ele>1097.5999755859</ele>
        <time>2014-05-25T10:00:33.000Z</time>
      </trkpt>
      <trkpt lat="45.73416" lon="6.08088">
        <ele>1096.8000488281</ele>
        <time>2014-05-25T10:00:36.000Z</time>
      </trkpt>
      <trkpt lat="45.73405" lon="6.08093">
        <ele>1093.4000244141</ele>
        <time>2014-05-25T10:00:41.000Z</time>
      </trkpt>
      <trkpt lat="45.73397" lon="6.08093">
        <ele>1091.8000488281</ele>
        <time>2014-05-25T10:00:45.000Z</time>
      </trkpt>
      <trkpt lat="45.73383" lon="6.0809">
        <ele>1089.1999511719</ele>
        <time>2014-05-25T10:00:49.000Z</time>
      </trkpt>
      <trkpt lat="45.73375" lon="6.08103">
        <ele>1086.5999755859</ele>
        <time>2014-05-25T10:00:54.000Z</time>
      </trkpt>
      <trkpt lat="45.73362" lon="6.08115">
        <ele>1083.4000244141</ele>
        <time>2014-05-25T10:00:59.000Z</time>
      </trkpt>
      <trkpt lat="45.73355" lon="6.08118">
        <ele>1082.1999511719</ele>
        <time>2014-05-25T10:01:01.000Z</time>
      </trkpt>
      <trkpt lat="45.7335" lon="6.0812">
        <ele>1081.4000244141</ele>
        <time>2014-05-25T10:01:06.000Z</time>
      </trkpt>
      <trkpt lat="45.73349" lon="6.08119">
        <ele>1081.4000244141</ele>
        <time>2014-05-25T10:01:07.000Z</time>
      </trkpt>
      <trkpt lat="45.73338" lon="6.08115">
        <ele>1080.4000244141</ele>
        <time>2014-05-25T10:01:12.000Z</time>
      </trkpt>
      <trkpt lat="45.73326" lon="6.08113">
        <ele>1079.1999511719</ele>
        <time>2014-05-25T10:01:17.000Z</time>
      </trkpt>
      <trkpt lat="45.73323" lon="6.08111">
        <ele>1079</ele>
        <time>2014-05-25T10:01:21.000Z</time>
      </trkpt>
      <trkpt lat="45.73317" lon="6.08108">
        <ele>1078.5999755859</ele>
        <time>2014-05-25T10:01:25.000Z</time>
      </trkpt>
      <trkpt lat="45.73309" lon="6.08111">
        <ele>1077.4000244141</ele>
        <time>2014-05-25T10:01:29.000Z</time>
      </trkpt>
      <trkpt lat="45.73306" lon="6.08111">
        <ele>1076.8000488281</ele>
        <time>2014-05-25T10:01:35.000Z</time>
      </trkpt>
      <trkpt lat="45.7331" lon="6.08108">
        <ele>1077.5999755859</ele>
        <time>2014-05-25T10:01:40.000Z</time>
      </trkpt>
      <trkpt lat="45.73318" lon="6.08109">
        <ele>1078.5999755859</ele>
        <time>2014-05-25T10:01:45.000Z</time>
      </trkpt>
      <trkpt lat="45.73321" lon="6.08107">
        <ele>1079</ele>
        <time>2014-05-25T10:01:47.000Z</time>
      </trkpt>
      <trkpt lat="45.73337" lon="6.08111">
        <ele>1080.5999755859</ele>
        <time>2014-05-25T10:01:53.000Z</time>
      </trkpt>
      <trkpt lat="45.73356" lon="6.08117">
        <ele>1082.4000244141</ele>
        <time>2014-05-25T10:01:58.000Z</time>
      </trkpt>
      <trkpt lat="45.73363" lon="6.08121">
        <ele>1082.8000488281</ele>
        <time>2014-05-25T10:02:02.000Z</time>
      </trkpt>
      <trkpt lat="45.73367" lon="6.08122">
        <ele>1083.1999511719</ele>
        <time>2014-05-25T10:02:08.000Z</time>
      </trkpt>
      <trkpt lat="45.7337" lon="6.08124">
        <ele>1083.5999755859</ele>
        <time>2014-05-25T10:02:12.000Z</time>
      </trkpt>
      <trkpt lat="45.73378" lon="6.08127">
        <ele>1084.4000244141</ele>
        <time>2014-05-25T10:02:17.000Z</time>
      </trkpt>
      <trkpt lat="45.73379" lon="6.08128">
        <ele>1084.5999755859</ele>
        <time>2014-05-25T10:02:18.000Z</time>
      </trkpt>
      <trkpt lat="45.73384" lon="6.08133">
        <ele>1084.5999755859</ele>
        <time>2014-05-25T10:02:23.000Z</time>
      </trkpt>
      <trkpt lat="45.73386" lon="6.08136">
        <ele>1084.5999755859</ele>
        <time>2014-05-25T10:02:25.000Z</time>
      </trkpt>
      <trkpt lat="45.7339" lon="6.08141">
        <ele>1085</ele>
        <time>2014-05-25T10:02:32.000Z</time>
      </trkpt>
      <trkpt lat="45.73394" lon="6.08142">
        <ele>1085.8000488281</ele>
        <time>2014-05-25T10:02:36.000Z</time>
      </trkpt>
      <trkpt lat="45.73403" lon="6.08141">
        <ele>1088</ele>
        <time>2014-05-25T10:02:41.000Z</time>
      </trkpt>
      <trkpt lat="45.73406" lon="6.08141">
        <ele>1088.5999755859</ele>
        <time>2014-05-25T10:02:42.000Z</time>
      </trkpt>
      <trkpt lat="45.73408" lon="6.08142">
        <ele>1089.1999511719</ele>
        <time>2014-05-25T10:02:44.000Z</time>
      </trkpt>
      <trkpt lat="45.73419" lon="6.08147">
        <ele>1091.1999511719</ele>
        <time>2014-05-25T10:02:49.000Z</time>
      </trkpt>
      <trkpt lat="45.73423" lon="6.08155">
        <ele>1091.5999755859</ele>
        <time>2014-05-25T10:02:53.000Z</time>
      </trkpt>
      <trkpt lat="45.73424" lon="6.08158">
        <ele>1091.5999755859</ele>
        <time>2014-05-25T10:02:54.000Z</time>
      </trkpt>
      <trkpt lat="45.73433" lon="6.08176">
        <ele>1092.1999511719</ele>
        <time>2014-05-25T10:02:59.000Z</time>
      </trkpt>
      <trkpt lat="45.73441" lon="6.08182">
        <ele>1093.8000488281</ele>
        <time>2014-05-25T10:03:03.000Z</time>
      </trkpt>
      <trkpt lat="45.73444" lon="6.08188">
        <ele>1094</ele>
        <time>2014-05-25T10:03:09.000Z</time>
      </trkpt>
      <trkpt lat="45.73444" lon="6.08192">
        <ele>1093.4000244141</ele>
        <time>2014-05-25T10:03:11.000Z</time>
      </trkpt>
      <trkpt lat="45.73447" lon="6.08197">
        <ele>1093.8000488281</ele>
        <time>2014-05-25T10:03:14.000Z</time>
      </trkpt>
      <trkpt lat="45.73452" lon="6.08205">
        <ele>1094.4000244141</ele>
        <time>2014-05-25T10:03:19.000Z</time>
      </trkpt>
      <trkpt lat="45.73458" lon="6.08218">
        <ele>1094.8000488281</ele>
        <time>2014-05-25T10:03:24.000Z</time>
      </trkpt>
      <trkpt lat="45.73462" lon="6.08224">
        <ele>1095.4000244141</ele>
        <time>2014-05-25T10:03:28.000Z</time>
      </trkpt>
      <trkpt lat="45.73466" lon="6.0823">
        <ele>1095.5999755859</ele>
        <time>2014-05-25T10:03:33.000Z</time>
      </trkpt>
      <trkpt lat="45.73469" lon="6.08232">
        <ele>1096</ele>
        <time>2014-05-25T10:03:41.000Z</time>
      </trkpt>
      <trkpt lat="45.73476" lon="6.08235">
        <ele>1097.1999511719</ele>
        <time>2014-05-25T10:03:52.000Z</time>
      </trkpt>
      <trkpt lat="45.73479" lon="6.08242">
        <ele>1097</ele>
        <time>2014-05-25T10:03:58.000Z</time>
      </trkpt>
      <trkpt lat="45.73482" lon="6.08244">
        <ele>1097.5999755859</ele>
        <time>2014-05-25T10:04:05.000Z</time>
      </trkpt>
      <trkpt lat="45.73486" lon="6.08241">
        <ele>1098.8000488281</ele>
        <time>2014-05-25T10:04:12.000Z</time>
      </trkpt>
      <trkpt lat="45.73489" lon="6.08243">
        <ele>1099.4000244141</ele>
        <time>2014-05-25T10:04:17.000Z</time>
      </trkpt>
      <trkpt lat="45.73491" lon="6.08244">
        <ele>1099.5999755859</ele>
        <time>2014-05-25T10:04:22.000Z</time>
      </trkpt>
      <trkpt lat="45.73492" lon="6.08246">
        <ele>1099.4000244141</ele>
        <time>2014-05-25T10:04:27.000Z</time>
      </trkpt>
      <trkpt lat="45.73495" lon="6.08245">
        <ele>1100.1999511719</ele>
        <time>2014-05-25T10:04:31.000Z</time>
      </trkpt>
      <trkpt lat="45.73497" lon="6.08243">
        <ele>1101</ele>
        <time>2014-05-25T10:04:35.000Z</time>
      </trkpt>
      <trkpt lat="45.73499" lon="6.08242">
        <ele>1101.5999755859</ele>
        <time>2014-05-25T10:04:38.000Z</time>
      </trkpt>
      <trkpt lat="45.73501" lon="6.08238">
        <ele>1102.4000244141</ele>
        <time>2014-05-25T10:04:43.000Z</time>
      </trkpt>
      <trkpt lat="45.73503" lon="6.0824">
        <ele>1102.8000488281</ele>
        <time>2014-05-25T10:04:58.000Z</time>
      </trkpt>
      <trkpt lat="45.73505" lon="6.08239">
        <ele>1103.1999511719</ele>
        <time>2014-05-25T10:05:08.000Z</time>
      </trkpt>
      <trkpt lat="45.73506" lon="6.08236">
        <ele>1104</ele>
        <time>2014-05-25T10:05:12.000Z</time>
      </trkpt>
      <trkpt lat="45.73513" lon="6.0823">
        <ele>1106.1999511719</ele>
        <time>2014-05-25T10:05:17.000Z</time>
      </trkpt>
      <trkpt lat="45.73517" lon="6.08225">
        <ele>1107.5999755859</ele>
        <time>2014-05-25T10:05:21.000Z</time>
      </trkpt>
      <trkpt lat="45.73508" lon="6.08215">
        <ele>1106.4000244141</ele>
        <time>2014-05-25T10:05:26.000Z</time>
      </trkpt>
      <trkpt lat="45.73502" lon="6.08213">
        <ele>1105.4000244141</ele>
        <time>2014-05-25T10:05:30.000Z</time>
      </trkpt>
      <trkpt lat="45.73499" lon="6.08208">
        <ele>1105</ele>
        <time>2014-05-25T10:05:38.000Z</time>
      </trkpt>
      <trkpt lat="45.73499" lon="6.08208">
        <ele>1105</ele>
        <time>2014-05-25T10:05:39.000Z</time>
      </trkpt>
      <trkpt lat="45.73488" lon="6.08201">
        <ele>1103</ele>
        <time>2014-05-25T10:05:45.000Z</time>
      </trkpt>
      <trkpt lat="45.73485" lon="6.08198">
        <ele>1102.8000488281</ele>
        <time>2014-05-25T10:05:46.000Z</time>
      </trkpt>
      <trkpt lat="45.7348" lon="6.0819">
        <ele>1102.1999511719</ele>
        <time>2014-05-25T10:05:51.000Z</time>
      </trkpt>
      <trkpt lat="45.73475" lon="6.08184">
        <ele>1101.5999755859</ele>
        <time>2014-05-25T10:06:03.000Z</time>
      </trkpt>
      <trkpt lat="45.73475" lon="6.08182">
        <ele>1101.8000488281</ele>
        <time>2014-05-25T10:06:05.000Z</time>
      </trkpt>
      <trkpt lat="45.73473" lon="6.08167">
        <ele>1102.5999755859</ele>
        <time>2014-05-25T10:06:11.000Z</time>
      </trkpt>
      <trkpt lat="45.73469" lon="6.08154">
        <ele>1102.5999755859</ele>
        <time>2014-05-25T10:06:15.000Z</time>
      </trkpt>
      <trkpt lat="45.73461" lon="6.08143">
        <ele>1101.8000488281</ele>
        <time>2014-05-25T10:06:20.000Z</time>
      </trkpt>
      <trkpt lat="45.73461" lon="6.08137">
        <ele>1102.4000244141</ele>
        <time>2014-05-25T10:06:22.000Z</time>
      </trkpt>
      <trkpt lat="45.73458" lon="6.08123">
        <ele>1103</ele>
        <time>2014-05-25T10:06:27.000Z</time>
      </trkpt>
      <trkpt lat="45.73455" lon="6.08118">
        <ele>1102.5999755859</ele>
        <time>2014-05-25T10:06:30.000Z</time>
      </trkpt>
      <trkpt lat="45.73451" lon="6.08114">
        <ele>1102</ele>
        <time>2014-05-25T10:06:33.000Z</time>
      </trkpt>
      <trkpt lat="45.73449" lon="6.08111">
        <ele>1102</ele>
        <time>2014-05-25T10:06:36.000Z</time>
      </trkpt>
      <trkpt lat="45.73445" lon="6.08103">
        <ele>1101.5999755859</ele>
        <time>2014-05-25T10:06:40.000Z</time>
      </trkpt>
      <trkpt lat="45.73442" lon="6.08095">
        <ele>1101.5999755859</ele>
        <time>2014-05-25T10:06:44.000Z</time>
      </trkpt>
      <trkpt lat="45.7343" lon="6.08089">
        <ele>1099.5999755859</ele>
        <time>2014-05-25T10:06:51.000Z</time>
      </trkpt>
      <trkpt lat="45.73422" lon="6.08085">
        <ele>1098.1999511719</ele>
        <time>2014-05-25T10:06:54.000Z</time>
      </trkpt>
      <trkpt lat="45.73421" lon="6.08074">
        <ele>1098.8000488281</ele>
        <time>2014-05-25T10:06:59.000Z</time>
      </trkpt>
      <trkpt lat="45.7342" lon="6.0807">
        <ele>1099</ele>
        <time>2014-05-25T10:07:02.000Z</time>
      </trkpt>
      <trkpt lat="45.7342" lon="6.08061">
        <ele>1099.5999755859</ele>
        <time>2014-05-25T10:07:09.000Z</time>
      </trkpt>
      <trkpt lat="45.73422" lon="6.08057">
        <ele>1100.1999511719</ele>
        <time>2014-05-25T10:07:12.000Z</time>
      </trkpt>
      <trkpt lat="45.73429" lon="6.08049">
        <ele>1102.5999755859</ele>
        <time>2014-05-25T10:07:16.000Z</time>
      </trkpt>
      <trkpt lat="45.73434" lon="6.0804">
        <ele>1104.4000244141</ele>
        <time>2014-05-25T10:07:21.000Z</time>
      </trkpt>
      <trkpt lat="45.73434" lon="6.08035">
        <ele>1105</ele>
        <time>2014-05-25T10:07:23.000Z</time>
      </trkpt>
      <trkpt lat="45.73436" lon="6.08023">
        <ele>1106.4000244141</ele>
        <time>2014-05-25T10:07:29.000Z</time>
      </trkpt>
      <trkpt lat="45.73435" lon="6.0802">
        <ele>1106.4000244141</ele>
        <time>2014-05-25T10:07:31.000Z</time>
      </trkpt>
      <trkpt lat="45.73432" lon="6.08008">
        <ele>1107</ele>
        <time>2014-05-25T10:07:38.000Z</time>
      </trkpt>
      <trkpt lat="45.73432" lon="6.08006">
        <ele>1107.1999511719</ele>
        <time>2014-05-25T10:07:39.000Z</time>
      </trkpt>
      <trkpt lat="45.73436" lon="6.07998">
        <ele>1108.5999755859</ele>
        <time>2014-05-25T10:07:44.000Z</time>
      </trkpt>
      <trkpt lat="45.73442" lon="6.07988">
        <ele>1110.5999755859</ele>
        <time>2014-05-25T10:07:50.000Z</time>
      </trkpt>
      <trkpt lat="45.73446" lon="6.07978">
        <ele>1112.1999511719</ele>
        <time>2014-05-25T10:07:55.000Z</time>
      </trkpt>
      <trkpt lat="45.73447" lon="6.07975">
        <ele>1112.5999755859</ele>
        <time>2014-05-25T10:07:57.000Z</time>
      </trkpt>
      <trkpt lat="45.73454" lon="6.07959">
        <ele>1115</ele>
        <time>2014-05-25T10:08:03.000Z</time>
      </trkpt>
      <trkpt lat="45.73458" lon="6.07951">
        <ele>1116.5999755859</ele>
        <time>2014-05-25T10:08:06.000Z</time>
      </trkpt>
      <trkpt lat="45.73464" lon="6.07943">
        <ele>1118.4000244141</ele>
        <time>2014-05-25T10:08:12.000Z</time>
      </trkpt>
      <trkpt lat="45.73468" lon="6.0794">
        <ele>1119.5999755859</ele>
        <time>2014-05-25T10:08:17.000Z</time>
      </trkpt>
      <trkpt lat="45.73478" lon="6.07943">
        <ele>1121.4000244141</ele>
        <time>2014-05-25T10:08:26.000Z</time>
      </trkpt>
      <trkpt lat="45.73482" lon="6.07944">
        <ele>1122.1999511719</ele>
        <time>2014-05-25T10:08:31.000Z</time>
      </trkpt>
      <trkpt lat="45.73483" lon="6.07944">
        <ele>1122.4000244141</ele>
        <time>2014-05-25T10:08:32.000Z</time>
      </trkpt>
      <trkpt lat="45.73489" lon="6.07948">
        <ele>1123.4000244141</ele>
        <time>2014-05-25T10:08:36.000Z</time>
      </trkpt>
      <trkpt lat="45.73494" lon="6.07949">
        <ele>1124.4000244141</ele>
        <time>2014-05-25T10:08:40.000Z</time>
      </trkpt>
      <trkpt lat="45.73499" lon="6.07949">
        <ele>1125.4000244141</ele>
        <time>2014-05-25T10:08:44.000Z</time>
      </trkpt>
      <trkpt lat="45.73509" lon="6.07951">
        <ele>1127.4000244141</ele>
        <time>2014-05-25T10:08:51.000Z</time>
      </trkpt>
      <trkpt lat="45.73511" lon="6.0795">
        <ele>1127.8000488281</ele>
        <time>2014-05-25T10:08:53.000Z</time>
      </trkpt>
      <trkpt lat="45.73516" lon="6.07949">
        <ele>1129</ele>
        <time>2014-05-25T10:08:58.000Z</time>
      </trkpt>
      <trkpt lat="45.73518" lon="6.07948">
        <ele>1129.5999755859</ele>
        <time>2014-05-25T10:09:01.000Z</time>
      </trkpt>
      <trkpt lat="45.73525" lon="6.07949">
        <ele>1131</ele>
        <time>2014-05-25T10:09:07.000Z</time>
      </trkpt>
      <trkpt lat="45.73527" lon="6.07949">
        <ele>1131.4000244141</ele>
        <time>2014-05-25T10:09:08.000Z</time>
      </trkpt>
      <trkpt lat="45.73538" lon="6.07952">
        <ele>1133.1999511719</ele>
        <time>2014-05-25T10:09:14.000Z</time>
      </trkpt>
      <trkpt lat="45.73544" lon="6.07954">
        <ele>1134.1999511719</ele>
        <time>2014-05-25T10:09:16.000Z</time>
      </trkpt>
      <trkpt lat="45.7356" lon="6.07957">
        <ele>1136.8000488281</ele>
        <time>2014-05-25T10:09:21.000Z</time>
      </trkpt>
      <trkpt lat="45.73562" lon="6.07959">
        <ele>1137.1999511719</ele>
        <time>2014-05-25T10:09:23.000Z</time>
      </trkpt>
      <trkpt lat="45.73571" lon="6.0796">
        <ele>1138.8000488281</ele>
        <time>2014-05-25T10:09:28.000Z</time>
      </trkpt>
      <trkpt lat="45.73583" lon="6.07967">
        <ele>1140.8000488281</ele>
        <time>2014-05-25T10:09:36.000Z</time>
      </trkpt>
      <trkpt lat="45.7359" lon="6.07971">
        <ele>1142</ele>
        <time>2014-05-25T10:09:40.000Z</time>
      </trkpt>
      <trkpt lat="45.73601" lon="6.07976">
        <ele>1144</ele>
        <time>2014-05-25T10:09:45.000Z</time>
      </trkpt>
      <trkpt lat="45.73604" lon="6.07979">
        <ele>1144.5999755859</ele>
        <time>2014-05-25T10:09:47.000Z</time>
      </trkpt>
      <trkpt lat="45.73611" lon="6.07978">
        <ele>1146</ele>
        <time>2014-05-25T10:09:52.000Z</time>
      </trkpt>
      <trkpt lat="45.73619" lon="6.07981">
        <ele>1147.5999755859</ele>
        <time>2014-05-25T10:09:56.000Z</time>
      </trkpt>
      <trkpt lat="45.73622" lon="6.07983">
        <ele>1148</ele>
        <time>2014-05-25T10:09:58.000Z</time>
      </trkpt>
      <trkpt lat="45.73626" lon="6.07987">
        <ele>1148.8000488281</ele>
        <time>2014-05-25T10:10:02.000Z</time>
      </trkpt>
      <trkpt lat="45.73631" lon="6.07988">
        <ele>1149.8000488281</ele>
        <time>2014-05-25T10:10:06.000Z</time>
      </trkpt>
      <trkpt lat="45.73636" lon="6.07979">
        <ele>1150.8000488281</ele>
        <time>2014-05-25T10:10:13.000Z</time>
      </trkpt>
      <trkpt lat="45.7364" lon="6.07977">
        <ele>1151.8000488281</ele>
        <time>2014-05-25T10:10:18.000Z</time>
      </trkpt>
      <trkpt lat="45.73644" lon="6.0797">
        <ele>1153</ele>
        <time>2014-05-25T10:10:24.000Z</time>
      </trkpt>
      <trkpt lat="45.73648" lon="6.07966">
        <ele>1154.1999511719</ele>
        <time>2014-05-25T10:10:29.000Z</time>
      </trkpt>
      <trkpt lat="45.73652" lon="6.07964">
        <ele>1155.1999511719</ele>
        <time>2014-05-25T10:10:34.000Z</time>
      </trkpt>
      <trkpt lat="45.73656" lon="6.07949">
        <ele>1156.8000488281</ele>
        <time>2014-05-25T10:10:40.000Z</time>
      </trkpt>
      <trkpt lat="45.73659" lon="6.07942">
        <ele>1158</ele>
        <time>2014-05-25T10:10:44.000Z</time>
      </trkpt>
      <trkpt lat="45.73663" lon="6.07936">
        <ele>1159.4000244141</ele>
        <time>2014-05-25T10:10:48.000Z</time>
      </trkpt>
      <trkpt lat="45.73665" lon="6.07935">
        <ele>1159.8000488281</ele>
        <time>2014-05-25T10:10:50.000Z</time>
      </trkpt>
      <trkpt lat="45.73671" lon="6.07928">
        <ele>1161.5999755859</ele>
        <time>2014-05-25T10:10:56.000Z</time>
      </trkpt>
      <trkpt lat="45.73676" lon="6.07926">
        <ele>1162.8000488281</ele>
        <time>2014-05-25T10:11:00.000Z</time>
      </trkpt>
      <trkpt lat="45.7368" lon="6.07928">
        <ele>1163.8000488281</ele>
        <time>2014-05-25T10:11:03.000Z</time>
      </trkpt>
      <trkpt lat="45.73692" lon="6.0793">
        <ele>1166.5999755859</ele>
        <time>2014-05-25T10:11:08.000Z</time>
      </trkpt>
      <trkpt lat="45.737" lon="6.07929">
        <ele>1168.8000488281</ele>
        <time>2014-05-25T10:11:13.000Z</time>
      </trkpt>
      <trkpt lat="45.73706" lon="6.07925">
        <ele>1170.1999511719</ele>
        <time>2014-05-25T10:11:18.000Z</time>
      </trkpt>
      <trkpt lat="45.73707" lon="6.07924">
        <ele>1170.1999511719</ele>
        <time>2014-05-25T10:11:19.000Z</time>
      </trkpt>
      <trkpt lat="45.73711" lon="6.07915">
        <ele>1171.4000244141</ele>
        <time>2014-05-25T10:11:24.000Z</time>
      </trkpt>
      <trkpt lat="45.73713" lon="6.07907">
        <ele>1172</ele>
        <time>2014-05-25T10:11:28.000Z</time>
      </trkpt>
      <trkpt lat="45.73719" lon="6.07902">
        <ele>1173.4000244141</ele>
        <time>2014-05-25T10:11:33.000Z</time>
      </trkpt>
      <trkpt lat="45.73725" lon="6.07899">
        <ele>1175</ele>
        <time>2014-05-25T10:11:38.000Z</time>
      </trkpt>
      <trkpt lat="45.73726" lon="6.07898">
        <ele>1175.1999511719</ele>
        <time>2014-05-25T10:11:40.000Z</time>
      </trkpt>
      <trkpt lat="45.73728" lon="6.07897">
        <ele>1175.5999755859</ele>
        <time>2014-05-25T10:11:43.000Z</time>
      </trkpt>
      <trkpt lat="45.73734" lon="6.0789">
        <ele>1176.8000488281</ele>
        <time>2014-05-25T10:11:49.000Z</time>
      </trkpt>
      <trkpt lat="45.73734" lon="6.07888">
        <ele>1177</ele>
        <time>2014-05-25T10:11:50.000Z</time>
      </trkpt>
      <trkpt lat="45.73738" lon="6.0788">
        <ele>1177.8000488281</ele>
        <time>2014-05-25T10:11:54.000Z</time>
      </trkpt>
      <trkpt lat="45.7375" lon="6.07868">
        <ele>1180.1999511719</ele>
        <time>2014-05-25T10:12:00.000Z</time>
      </trkpt>
      <trkpt lat="45.73753" lon="6.07859">
        <ele>1181</ele>
        <time>2014-05-25T10:12:04.000Z</time>
      </trkpt>
      <trkpt lat="45.73755" lon="6.07847">
        <ele>1181.5999755859</ele>
        <time>2014-05-25T10:12:09.000Z</time>
      </trkpt>
      <trkpt lat="45.73758" lon="6.07823">
        <ele>1182.4000244141</ele>
        <time>2014-05-25T10:12:14.000Z</time>
      </trkpt>
      <trkpt lat="45.73761" lon="6.07804">
        <ele>1183.1999511719</ele>
        <time>2014-05-25T10:12:18.000Z</time>
      </trkpt>
      <trkpt lat="45.73763" lon="6.07793">
        <ele>1184.1999511719</ele>
        <time>2014-05-25T10:12:23.000Z</time>
      </trkpt>
      <trkpt lat="45.73768" lon="6.07793">
        <ele>1185.1999511719</ele>
        <time>2014-05-25T10:12:27.000Z</time>
      </trkpt>
      <trkpt lat="45.7377" lon="6.07787">
        <ele>1185.8000488281</ele>
        <time>2014-05-25T10:12:33.000Z</time>
      </trkpt>
      <trkpt lat="45.73771" lon="6.07781">
        <ele>1186.1999511719</ele>
        <time>2014-05-25T10:12:39.000Z</time>
      </trkpt>
      <trkpt lat="45.73773" lon="6.07773">
        <ele>1186.5999755859</ele>
        <time>2014-05-25T10:12:43.000Z</time>
      </trkpt>
      <trkpt lat="45.73776" lon="6.07763">
        <ele>1187.4000244141</ele>
        <time>2014-05-25T10:12:48.000Z</time>
      </trkpt>
      <trkpt lat="45.73777" lon="6.07747">
        <ele>1187.4000244141</ele>
        <time>2014-05-25T10:12:52.000Z</time>
      </trkpt>
      <trkpt lat="45.73778" lon="6.07742">
        <ele>1187.5999755859</ele>
        <time>2014-05-25T10:12:53.000Z</time>
      </trkpt>
      <trkpt lat="45.73779" lon="6.07725">
        <ele>1187.8000488281</ele>
        <time>2014-05-25T10:12:58.000Z</time>
      </trkpt>
      <trkpt lat="45.73779" lon="6.07718">
        <ele>1187.4000244141</ele>
        <time>2014-05-25T10:13:02.000Z</time>
      </trkpt>
      <trkpt lat="45.73784" lon="6.077">
        <ele>1187.5999755859</ele>
        <time>2014-05-25T10:13:07.000Z</time>
      </trkpt>
      <trkpt lat="45.73788" lon="6.07692">
        <ele>1188.5999755859</ele>
        <time>2014-05-25T10:13:10.000Z</time>
      </trkpt>
      <trkpt lat="45.73791" lon="6.07686">
        <ele>1189.1999511719</ele>
        <time>2014-05-25T10:13:12.000Z</time>
      </trkpt>
      <trkpt lat="45.73794" lon="6.07666">
        <ele>1189.8000488281</ele>
        <time>2014-05-25T10:13:18.000Z</time>
      </trkpt>
      <trkpt lat="45.73797" lon="6.07647">
        <ele>1190.1999511719</ele>
        <time>2014-05-25T10:13:22.000Z</time>
      </trkpt>
      <trkpt lat="45.73801" lon="6.07632">
        <ele>1190.8000488281</ele>
        <time>2014-05-25T10:13:26.000Z</time>
      </trkpt>
      <trkpt lat="45.73804" lon="6.07612">
        <ele>1190.8000488281</ele>
        <time>2014-05-25T10:13:31.000Z</time>
      </trkpt>
      <trkpt lat="45.73809" lon="6.07595">
        <ele>1191.4000244141</ele>
        <time>2014-05-25T10:13:35.000Z</time>
      </trkpt>
      <trkpt lat="45.73812" lon="6.07589">
        <ele>1191.8000488281</ele>
        <time>2014-05-25T10:13:37.000Z</time>
      </trkpt>
      <trkpt lat="45.73815" lon="6.07574">
        <ele>1192.1999511719</ele>
        <time>2014-05-25T10:13:41.000Z</time>
      </trkpt>
      <trkpt lat="45.73819" lon="6.07558">
        <ele>1193.1999511719</ele>
        <time>2014-05-25T10:13:46.000Z</time>
      </trkpt>
      <trkpt lat="45.73823" lon="6.07544">
        <ele>1194.1999511719</ele>
        <time>2014-05-25T10:13:51.000Z</time>
      </trkpt>
      <trkpt lat="45.73826" lon="6.07535">
        <ele>1194.8000488281</ele>
        <time>2014-05-25T10:13:54.000Z</time>
      </trkpt>
      <trkpt lat="45.73829" lon="6.0751">
        <ele>1195</ele>
        <time>2014-05-25T10:14:00.000Z</time>
      </trkpt>
      <trkpt lat="45.73832" lon="6.07494">
        <ele>1195.1999511719</ele>
        <time>2014-05-25T10:14:05.000Z</time>
      </trkpt>
      <trkpt lat="45.73831" lon="6.07486">
        <ele>1194.5999755859</ele>
        <time>2014-05-25T10:14:08.000Z</time>
      </trkpt>
      <trkpt lat="45.73829" lon="6.0748">
        <ele>1193.8000488281</ele>
        <time>2014-05-25T10:14:15.000Z</time>
      </trkpt>
      <trkpt lat="45.7383" lon="6.07476">
        <ele>1193.8000488281</ele>
        <time>2014-05-25T10:14:19.000Z</time>
      </trkpt>
      <trkpt lat="45.73832" lon="6.07467">
        <ele>1194</ele>
        <time>2014-05-25T10:14:24.000Z</time>
      </trkpt>
      <trkpt lat="45.73833" lon="6.07461">
        <ele>1194.1999511719</ele>
        <time>2014-05-25T10:14:27.000Z</time>
      </trkpt>
      <trkpt lat="45.73836" lon="6.07456">
        <ele>1195</ele>
        <time>2014-05-25T10:14:33.000Z</time>
      </trkpt>
      <trkpt lat="45.73838" lon="6.07451">
        <ele>1195.4000244141</ele>
        <time>2014-05-25T10:14:37.000Z</time>
      </trkpt>
      <trkpt lat="45.73842" lon="6.07451">
        <ele>1196.4000244141</ele>
        <time>2014-05-25T10:14:42.000Z</time>
      </trkpt>
      <trkpt lat="45.73845" lon="6.07449">
        <ele>1197.1999511719</ele>
        <time>2014-05-25T10:14:46.000Z</time>
      </trkpt>
      <trkpt lat="45.73847" lon="6.07445">
        <ele>1197.5999755859</ele>
        <time>2014-05-25T10:14:51.000Z</time>
      </trkpt>
      <trkpt lat="45.7385" lon="6.07439">
        <ele>1198.1999511719</ele>
        <time>2014-05-25T10:14:54.000Z</time>
      </trkpt>
      <trkpt lat="45.73855" lon="6.07435">
        <ele>1199.4000244141</ele>
        <time>2014-05-25T10:14:59.000Z</time>
      </trkpt>
      <trkpt lat="45.73859" lon="6.0743">
        <ele>1200.1999511719</ele>
        <time>2014-05-25T10:15:03.000Z</time>
      </trkpt>
      <trkpt lat="45.7386" lon="6.07429">
        <ele>1200.4000244141</ele>
        <time>2014-05-25T10:15:04.000Z</time>
      </trkpt>
      <trkpt lat="45.73866" lon="6.07424">
        <ele>1201.8000488281</ele>
        <time>2014-05-25T10:15:11.000Z</time>
      </trkpt>
      <trkpt lat="45.73867" lon="6.07423">
        <ele>1202</ele>
        <time>2014-05-25T10:15:12.000Z</time>
      </trkpt>
      <trkpt lat="45.73872" lon="6.0742">
        <ele>1203</ele>
        <time>2014-05-25T10:15:18.000Z</time>
      </trkpt>
      <trkpt lat="45.73876" lon="6.07403">
        <ele>1203.5999755859</ele>
        <time>2014-05-25T10:15:23.000Z</time>
      </trkpt>
      <trkpt lat="45.73876" lon="6.07401">
        <ele>1203.4000244141</ele>
        <time>2014-05-25T10:15:24.000Z</time>
      </trkpt>
      <trkpt lat="45.73874" lon="6.07388">
        <ele>1202.4000244141</ele>
        <time>2014-05-25T10:15:28.000Z</time>
      </trkpt>
      <trkpt lat="45.73873" lon="6.07376">
        <ele>1201.8000488281</ele>
        <time>2014-05-25T10:15:34.000Z</time>
      </trkpt>
      <trkpt lat="45.73875" lon="6.07374">
        <ele>1202.1999511719</ele>
        <time>2014-05-25T10:15:37.000Z</time>
      </trkpt>
      <trkpt lat="45.73869" lon="6.07367">
        <ele>1200.1999511719</ele>
        <time>2014-05-25T10:15:42.000Z</time>
      </trkpt>
      <trkpt lat="45.73866" lon="6.07362">
        <ele>1199.4000244141</ele>
        <time>2014-05-25T10:15:46.000Z</time>
      </trkpt>
      <trkpt lat="45.73864" lon="6.07359">
        <ele>1198.5999755859</ele>
        <time>2014-05-25T10:15:48.000Z</time>
      </trkpt>
      <trkpt lat="45.73863" lon="6.07355">
        <ele>1198.1999511719</ele>
        <time>2014-05-25T10:15:51.000Z</time>
      </trkpt>
      <trkpt lat="45.73864" lon="6.07348">
        <ele>1198</ele>
        <time>2014-05-25T10:15:55.000Z</time>
      </trkpt>
      <trkpt lat="45.73868" lon="6.07343">
        <ele>1198.5999755859</ele>
        <time>2014-05-25T10:16:02.000Z</time>
      </trkpt>
      <trkpt lat="45.73868" lon="6.07341">
        <ele>1198.4000244141</ele>
        <time>2014-05-25T10:16:03.000Z</time>
      </trkpt>
      <trkpt lat="45.73871" lon="6.07333">
        <ele>1198.8000488281</ele>
        <time>2014-05-25T10:16:09.000Z</time>
      </trkpt>
      <trkpt lat="45.73872" lon="6.07332">
        <ele>1198.8000488281</ele>
        <time>2014-05-25T10:16:10.000Z</time>
      </trkpt>
      <trkpt lat="45.73874" lon="6.07327">
        <ele>1199</ele>
        <time>2014-05-25T10:16:16.000Z</time>
      </trkpt>
      <trkpt lat="45.73878" lon="6.07322">
        <ele>1199.5999755859</ele>
        <time>2014-05-25T10:16:22.000Z</time>
      </trkpt>
      <trkpt lat="45.73881" lon="6.07319">
        <ele>1200.1999511719</ele>
        <time>2014-05-25T10:16:26.000Z</time>
      </trkpt>
      <trkpt lat="45.73885" lon="6.07316">
        <ele>1200.8000488281</ele>
        <time>2014-05-25T10:16:31.000Z</time>
      </trkpt>
      <trkpt lat="45.73887" lon="6.07312">
        <ele>1201</ele>
        <time>2014-05-25T10:16:36.000Z</time>
      </trkpt>
      <trkpt lat="45.7389" lon="6.07304">
        <ele>1201.1999511719</ele>
        <time>2014-05-25T10:16:43.000Z</time>
      </trkpt>
      <trkpt lat="45.73891" lon="6.07301">
        <ele>1201.1999511719</ele>
        <time>2014-05-25T10:16:48.000Z</time>
      </trkpt>
      <trkpt lat="45.7389" lon="6.07299">
        <ele>1201</ele>
        <time>2014-05-25T10:16:54.000Z</time>
      </trkpt>
      <trkpt lat="45.7389" lon="6.07298">
        <ele>1200.8000488281</ele>
        <time>2014-05-25T10:17:10.000Z</time>
      </trkpt>
      <trkpt lat="45.73893" lon="6.07299">
        <ele>1201.4000244141</ele>
        <time>2014-05-25T10:17:18.000Z</time>
      </trkpt>
      <trkpt lat="45.73897" lon="6.07297">
        <ele>1202</ele>
        <time>2014-05-25T10:17:31.000Z</time>
      </trkpt>
      <trkpt lat="45.73899" lon="6.07299">
        <ele>1202.1999511719</ele>
        <time>2014-05-25T10:17:35.000Z</time>
      </trkpt>
      <trkpt lat="45.73904" lon="6.07298">
        <ele>1203</ele>
        <time>2014-05-25T10:17:42.000Z</time>
      </trkpt>
      <trkpt lat="45.73908" lon="6.07297">
        <ele>1203.5999755859</ele>
        <time>2014-05-25T10:17:47.000Z</time>
      </trkpt>
      <trkpt lat="45.7391" lon="6.0729">
        <ele>1203.5999755859</ele>
        <time>2014-05-25T10:17:52.000Z</time>
      </trkpt>
      <trkpt lat="45.73912" lon="6.07287">
        <ele>1203.5999755859</ele>
        <time>2014-05-25T10:17:56.000Z</time>
      </trkpt>
      <trkpt lat="45.73914" lon="6.07283">
        <ele>1203.8000488281</ele>
        <time>2014-05-25T10:18:00.000Z</time>
      </trkpt>
      <trkpt lat="45.73912" lon="6.07278">
        <ele>1203.4000244141</ele>
        <time>2014-05-25T10:18:05.000Z</time>
      </trkpt>
      <trkpt lat="45.73909" lon="6.07272">
        <ele>1202.5999755859</ele>
        <time>2014-05-25T10:18:09.000Z</time>
      </trkpt>
      <trkpt lat="45.73909" lon="6.0727">
        <ele>1202.5999755859</ele>
        <time>2014-05-25T10:18:10.000Z</time>
      </trkpt>
      <trkpt lat="45.73911" lon="6.07265">
        <ele>1202.5999755859</ele>
        <time>2014-05-25T10:18:15.000Z</time>
      </trkpt>
      <trkpt lat="45.73914" lon="6.07259">
        <ele>1202.8000488281</ele>
        <time>2014-05-25T10:18:19.000Z</time>
      </trkpt>
      <trkpt lat="45.73915" lon="6.07254">
        <ele>1202.8000488281</ele>
        <time>2014-05-25T10:18:22.000Z</time>
      </trkpt>
      <trkpt lat="45.73916" lon="6.07252">
        <ele>1202.8000488281</ele>
        <time>2014-05-25T10:18:24.000Z</time>
      </trkpt>
      <trkpt lat="45.73918" lon="6.07251">
        <ele>1203</ele>
        <time>2014-05-25T10:18:29.000Z</time>
      </trkpt>
      <trkpt lat="45.73921" lon="6.0725">
        <ele>1203.1999511719</ele>
        <time>2014-05-25T10:18:31.000Z</time>
      </trkpt>
      <trkpt lat="45.73923" lon="6.07244">
        <ele>1203.4000244141</ele>
        <time>2014-05-25T10:18:36.000Z</time>
      </trkpt>
      <trkpt lat="45.73925" lon="6.07241">
        <ele>1203.5999755859</ele>
        <time>2014-05-25T10:18:43.000Z</time>
      </trkpt>
      <trkpt lat="45.73926" lon="6.07239">
        <ele>1203.5999755859</ele>
        <time>2014-05-25T10:18:51.000Z</time>
      </trkpt>
      <trkpt lat="45.73927" lon="6.07234">
        <ele>1203.5999755859</ele>
        <time>2014-05-25T10:18:56.000Z</time>
      </trkpt>
      <trkpt lat="45.73928" lon="6.07229">
        <ele>1203.5999755859</ele>
        <time>2014-05-25T10:19:00.000Z</time>
      </trkpt>
      <trkpt lat="45.73929" lon="6.07225">
        <ele>1203.4000244141</ele>
        <time>2014-05-25T10:19:04.000Z</time>
      </trkpt>
      <trkpt lat="45.73927" lon="6.07221">
        <ele>1202.8000488281</ele>
        <time>2014-05-25T10:19:10.000Z</time>
      </trkpt>
      <trkpt lat="45.73925" lon="6.07216">
        <ele>1202</ele>
        <time>2014-05-25T10:19:16.000Z</time>
      </trkpt>
      <trkpt lat="45.73924" lon="6.07215">
        <ele>1201.8000488281</ele>
        <time>2014-05-25T10:19:17.000Z</time>
      </trkpt>
      <trkpt lat="45.73923" lon="6.0721">
        <ele>1201.1999511719</ele>
        <time>2014-05-25T10:19:20.000Z</time>
      </trkpt>
      <trkpt lat="45.73925" lon="6.07206">
        <ele>1201.1999511719</ele>
        <time>2014-05-25T10:19:25.000Z</time>
      </trkpt>
      <trkpt lat="45.73926" lon="6.07202">
        <ele>1201</ele>
        <time>2014-05-25T10:19:29.000Z</time>
      </trkpt>
      <trkpt lat="45.73928" lon="6.07197">
        <ele>1200.8000488281</ele>
        <time>2014-05-25T10:19:32.000Z</time>
      </trkpt>
      <trkpt lat="45.73929" lon="6.07193">
        <ele>1200.8000488281</ele>
        <time>2014-05-25T10:19:39.000Z</time>
      </trkpt>
      <trkpt lat="45.73928" lon="6.07191">
        <ele>1200.4000244141</ele>
        <time>2014-05-25T10:20:03.000Z</time>
      </trkpt>
      <trkpt lat="45.7393" lon="6.07189">
        <ele>1200.4000244141</ele>
        <time>2014-05-25T10:20:07.000Z</time>
      </trkpt>
      <trkpt lat="45.73933" lon="6.07175">
        <ele>1199.4000244141</ele>
        <time>2014-05-25T10:20:13.000Z</time>
      </trkpt>
      <trkpt lat="45.73937" lon="6.07162">
        <ele>1198.1999511719</ele>
        <time>2014-05-25T10:20:17.000Z</time>
      </trkpt>
      <trkpt lat="45.73942" lon="6.0715">
        <ele>1197.4000244141</ele>
        <time>2014-05-25T10:20:22.000Z</time>
      </trkpt>
      <trkpt lat="45.73946" lon="6.07148">
        <ele>1197.8000488281</ele>
        <time>2014-05-25T10:20:29.000Z</time>
      </trkpt>
      <trkpt lat="45.73946" lon="6.07147">
        <ele>1197.4000244141</ele>
        <time>2014-05-25T10:20:34.000Z</time>
      </trkpt>
      <trkpt lat="45.73943" lon="6.07137">
        <ele>1196</ele>
        <time>2014-05-25T10:20:38.000Z</time>
      </trkpt>
      <trkpt lat="45.73943" lon="6.0713">
        <ele>1195</ele>
        <time>2014-05-25T10:20:42.000Z</time>
      </trkpt>
      <trkpt lat="45.73945" lon="6.0712">
        <ele>1194.1999511719</ele>
        <time>2014-05-25T10:20:48.000Z</time>
      </trkpt>
      <trkpt lat="45.73945" lon="6.07113">
        <ele>1193.1999511719</ele>
        <time>2014-05-25T10:20:52.000Z</time>
      </trkpt>
      <trkpt lat="45.73944" lon="6.07109">
        <ele>1192.5999755859</ele>
        <time>2014-05-25T10:20:55.000Z</time>
      </trkpt>
      <trkpt lat="45.73945" lon="6.07102">
        <ele>1191.5999755859</ele>
        <time>2014-05-25T10:20:59.000Z</time>
      </trkpt>
      <trkpt lat="45.7395" lon="6.071">
        <ele>1191.8000488281</ele>
        <time>2014-05-25T10:21:03.000Z</time>
      </trkpt>
      <trkpt lat="45.73954" lon="6.07097">
        <ele>1191.8000488281</ele>
        <time>2014-05-25T10:21:08.000Z</time>
      </trkpt>
      <trkpt lat="45.73955" lon="6.07096">
        <ele>1191.8000488281</ele>
        <time>2014-05-25T10:21:09.000Z</time>
      </trkpt>
      <trkpt lat="45.7396" lon="6.07091">
        <ele>1191.4000244141</ele>
        <time>2014-05-25T10:21:14.000Z</time>
      </trkpt>
      <trkpt lat="45.73959" lon="6.07083">
        <ele>1190.1999511719</ele>
        <time>2014-05-25T10:21:22.000Z</time>
      </trkpt>
      <trkpt lat="45.73957" lon="6.07078">
        <ele>1189.4000244141</ele>
        <time>2014-05-25T10:21:26.000Z</time>
      </trkpt>
      <trkpt lat="45.73957" lon="6.07076">
        <ele>1189</ele>
        <time>2014-05-25T10:21:34.000Z</time>
      </trkpt>
      <trkpt lat="45.7396" lon="6.07071">
        <ele>1188.5999755859</ele>
        <time>2014-05-25T10:21:41.000Z</time>
      </trkpt>
      <trkpt lat="45.7396" lon="6.07067">
        <ele>1188</ele>
        <time>2014-05-25T10:21:47.000Z</time>
      </trkpt>
      <trkpt lat="45.73964" lon="6.07068">
        <ele>1188.5999755859</ele>
        <time>2014-05-25T10:21:57.000Z</time>
      </trkpt>
      <trkpt lat="45.73968" lon="6.07064">
        <ele>1188.4000244141</ele>
        <time>2014-05-25T10:22:01.000Z</time>
      </trkpt>
      <trkpt lat="45.73973" lon="6.07062">
        <ele>1188.4000244141</ele>
        <time>2014-05-25T10:22:05.000Z</time>
      </trkpt>
      <trkpt lat="45.7398" lon="6.07053">
        <ele>1187.4000244141</ele>
        <time>2014-05-25T10:22:10.000Z</time>
      </trkpt>
      <trkpt lat="45.73985" lon="6.07045">
        <ele>1186.4000244141</ele>
        <time>2014-05-25T10:22:16.000Z</time>
      </trkpt>
      <trkpt lat="45.73984" lon="6.07036">
        <ele>1185.1999511719</ele>
        <time>2014-05-25T10:22:20.000Z</time>
      </trkpt>
      <trkpt lat="45.73986" lon="6.07036">
        <ele>1185.1999511719</ele>
        <time>2014-05-25T10:22:22.000Z</time>
      </trkpt>
      <trkpt lat="45.73988" lon="6.07035">
        <ele>1185</ele>
        <time>2014-05-25T10:22:24.000Z</time>
      </trkpt>
      <trkpt lat="45.73989" lon="6.07031">
        <ele>1184.5999755859</ele>
        <time>2014-05-25T10:22:29.000Z</time>
      </trkpt>
      <trkpt lat="45.73992" lon="6.07027">
        <ele>1184</ele>
        <time>2014-05-25T10:22:32.000Z</time>
      </trkpt>
      <trkpt lat="45.73992" lon="6.07027">
        <ele>1184.1999511719</ele>
        <time>2014-05-25T10:22:40.000Z</time>
      </trkpt>
      <trkpt lat="45.73992" lon="6.07027">
        <ele>1184</ele>
        <time>2014-05-25T10:22:42.000Z</time>
      </trkpt>
      <trkpt lat="45.7399" lon="6.07017">
        <ele>1182.5999755859</ele>
        <time>2014-05-25T10:22:48.000Z</time>
      </trkpt>
      <trkpt lat="45.7399" lon="6.07014">
        <ele>1182.1999511719</ele>
        <time>2014-05-25T10:22:52.000Z</time>
      </trkpt>
      <trkpt lat="45.73992" lon="6.07013">
        <ele>1182.1999511719</ele>
        <time>2014-05-25T10:22:57.000Z</time>
      </trkpt>
      <trkpt lat="45.73995" lon="6.07011">
        <ele>1181.8000488281</ele>
        <time>2014-05-25T10:23:01.000Z</time>
      </trkpt>
      <trkpt lat="45.73999" lon="6.07009">
        <ele>1181.5999755859</ele>
        <time>2014-05-25T10:23:04.000Z</time>
      </trkpt>
      <trkpt lat="45.74003" lon="6.07006">
        <ele>1181.4000244141</ele>
        <time>2014-05-25T10:23:10.000Z</time>
      </trkpt>
      <trkpt lat="45.74003" lon="6.07007">
        <ele>1181.5999755859</ele>
        <time>2014-05-25T10:23:15.000Z</time>
      </trkpt>
      <trkpt lat="45.74001" lon="6.07003">
        <ele>1181</ele>
        <time>2014-05-25T10:23:22.000Z</time>
      </trkpt>
      <trkpt lat="45.74" lon="6.07002">
        <ele>1180.8000488281</ele>
        <time>2014-05-25T10:23:26.000Z</time>
      </trkpt>
      <trkpt lat="45.74005" lon="6.07005">
        <ele>1181.1999511719</ele>
        <time>2014-05-25T10:23:31.000Z</time>
      </trkpt>
      <trkpt lat="45.74004" lon="6.07">
        <ele>1180.4000244141</ele>
        <time>2014-05-25T10:23:40.000Z</time>
      </trkpt>
      <trkpt lat="45.74002" lon="6.06995">
        <ele>1179.5999755859</ele>
        <time>2014-05-25T10:23:52.000Z</time>
      </trkpt>
      <trkpt lat="45.73998" lon="6.06987">
        <ele>1178.1999511719</ele>
        <time>2014-05-25T10:24:06.000Z</time>
      </trkpt>
      <trkpt lat="45.73997" lon="6.06986">
        <ele>1178.1999511719</ele>
        <time>2014-05-25T10:24:07.000Z</time>
      </trkpt>
      <trkpt lat="45.73979" lon="6.06985">
        <ele>1177.5999755859</ele>
        <time>2014-05-25T10:24:13.000Z</time>
      </trkpt>
      <trkpt lat="45.73976" lon="6.06985">
        <ele>1177.5999755859</ele>
        <time>2014-05-25T10:24:14.000Z</time>
      </trkpt>
      <trkpt lat="45.73964" lon="6.06987">
        <ele>1177.1999511719</ele>
        <time>2014-05-25T10:24:20.000Z</time>
      </trkpt>
      <trkpt lat="45.73954" lon="6.06978">
        <ele>1175.4000244141</ele>
        <time>2014-05-25T10:24:24.000Z</time>
      </trkpt>
      <trkpt lat="45.73947" lon="6.0696">
        <ele>1172.5999755859</ele>
        <time>2014-05-25T10:24:29.000Z</time>
      </trkpt>
      <trkpt lat="45.73945" lon="6.06958">
        <ele>1172.1999511719</ele>
        <time>2014-05-25T10:24:30.000Z</time>
      </trkpt>
      <trkpt lat="45.73922" lon="6.06939">
        <ele>1168.5999755859</ele>
        <time>2014-05-25T10:24:36.000Z</time>
      </trkpt>
      <trkpt lat="45.73914" lon="6.06933">
        <ele>1167.4000244141</ele>
        <time>2014-05-25T10:24:40.000Z</time>
      </trkpt>
      <trkpt lat="45.73913" lon="6.06929">
        <ele>1166.8000488281</ele>
        <time>2014-05-25T10:24:41.000Z</time>
      </trkpt>
      <trkpt lat="45.73907" lon="6.06906">
        <ele>1163.4000244141</ele>
        <time>2014-05-25T10:24:46.000Z</time>
      </trkpt>
      <trkpt lat="45.73904" lon="6.06886">
        <ele>1160</ele>
        <time>2014-05-25T10:24:50.000Z</time>
      </trkpt>
      <trkpt lat="45.73907" lon="6.06867">
        <ele>1156.8000488281</ele>
        <time>2014-05-25T10:24:56.000Z</time>
      </trkpt>
      <trkpt lat="45.73906" lon="6.06847">
        <ele>1153.5999755859</ele>
        <time>2014-05-25T10:25:01.000Z</time>
      </trkpt>
      <trkpt lat="45.73904" lon="6.06838">
        <ele>1152</ele>
        <time>2014-05-25T10:25:07.000Z</time>
      </trkpt>
      <trkpt lat="45.73902" lon="6.06825">
        <ele>1149.8000488281</ele>
        <time>2014-05-25T10:25:12.000Z</time>
      </trkpt>
      <trkpt lat="45.73898" lon="6.06808">
        <ele>1147.1999511719</ele>
        <time>2014-05-25T10:25:16.000Z</time>
      </trkpt>
      <trkpt lat="45.73891" lon="6.06789">
        <ele>1143.8000488281</ele>
        <time>2014-05-25T10:25:21.000Z</time>
      </trkpt>
      <trkpt lat="45.73883" lon="6.0677">
        <ele>1140.5999755859</ele>
        <time>2014-05-25T10:25:26.000Z</time>
      </trkpt>
      <trkpt lat="45.73873" lon="6.06743">
        <ele>1135.8000488281</ele>
        <time>2014-05-25T10:25:31.000Z</time>
      </trkpt>
      <trkpt lat="45.73869" lon="6.06722">
        <ele>1132.1999511719</ele>
        <time>2014-05-25T10:25:35.000Z</time>
      </trkpt>
      <trkpt lat="45.7387" lon="6.06721">
        <ele>1132.1999511719</ele>
        <time>2014-05-25T10:25:38.000Z</time>
      </trkpt>
      <trkpt lat="45.73871" lon="6.06711">
        <ele>1130</ele>
        <time>2014-05-25T10:25:48.000Z</time>
      </trkpt>
      <trkpt lat="45.7387" lon="6.06695">
        <ele>1127</ele>
        <time>2014-05-25T10:25:53.000Z</time>
      </trkpt>
      <trkpt lat="45.73868" lon="6.0669">
        <ele>1125.8000488281</ele>
        <time>2014-05-25T10:25:55.000Z</time>
      </trkpt>
      <trkpt lat="45.73857" lon="6.06677">
        <ele>1122.8000488281</ele>
        <time>2014-05-25T10:26:00.000Z</time>
      </trkpt>
      <trkpt lat="45.73849" lon="6.06654">
        <ele>1117.8000488281</ele>
        <time>2014-05-25T10:26:06.000Z</time>
      </trkpt>
      <trkpt lat="45.73849" lon="6.06643">
        <ele>1115.8000488281</ele>
        <time>2014-05-25T10:26:09.000Z</time>
      </trkpt>
      <trkpt lat="45.73847" lon="6.0663">
        <ele>1112.5999755859</ele>
        <time>2014-05-25T10:26:14.000Z</time>
      </trkpt>
      <trkpt lat="45.73846" lon="6.06625">
        <ele>1111.4000244141</ele>
        <time>2014-05-25T10:26:18.000Z</time>
      </trkpt>
      <trkpt lat="45.73843" lon="6.06622">
        <ele>1110.5999755859</ele>
        <time>2014-05-25T10:26:23.000Z</time>
      </trkpt>
      <trkpt lat="45.73839" lon="6.06614">
        <ele>1108.5999755859</ele>
        <time>2014-05-25T10:26:28.000Z</time>
      </trkpt>
      <trkpt lat="45.73836" lon="6.06606">
        <ele>1106.4000244141</ele>
        <time>2014-05-25T10:26:37.000Z</time>
      </trkpt>
      <trkpt lat="45.73838" lon="6.06599">
        <ele>1105.1999511719</ele>
        <time>2014-05-25T10:26:45.000Z</time>
      </trkpt>
      <trkpt lat="45.73852" lon="6.06586">
        <ele>1102.5999755859</ele>
        <time>2014-05-25T10:26:50.000Z</time>
      </trkpt>
      <trkpt lat="45.73859" lon="6.06583">
        <ele>1102.1999511719</ele>
        <time>2014-05-25T10:26:53.000Z</time>
      </trkpt>
      <trkpt lat="45.73863" lon="6.06577">
        <ele>1101</ele>
        <time>2014-05-25T10:27:02.000Z</time>
      </trkpt>
      <trkpt lat="45.73862" lon="6.06581">
        <ele>1102</ele>
        <time>2014-05-25T10:27:10.000Z</time>
      </trkpt>
      <trkpt lat="45.73862" lon="6.06587">
        <ele>1103.1999511719</ele>
        <time>2014-05-25T10:27:25.000Z</time>
      </trkpt>
      <trkpt lat="45.73861" lon="6.06587">
        <ele>1103.4000244141</ele>
        <time>2014-05-25T10:27:26.000Z</time>
      </trkpt>
      <trkpt lat="45.73856" lon="6.06587">
        <ele>1103.1999511719</ele>
        <time>2014-05-25T10:27:31.000Z</time>
      </trkpt>
      <trkpt lat="45.73854" lon="6.06581">
        <ele>1101.5999755859</ele>
        <time>2014-05-25T10:27:47.000Z</time>
      </trkpt>
      <trkpt lat="45.73855" lon="6.06574">
        <ele>1100</ele>
        <time>2014-05-25T10:27:49.000Z</time>
      </trkpt>
      <trkpt lat="45.73851" lon="6.06558">
        <ele>1096</ele>
        <time>2014-05-25T10:27:55.000Z</time>
      </trkpt>
      <trkpt lat="45.7385" lon="6.06557">
        <ele>1095.4000244141</ele>
        <time>2014-05-25T10:27:56.000Z</time>
      </trkpt>
      <trkpt lat="45.7385" lon="6.06556">
        <ele>1095.1999511719</ele>
        <time>2014-05-25T10:28:02.000Z</time>
      </trkpt>
      <trkpt lat="45.73853" lon="6.06568">
        <ele>1098.4000244141</ele>
        <time>2014-05-25T10:28:07.000Z</time>
      </trkpt>
      <trkpt lat="45.73856" lon="6.06573">
        <ele>1099.5999755859</ele>
        <time>2014-05-25T10:28:09.000Z</time>
      </trkpt>
      <trkpt lat="45.73857" lon="6.06582">
        <ele>1102</ele>
        <time>2014-05-25T10:28:14.000Z</time>
      </trkpt>
      <trkpt lat="45.73857" lon="6.06588">
        <ele>1103.4000244141</ele>
        <time>2014-05-25T10:28:18.000Z</time>
      </trkpt>
      <trkpt lat="45.73859" lon="6.06595">
        <ele>1105.1999511719</ele>
        <time>2014-05-25T10:28:23.000Z</time>
      </trkpt>
      <trkpt lat="45.73869" lon="6.06606">
        <ele>1108.4000244141</ele>
        <time>2014-05-25T10:28:30.000Z</time>
      </trkpt>
      <trkpt lat="45.73877" lon="6.06611">
        <ele>1110</ele>
        <time>2014-05-25T10:28:34.000Z</time>
      </trkpt>
      <trkpt lat="45.73881" lon="6.06616">
        <ele>1111.4000244141</ele>
        <time>2014-05-25T10:28:36.000Z</time>
      </trkpt>
      <trkpt lat="45.73893" lon="6.06627">
        <ele>1114.5999755859</ele>
        <time>2014-05-25T10:28:42.000Z</time>
      </trkpt>
      <trkpt lat="45.739" lon="6.06633">
        <ele>1116.1999511719</ele>
        <time>2014-05-25T10:28:47.000Z</time>
      </trkpt>
      <trkpt lat="45.7391" lon="6.06639">
        <ele>1118.1999511719</ele>
        <time>2014-05-25T10:28:52.000Z</time>
      </trkpt>
      <trkpt lat="45.73912" lon="6.0664">
        <ele>1118.4000244141</ele>
        <time>2014-05-25T10:28:53.000Z</time>
      </trkpt>
      <trkpt lat="45.7392" lon="6.06641">
        <ele>1119.1999511719</ele>
        <time>2014-05-25T10:28:57.000Z</time>
      </trkpt>
      <trkpt lat="45.73923" lon="6.06639">
        <ele>1118.5999755859</ele>
        <time>2014-05-25T10:29:00.000Z</time>
      </trkpt>
      <trkpt lat="45.73933" lon="6.06648">
        <ele>1121.1999511719</ele>
        <time>2014-05-25T10:29:06.000Z</time>
      </trkpt>
      <trkpt lat="45.73934" lon="6.06649">
        <ele>1121.4000244141</ele>
        <time>2014-05-25T10:29:07.000Z</time>
      </trkpt>
      <trkpt lat="45.73941" lon="6.06651">
        <ele>1122</ele>
        <time>2014-05-25T10:29:13.000Z</time>
      </trkpt>
      <trkpt lat="45.73943" lon="6.06653">
        <ele>1122.5999755859</ele>
        <time>2014-05-25T10:29:17.000Z</time>
      </trkpt>
      <trkpt lat="45.73949" lon="6.06658">
        <ele>1123.5999755859</ele>
        <time>2014-05-25T10:29:24.000Z</time>
      </trkpt>
      <trkpt lat="45.73953" lon="6.06659">
        <ele>1124.1999511719</ele>
        <time>2014-05-25T10:29:30.000Z</time>
      </trkpt>
      <trkpt lat="45.73959" lon="6.06661">
        <ele>1124.8000488281</ele>
        <time>2014-05-25T10:29:36.000Z</time>
      </trkpt>
      <trkpt lat="45.73965" lon="6.06662">
        <ele>1125.1999511719</ele>
        <time>2014-05-25T10:29:40.000Z</time>
      </trkpt>
      <trkpt lat="45.73966" lon="6.06663">
        <ele>1125.4000244141</ele>
        <time>2014-05-25T10:29:42.000Z</time>
      </trkpt>
      <trkpt lat="45.73968" lon="6.06662">
        <ele>1125.4000244141</ele>
        <time>2014-05-25T10:29:44.000Z</time>
      </trkpt>
      <trkpt lat="45.7397" lon="6.0666">
        <ele>1125</ele>
        <time>2014-05-25T10:29:47.000Z</time>
      </trkpt>
      <trkpt lat="45.73976" lon="6.06654">
        <ele>1124.5999755859</ele>
        <time>2014-05-25T10:29:52.000Z</time>
      </trkpt>
      <trkpt lat="45.73979" lon="6.06651">
        <ele>1124.4000244141</ele>
        <time>2014-05-25T10:29:56.000Z</time>
      </trkpt>
      <trkpt lat="45.73981" lon="6.06651">
        <ele>1124.8000488281</ele>
        <time>2014-05-25T10:29:59.000Z</time>
      </trkpt>
      <trkpt lat="45.73991" lon="6.06655">
        <ele>1126.5999755859</ele>
        <time>2014-05-25T10:30:03.000Z</time>
      </trkpt>
      <trkpt lat="45.73993" lon="6.06657">
        <ele>1127.1999511719</ele>
        <time>2014-05-25T10:30:06.000Z</time>
      </trkpt>
      <trkpt lat="45.73996" lon="6.06662">
        <ele>1128.4000244141</ele>
        <time>2014-05-25T10:30:11.000Z</time>
      </trkpt>
      <trkpt lat="45.73998" lon="6.06664">
        <ele>1129</ele>
        <time>2014-05-25T10:30:13.000Z</time>
      </trkpt>
      <trkpt lat="45.74009" lon="6.0666">
        <ele>1129.8000488281</ele>
        <time>2014-05-25T10:30:19.000Z</time>
      </trkpt>
      <trkpt lat="45.74012" lon="6.0666">
        <ele>1130</ele>
        <time>2014-05-25T10:30:25.000Z</time>
      </trkpt>
      <trkpt lat="45.74013" lon="6.0666">
        <ele>1130.4000244141</ele>
        <time>2014-05-25T10:30:31.000Z</time>
      </trkpt>
      <trkpt lat="45.74016" lon="6.0666">
        <ele>1130.8000488281</ele>
        <time>2014-05-25T10:30:41.000Z</time>
      </trkpt>
      <trkpt lat="45.7402" lon="6.06662">
        <ele>1131.4000244141</ele>
        <time>2014-05-25T10:30:47.000Z</time>
      </trkpt>
      <trkpt lat="45.74019" lon="6.06663">
        <ele>1131.5999755859</ele>
        <time>2014-05-25T10:30:49.000Z</time>
      </trkpt>
      <trkpt lat="45.74019" lon="6.06655">
        <ele>1130.4000244141</ele>
        <time>2014-05-25T10:30:56.000Z</time>
      </trkpt>
      <trkpt lat="45.74019" lon="6.06647">
        <ele>1129</ele>
        <time>2014-05-25T10:31:04.000Z</time>
      </trkpt>
      <trkpt lat="45.7402" lon="6.06643">
        <ele>1128.5999755859</ele>
        <time>2014-05-25T10:31:10.000Z</time>
      </trkpt>
      <trkpt lat="45.74022" lon="6.06644">
        <ele>1129</ele>
        <time>2014-05-25T10:31:15.000Z</time>
      </trkpt>
      <trkpt lat="45.74029" lon="6.06643">
        <ele>1129.8000488281</ele>
        <time>2014-05-25T10:31:20.000Z</time>
      </trkpt>
      <trkpt lat="45.74035" lon="6.06641">
        <ele>1130.1999511719</ele>
        <time>2014-05-25T10:31:23.000Z</time>
      </trkpt>
      <trkpt lat="45.74036" lon="6.06641">
        <ele>1130.4000244141</ele>
        <time>2014-05-25T10:31:29.000Z</time>
      </trkpt>
      <trkpt lat="45.74036" lon="6.0664">
        <ele>1130.1999511719</ele>
        <time>2014-05-25T10:31:33.000Z</time>
      </trkpt>
      <trkpt lat="45.7404" lon="6.06644">
        <ele>1131.4000244141</ele>
        <time>2014-05-25T10:31:37.000Z</time>
      </trkpt>
      <trkpt lat="45.74036" lon="6.06656">
        <ele>1132.5999755859</ele>
        <time>2014-05-25T10:31:44.000Z</time>
      </trkpt>
      <trkpt lat="45.74035" lon="6.06659">
        <ele>1133</ele>
        <time>2014-05-25T10:31:46.000Z</time>
      </trkpt>
      <trkpt lat="45.74038" lon="6.06663">
        <ele>1134.1999511719</ele>
        <time>2014-05-25T10:31:52.000Z</time>
      </trkpt>
      <trkpt lat="45.7404" lon="6.06668">
        <ele>1135</ele>
        <time>2014-05-25T10:31:58.000Z</time>
      </trkpt>
      <trkpt lat="45.74042" lon="6.06672">
        <ele>1135.8000488281</ele>
        <time>2014-05-25T10:32:02.000Z</time>
      </trkpt>
      <trkpt lat="45.74045" lon="6.06674">
        <ele>1136.5999755859</ele>
        <time>2014-05-25T10:32:07.000Z</time>
      </trkpt>
      <trkpt lat="45.74043" lon="6.06675">
        <ele>1136.5999755859</ele>
        <time>2014-05-25T10:32:11.000Z</time>
      </trkpt>
      <trkpt lat="45.74044" lon="6.06675">
        <ele>1136.5999755859</ele>
        <time>2014-05-25T10:32:14.000Z</time>
      </trkpt>
      <trkpt lat="45.74052" lon="6.06679">
        <ele>1138.4000244141</ele>
        <time>2014-05-25T10:32:20.000Z</time>
      </trkpt>
      <trkpt lat="45.74056" lon="6.0668">
        <ele>1139.4000244141</ele>
        <time>2014-05-25T10:32:25.000Z</time>
      </trkpt>
      <trkpt lat="45.7406" lon="6.06682">
        <ele>1140.4000244141</ele>
        <time>2014-05-25T10:32:30.000Z</time>
      </trkpt>
      <trkpt lat="45.74063" lon="6.06687">
        <ele>1141.8000488281</ele>
        <time>2014-05-25T10:32:35.000Z</time>
      </trkpt>
      <trkpt lat="45.74066" lon="6.06693">
        <ele>1143.4000244141</ele>
        <time>2014-05-25T10:32:47.000Z</time>
      </trkpt>
      <trkpt lat="45.74065" lon="6.06698">
        <ele>1144</ele>
        <time>2014-05-25T10:33:05.000Z</time>
      </trkpt>
      <trkpt lat="45.74059" lon="6.06696">
        <ele>1142.4000244141</ele>
        <time>2014-05-25T10:33:15.000Z</time>
      </trkpt>
      <trkpt lat="45.74055" lon="6.06678">
        <ele>1138.5999755859</ele>
        <time>2014-05-25T10:33:20.000Z</time>
      </trkpt>
      <trkpt lat="45.7405" lon="6.06669">
        <ele>1136.5999755859</ele>
        <time>2014-05-25T10:33:27.000Z</time>
      </trkpt>
      <trkpt lat="45.74046" lon="6.06665">
        <ele>1135.4000244141</ele>
        <time>2014-05-25T10:33:31.000Z</time>
      </trkpt>
      <trkpt lat="45.74043" lon="6.06663">
        <ele>1134.5999755859</ele>
        <time>2014-05-25T10:33:38.000Z</time>
      </trkpt>
      <trkpt lat="45.74042" lon="6.06663">
        <ele>1134.4000244141</ele>
        <time>2014-05-25T10:33:39.000Z</time>
      </trkpt>
      <trkpt lat="45.74033" lon="6.06659">
        <ele>1132.8000488281</ele>
        <time>2014-05-25T10:33:43.000Z</time>
      </trkpt>
      <trkpt lat="45.74027" lon="6.06661">
        <ele>1132.1999511719</ele>
        <time>2014-05-25T10:33:50.000Z</time>
      </trkpt>
      <trkpt lat="45.74024" lon="6.06661">
        <ele>1132</ele>
        <time>2014-05-25T10:33:53.000Z</time>
      </trkpt>
      <trkpt lat="45.74018" lon="6.0666">
        <ele>1131</ele>
        <time>2014-05-25T10:33:59.000Z</time>
      </trkpt>
      <trkpt lat="45.74016" lon="6.0666">
        <ele>1130.8000488281</ele>
        <time>2014-05-25T10:34:02.000Z</time>
      </trkpt>
      <trkpt lat="45.74014" lon="6.06661">
        <ele>1130.5999755859</ele>
        <time>2014-05-25T10:34:07.000Z</time>
      </trkpt>
      <trkpt lat="45.7401" lon="6.0666">
        <ele>1129.8000488281</ele>
        <time>2014-05-25T10:34:22.000Z</time>
      </trkpt>
      <trkpt lat="45.74015" lon="6.0666">
        <ele>1130.4000244141</ele>
        <time>2014-05-25T10:34:31.000Z</time>
      </trkpt>
      <trkpt lat="45.74017" lon="6.06659">
        <ele>1130.8000488281</ele>
        <time>2014-05-25T10:34:35.000Z</time>
      </trkpt>
      <trkpt lat="45.7402" lon="6.06656">
        <ele>1130.5999755859</ele>
        <time>2014-05-25T10:34:40.000Z</time>
      </trkpt>
      <trkpt lat="45.74019" lon="6.06634">
        <ele>1126.8000488281</ele>
        <time>2014-05-25T10:34:46.000Z</time>
      </trkpt>
      <trkpt lat="45.74023" lon="6.06627">
        <ele>1125.8000488281</ele>
        <time>2014-05-25T10:34:50.000Z</time>
      </trkpt>
      <trkpt lat="45.74026" lon="6.06626">
        <ele>1126</ele>
        <time>2014-05-25T10:34:54.000Z</time>
      </trkpt>
      <trkpt lat="45.74021" lon="6.06619">
        <ele>1124</ele>
        <time>2014-05-25T10:35:23.000Z</time>
      </trkpt>
      <trkpt lat="45.74022" lon="6.0662">
        <ele>1124.4000244141</ele>
        <time>2014-05-25T10:35:27.000Z</time>
      </trkpt>
      <trkpt lat="45.74022" lon="6.06622">
        <ele>1124.8000488281</ele>
        <time>2014-05-25T10:35:31.000Z</time>
      </trkpt>
      <trkpt lat="45.74015" lon="6.06614">
        <ele>1122.4000244141</ele>
        <time>2014-05-25T10:35:36.000Z</time>
      </trkpt>
      <trkpt lat="45.7401" lon="6.06613">
        <ele>1121.4000244141</ele>
        <time>2014-05-25T10:35:38.000Z</time>
      </trkpt>
      <trkpt lat="45.74" lon="6.06617">
        <ele>1121</ele>
        <time>2014-05-25T10:35:45.000Z</time>
      </trkpt>
      <trkpt lat="45.73995" lon="6.06614">
        <ele>1119.8000488281</ele>
        <time>2014-05-25T10:35:52.000Z</time>
      </trkpt>
      <trkpt lat="45.73994" lon="6.06614">
        <ele>1119.4000244141</ele>
        <time>2014-05-25T10:35:54.000Z</time>
      </trkpt>
      <trkpt lat="45.73985" lon="6.06614">
        <ele>1118.1999511719</ele>
        <time>2014-05-25T10:36:01.000Z</time>
      </trkpt>
      <trkpt lat="45.7398" lon="6.06619">
        <ele>1118.5999755859</ele>
        <time>2014-05-25T10:36:21.000Z</time>
      </trkpt>
      <trkpt lat="45.73972" lon="6.06614">
        <ele>1116.5999755859</ele>
        <time>2014-05-25T10:36:26.000Z</time>
      </trkpt>
      <trkpt lat="45.73966" lon="6.0661">
        <ele>1115.4000244141</ele>
        <time>2014-05-25T10:36:29.000Z</time>
      </trkpt>
      <trkpt lat="45.7396" lon="6.06605">
        <ele>1113.5999755859</ele>
        <time>2014-05-25T10:36:34.000Z</time>
      </trkpt>
      <trkpt lat="45.73959" lon="6.06604">
        <ele>1113.4000244141</ele>
        <time>2014-05-25T10:36:35.000Z</time>
      </trkpt>
      <trkpt lat="45.73954" lon="6.06604">
        <ele>1113</ele>
        <time>2014-05-25T10:36:39.000Z</time>
      </trkpt>
      <trkpt lat="45.73949" lon="6.066">
        <ele>1111.5999755859</ele>
        <time>2014-05-25T10:36:43.000Z</time>
      </trkpt>
      <trkpt lat="45.73947" lon="6.066">
        <ele>1111.4000244141</ele>
        <time>2014-05-25T10:36:45.000Z</time>
      </trkpt>
      <trkpt lat="45.7394" lon="6.06601">
        <ele>1111</ele>
        <time>2014-05-25T10:36:50.000Z</time>
      </trkpt>
      <trkpt lat="45.73937" lon="6.06598">
        <ele>1110.1999511719</ele>
        <time>2014-05-25T10:36:52.000Z</time>
      </trkpt>
      <trkpt lat="45.73935" lon="6.06595">
        <ele>1109.4000244141</ele>
        <time>2014-05-25T10:36:55.000Z</time>
      </trkpt>
      <trkpt lat="45.73933" lon="6.06596">
        <ele>1109.4000244141</ele>
        <time>2014-05-25T10:37:01.000Z</time>
      </trkpt>
      <trkpt lat="45.73921" lon="6.0659">
        <ele>1107.1999511719</ele>
        <time>2014-05-25T10:37:08.000Z</time>
      </trkpt>
      <trkpt lat="45.73914" lon="6.06578">
        <ele>1104</ele>
        <time>2014-05-25T10:37:14.000Z</time>
      </trkpt>
      <trkpt lat="45.73908" lon="6.06575">
        <ele>1103</ele>
        <time>2014-05-25T10:37:18.000Z</time>
      </trkpt>
      <trkpt lat="45.73902" lon="6.06571">
        <ele>1101.5999755859</ele>
        <time>2014-05-25T10:37:23.000Z</time>
      </trkpt>
      <trkpt lat="45.73899" lon="6.06569">
        <ele>1101</ele>
        <time>2014-05-25T10:37:31.000Z</time>
      </trkpt>
      <trkpt lat="45.73898" lon="6.06567">
        <ele>1100.5999755859</ele>
        <time>2014-05-25T10:37:33.000Z</time>
      </trkpt>
      <trkpt lat="45.73894" lon="6.06566">
        <ele>1099.8000488281</ele>
        <time>2014-05-25T10:37:38.000Z</time>
      </trkpt>
      <trkpt lat="45.73892" lon="6.06563">
        <ele>1099</ele>
        <time>2014-05-25T10:37:42.000Z</time>
      </trkpt>
      <trkpt lat="45.73888" lon="6.06559">
        <ele>1098</ele>
        <time>2014-05-25T10:37:46.000Z</time>
      </trkpt>
      <trkpt lat="45.73887" lon="6.06555">
        <ele>1097</ele>
        <time>2014-05-25T10:37:48.000Z</time>
      </trkpt>
      <trkpt lat="45.73885" lon="6.06552">
        <ele>1096.1999511719</ele>
        <time>2014-05-25T10:37:50.000Z</time>
      </trkpt>
      <trkpt lat="45.73879" lon="6.06547">
        <ele>1094.1999511719</ele>
        <time>2014-05-25T10:37:56.000Z</time>
      </trkpt>
      <trkpt lat="45.73876" lon="6.06541">
        <ele>1092.5999755859</ele>
        <time>2014-05-25T10:38:00.000Z</time>
      </trkpt>
      <trkpt lat="45.73876" lon="6.0654">
        <ele>1092.4000244141</ele>
        <time>2014-05-25T10:38:02.000Z</time>
      </trkpt>
      <trkpt lat="45.73878" lon="6.06526">
        <ele>1089.5999755859</ele>
        <time>2014-05-25T10:38:07.000Z</time>
      </trkpt>
      <trkpt lat="45.73885" lon="6.06516">
        <ele>1088.4000244141</ele>
        <time>2014-05-25T10:38:11.000Z</time>
      </trkpt>
      <trkpt lat="45.73885" lon="6.06506">
        <ele>1086.1999511719</ele>
        <time>2014-05-25T10:38:15.000Z</time>
      </trkpt>
      <trkpt lat="45.73882" lon="6.06499">
        <ele>1084.1999511719</ele>
        <time>2014-05-25T10:38:19.000Z</time>
      </trkpt>
      <trkpt lat="45.7388" lon="6.06499">
        <ele>1083.8000488281</ele>
        <time>2014-05-25T10:38:30.000Z</time>
      </trkpt>
      <trkpt lat="45.73878" lon="6.065">
        <ele>1083.8000488281</ele>
        <time>2014-05-25T10:38:40.000Z</time>
      </trkpt>
      <trkpt lat="45.73876" lon="6.06502">
        <ele>1084</ele>
        <time>2014-05-25T10:38:50.000Z</time>
      </trkpt>
      <trkpt lat="45.73873" lon="6.06506">
        <ele>1084.4000244141</ele>
        <time>2014-05-25T10:38:55.000Z</time>
      </trkpt>
      <trkpt lat="45.73869" lon="6.06517">
        <ele>1086.5999755859</ele>
        <time>2014-05-25T10:38:59.000Z</time>
      </trkpt>
      <trkpt lat="45.73852" lon="6.06519">
        <ele>1084.5999755859</ele>
        <time>2014-05-25T10:39:05.000Z</time>
      </trkpt>
      <trkpt lat="45.7384" lon="6.0652">
        <ele>1084</ele>
        <time>2014-05-25T10:39:08.000Z</time>
      </trkpt>
      <trkpt lat="45.73828" lon="6.06531">
        <ele>1086.5999755859</ele>
        <time>2014-05-25T10:39:13.000Z</time>
      </trkpt>
      <trkpt lat="45.73828" lon="6.06532">
        <ele>1086.8000488281</ele>
        <time>2014-05-25T10:39:14.000Z</time>
      </trkpt>
      <trkpt lat="45.73828" lon="6.06536">
        <ele>1088</ele>
        <time>2014-05-25T10:39:18.000Z</time>
      </trkpt>
      <trkpt lat="45.73824" lon="6.06537">
        <ele>1088.4000244141</ele>
        <time>2014-05-25T10:39:23.000Z</time>
      </trkpt>
      <trkpt lat="45.73823" lon="6.06536">
        <ele>1088</ele>
        <time>2014-05-25T10:39:26.000Z</time>
      </trkpt>
      <trkpt lat="45.73818" lon="6.0652">
        <ele>1082.5999755859</ele>
        <time>2014-05-25T10:39:31.000Z</time>
      </trkpt>
      <trkpt lat="45.73813" lon="6.06512">
        <ele>1080.1999511719</ele>
        <time>2014-05-25T10:39:36.000Z</time>
      </trkpt>
      <trkpt lat="45.73809" lon="6.06512">
        <ele>1080.1999511719</ele>
        <time>2014-05-25T10:39:42.000Z</time>
      </trkpt>
      <trkpt lat="45.73806" lon="6.06514">
        <ele>1080.5999755859</ele>
        <time>2014-05-25T10:39:44.000Z</time>
      </trkpt>
      <trkpt lat="45.73795" lon="6.06519">
        <ele>1081</ele>
        <time>2014-05-25T10:39:49.000Z</time>
      </trkpt>
      <trkpt lat="45.73793" lon="6.0652">
        <ele>1081</ele>
        <time>2014-05-25T10:39:50.000Z</time>
      </trkpt>
      <trkpt lat="45.73777" lon="6.06509">
        <ele>1076.4000244141</ele>
        <time>2014-05-25T10:39:55.000Z</time>
      </trkpt>
      <trkpt lat="45.73762" lon="6.06501">
        <ele>1072.4000244141</ele>
        <time>2014-05-25T10:39:58.000Z</time>
      </trkpt>
      <trkpt lat="45.73747" lon="6.06494">
        <ele>1069</ele>
        <time>2014-05-25T10:40:02.000Z</time>
      </trkpt>
      <trkpt lat="45.73735" lon="6.06492">
        <ele>1067</ele>
        <time>2014-05-25T10:40:06.000Z</time>
      </trkpt>
      <trkpt lat="45.73729" lon="6.0649">
        <ele>1065.8000488281</ele>
        <time>2014-05-25T10:40:09.000Z</time>
      </trkpt>
      <trkpt lat="45.73715" lon="6.06478">
        <ele>1061.8000488281</ele>
        <time>2014-05-25T10:40:15.000Z</time>
      </trkpt>
      <trkpt lat="45.7371" lon="6.06477">
        <ele>1061.4000244141</ele>
        <time>2014-05-25T10:40:19.000Z</time>
      </trkpt>
      <trkpt lat="45.73711" lon="6.06482">
        <ele>1062.8000488281</ele>
        <time>2014-05-25T10:40:25.000Z</time>
      </trkpt>
      <trkpt lat="45.73704" lon="6.06472">
        <ele>1060.1999511719</ele>
        <time>2014-05-25T10:40:30.000Z</time>
      </trkpt>
      <trkpt lat="45.73698" lon="6.06464">
        <ele>1058.5999755859</ele>
        <time>2014-05-25T10:40:35.000Z</time>
      </trkpt>
      <trkpt lat="45.73691" lon="6.06453">
        <ele>1056.5999755859</ele>
        <time>2014-05-25T10:40:39.000Z</time>
      </trkpt>
      <trkpt lat="45.73685" lon="6.06446">
        <ele>1055.1999511719</ele>
        <time>2014-05-25T10:40:41.000Z</time>
      </trkpt>
      <trkpt lat="45.7367" lon="6.06436">
        <ele>1053.1999511719</ele>
        <time>2014-05-25T10:40:47.000Z</time>
      </trkpt>
      <trkpt lat="45.73659" lon="6.06434">
        <ele>1052.8000488281</ele>
        <time>2014-05-25T10:40:52.000Z</time>
      </trkpt>
      <trkpt lat="45.73651" lon="6.06433">
        <ele>1052.5999755859</ele>
        <time>2014-05-25T10:40:57.000Z</time>
      </trkpt>
      <trkpt lat="45.73649" lon="6.06433">
        <ele>1052.5999755859</ele>
        <time>2014-05-25T10:40:59.000Z</time>
      </trkpt>
      <trkpt lat="45.73647" lon="6.06431">
        <ele>1052.1999511719</ele>
        <time>2014-05-25T10:41:01.000Z</time>
      </trkpt>
      <trkpt lat="45.73635" lon="6.06423">
        <ele>1050.8000488281</ele>
        <time>2014-05-25T10:41:06.000Z</time>
      </trkpt>
      <trkpt lat="45.73628" lon="6.06421">
        <ele>1050.1999511719</ele>
        <time>2014-05-25T10:41:10.000Z</time>
      </trkpt>
      <trkpt lat="45.73627" lon="6.0642">
        <ele>1050</ele>
        <time>2014-05-25T10:41:14.000Z</time>
      </trkpt>
      <trkpt lat="45.73621" lon="6.06416">
        <ele>1049</ele>
        <time>2014-05-25T10:41:18.000Z</time>
      </trkpt>
      <trkpt lat="45.73617" lon="6.06414">
        <ele>1048.5999755859</ele>
        <time>2014-05-25T10:41:21.000Z</time>
      </trkpt>
      <trkpt lat="45.73615" lon="6.06415">
        <ele>1048.8000488281</ele>
        <time>2014-05-25T10:41:23.000Z</time>
      </trkpt>
      <trkpt lat="45.73612" lon="6.06414">
        <ele>1048.5999755859</ele>
        <time>2014-05-25T10:41:25.000Z</time>
      </trkpt>
      <trkpt lat="45.73604" lon="6.06419">
        <ele>1049.1999511719</ele>
        <time>2014-05-25T10:41:31.000Z</time>
      </trkpt>
      <trkpt lat="45.73601" lon="6.06419">
        <ele>1049.1999511719</ele>
        <time>2014-05-25T10:41:34.000Z</time>
      </trkpt>
      <trkpt lat="45.73597" lon="6.06422">
        <ele>1049.5999755859</ele>
        <time>2014-05-25T10:41:40.000Z</time>
      </trkpt>
      <trkpt lat="45.73594" lon="6.06425">
        <ele>1050</ele>
        <time>2014-05-25T10:41:44.000Z</time>
      </trkpt>
      <trkpt lat="45.7359" lon="6.06426">
        <ele>1050.1999511719</ele>
        <time>2014-05-25T10:41:48.000Z</time>
      </trkpt>
      <trkpt lat="45.73587" lon="6.06429">
        <ele>1050.5999755859</ele>
        <time>2014-05-25T10:41:52.000Z</time>
      </trkpt>
      <trkpt lat="45.7358" lon="6.06432">
        <ele>1051</ele>
        <time>2014-05-25T10:41:58.000Z</time>
      </trkpt>
      <trkpt lat="45.73572" lon="6.06432">
        <ele>1050.8000488281</ele>
        <time>2014-05-25T10:42:03.000Z</time>
      </trkpt>
      <trkpt lat="45.73569" lon="6.06431">
        <ele>1050.4000244141</ele>
        <time>2014-05-25T10:42:05.000Z</time>
      </trkpt>
      <trkpt lat="45.73563" lon="6.06432">
        <ele>1050.4000244141</ele>
        <time>2014-05-25T10:42:09.000Z</time>
      </trkpt>
      <trkpt lat="45.7356" lon="6.06433">
        <ele>1050.5999755859</ele>
        <time>2014-05-25T10:42:12.000Z</time>
      </trkpt>
      <trkpt lat="45.73557" lon="6.06434">
        <ele>1050.5999755859</ele>
        <time>2014-05-25T10:42:14.000Z</time>
      </trkpt>
      <trkpt lat="45.73553" lon="6.0643">
        <ele>1049.5999755859</ele>
        <time>2014-05-25T10:42:19.000Z</time>
      </trkpt>
      <trkpt lat="45.73546" lon="6.06426">
        <ele>1048.5999755859</ele>
        <time>2014-05-25T10:42:25.000Z</time>
      </trkpt>
      <trkpt lat="45.73543" lon="6.06424">
        <ele>1048.1999511719</ele>
        <time>2014-05-25T10:42:31.000Z</time>
      </trkpt>
      <trkpt lat="45.73541" lon="6.06423">
        <ele>1048</ele>
        <time>2014-05-25T10:42:38.000Z</time>
      </trkpt>
      <trkpt lat="45.73532" lon="6.06417">
        <ele>1046.5999755859</ele>
        <time>2014-05-25T10:42:44.000Z</time>
      </trkpt>
      <trkpt lat="45.7353" lon="6.06414">
        <ele>1046</ele>
        <time>2014-05-25T10:42:47.000Z</time>
      </trkpt>
      <trkpt lat="45.73527" lon="6.0641">
        <ele>1045.1999511719</ele>
        <time>2014-05-25T10:42:50.000Z</time>
      </trkpt>
      <trkpt lat="45.7352" lon="6.0641">
        <ele>1045</ele>
        <time>2014-05-25T10:42:54.000Z</time>
      </trkpt>
      <trkpt lat="45.73517" lon="6.0641">
        <ele>1044.8000488281</ele>
        <time>2014-05-25T10:42:56.000Z</time>
      </trkpt>
      <trkpt lat="45.73513" lon="6.06414">
        <ele>1045.4000244141</ele>
        <time>2014-05-25T10:43:02.000Z</time>
      </trkpt>
      <trkpt lat="45.73511" lon="6.06414">
        <ele>1045.1999511719</ele>
        <time>2014-05-25T10:43:04.000Z</time>
      </trkpt>
      <trkpt lat="45.73506" lon="6.06409">
        <ele>1044.1999511719</ele>
        <time>2014-05-25T10:43:10.000Z</time>
      </trkpt>
      <trkpt lat="45.73503" lon="6.06406">
        <ele>1043.5999755859</ele>
        <time>2014-05-25T10:43:15.000Z</time>
      </trkpt>
      <trkpt lat="45.73499" lon="6.06407">
        <ele>1043.5999755859</ele>
        <time>2014-05-25T10:43:20.000Z</time>
      </trkpt>
      <trkpt lat="45.73496" lon="6.06407">
        <ele>1043.5999755859</ele>
        <time>2014-05-25T10:43:24.000Z</time>
      </trkpt>
      <trkpt lat="45.73491" lon="6.06404">
        <ele>1042.8000488281</ele>
        <time>2014-05-25T10:43:31.000Z</time>
      </trkpt>
      <trkpt lat="45.73486" lon="6.06408">
        <ele>1043.1999511719</ele>
        <time>2014-05-25T10:43:37.000Z</time>
      </trkpt>
      <trkpt lat="45.73483" lon="6.06405">
        <ele>1042.5999755859</ele>
        <time>2014-05-25T10:43:41.000Z</time>
      </trkpt>
      <trkpt lat="45.73481" lon="6.06405">
        <ele>1042.4000244141</ele>
        <time>2014-05-25T10:43:46.000Z</time>
      </trkpt>
      <trkpt lat="45.73475" lon="6.06406">
        <ele>1042</ele>
        <time>2014-05-25T10:43:51.000Z</time>
      </trkpt>
      <trkpt lat="45.73474" lon="6.06407">
        <ele>1042</ele>
        <time>2014-05-25T10:43:57.000Z</time>
      </trkpt>
      <trkpt lat="45.73471" lon="6.0641">
        <ele>1042.1999511719</ele>
        <time>2014-05-25T10:44:01.000Z</time>
      </trkpt>
      <trkpt lat="45.73473" lon="6.06416">
        <ele>1043</ele>
        <time>2014-05-25T10:44:05.000Z</time>
      </trkpt>
      <trkpt lat="45.73471" lon="6.06422">
        <ele>1043.5999755859</ele>
        <time>2014-05-25T10:44:11.000Z</time>
      </trkpt>
      <trkpt lat="45.7347" lon="6.06423">
        <ele>1043.5999755859</ele>
        <time>2014-05-25T10:44:16.000Z</time>
      </trkpt>
      <trkpt lat="45.73463" lon="6.06427">
        <ele>1043.5999755859</ele>
        <time>2014-05-25T10:44:20.000Z</time>
      </trkpt>
      <trkpt lat="45.73461" lon="6.06428">
        <ele>1043.5999755859</ele>
        <time>2014-05-25T10:44:22.000Z</time>
      </trkpt>
      <trkpt lat="45.73457" lon="6.0643">
        <ele>1043.8000488281</ele>
        <time>2014-05-25T10:44:27.000Z</time>
      </trkpt>
      <trkpt lat="45.73454" lon="6.06434">
        <ele>1044</ele>
        <time>2014-05-25T10:44:30.000Z</time>
      </trkpt>
      <trkpt lat="45.73449" lon="6.06433">
        <ele>1043.5999755859</ele>
        <time>2014-05-25T10:44:35.000Z</time>
      </trkpt>
      <trkpt lat="45.73447" lon="6.06432">
        <ele>1043.1999511719</ele>
        <time>2014-05-25T10:44:39.000Z</time>
      </trkpt>
      <trkpt lat="45.73442" lon="6.0643">
        <ele>1042.8000488281</ele>
        <time>2014-05-25T10:44:45.000Z</time>
      </trkpt>
      <trkpt lat="45.73436" lon="6.06429">
        <ele>1042.1999511719</ele>
        <time>2014-05-25T10:44:51.000Z</time>
      </trkpt>
      <trkpt lat="45.73433" lon="6.06429">
        <ele>1042.1999511719</ele>
        <time>2014-05-25T10:44:55.000Z</time>
      </trkpt>
      <trkpt lat="45.73432" lon="6.06429">
        <ele>1042</ele>
        <time>2014-05-25T10:45:01.000Z</time>
      </trkpt>
      <trkpt lat="45.7343" lon="6.06427">
        <ele>1041.5999755859</ele>
        <time>2014-05-25T10:45:06.000Z</time>
      </trkpt>
      <trkpt lat="45.73427" lon="6.06426">
        <ele>1041.4000244141</ele>
        <time>2014-05-25T10:45:09.000Z</time>
      </trkpt>
      <trkpt lat="45.73425" lon="6.06424">
        <ele>1041</ele>
        <time>2014-05-25T10:45:14.000Z</time>
      </trkpt>
      <trkpt lat="45.73426" lon="6.06423">
        <ele>1041</ele>
        <time>2014-05-25T10:45:26.000Z</time>
      </trkpt>
      <trkpt lat="45.73428" lon="6.06425">
        <ele>1041.4000244141</ele>
        <time>2014-05-25T10:45:35.000Z</time>
      </trkpt>
      <trkpt lat="45.73431" lon="6.06428">
        <ele>1041.8000488281</ele>
        <time>2014-05-25T10:45:38.000Z</time>
      </trkpt>
      <trkpt lat="45.73434" lon="6.06431">
        <ele>1042.4000244141</ele>
        <time>2014-05-25T10:45:41.000Z</time>
      </trkpt>
      <trkpt lat="45.73438" lon="6.06438">
        <ele>1043.4000244141</ele>
        <time>2014-05-25T10:45:47.000Z</time>
      </trkpt>
      <trkpt lat="45.73442" lon="6.0644">
        <ele>1044</ele>
        <time>2014-05-25T10:45:53.000Z</time>
      </trkpt>
      <trkpt lat="45.73446" lon="6.06441">
        <ele>1044.4000244141</ele>
        <time>2014-05-25T10:45:59.000Z</time>
      </trkpt>
      <trkpt lat="45.73448" lon="6.06445">
        <ele>1045</ele>
        <time>2014-05-25T10:46:04.000Z</time>
      </trkpt>
      <trkpt lat="45.73451" lon="6.06447">
        <ele>1045.4000244141</ele>
        <time>2014-05-25T10:46:08.000Z</time>
      </trkpt>
      <trkpt lat="45.73455" lon="6.0645">
        <ele>1046</ele>
        <time>2014-05-25T10:46:13.000Z</time>
      </trkpt>
      <trkpt lat="45.73457" lon="6.06451">
        <ele>1046.1999511719</ele>
        <time>2014-05-25T10:46:18.000Z</time>
      </trkpt>
      <trkpt lat="45.73458" lon="6.06454">
        <ele>1046.5999755859</ele>
        <time>2014-05-25T10:46:23.000Z</time>
      </trkpt>
      <trkpt lat="45.73459" lon="6.06456">
        <ele>1046.8000488281</ele>
        <time>2014-05-25T10:46:28.000Z</time>
      </trkpt>
      <trkpt lat="45.73461" lon="6.06457">
        <ele>1047.1999511719</ele>
        <time>2014-05-25T10:46:35.000Z</time>
      </trkpt>
      <trkpt lat="45.73458" lon="6.06463">
        <ele>1047.5999755859</ele>
        <time>2014-05-25T10:46:41.000Z</time>
      </trkpt>
      <trkpt lat="45.73459" lon="6.06467">
        <ele>1048.1999511719</ele>
        <time>2014-05-25T10:46:45.000Z</time>
      </trkpt>
      <trkpt lat="45.73459" lon="6.06471">
        <ele>1048.5999755859</ele>
        <time>2014-05-25T10:46:51.000Z</time>
      </trkpt>
      <trkpt lat="45.73459" lon="6.06473">
        <ele>1048.8000488281</ele>
        <time>2014-05-25T10:46:55.000Z</time>
      </trkpt>
      <trkpt lat="45.73459" lon="6.06478">
        <ele>1049.4000244141</ele>
        <time>2014-05-25T10:46:58.000Z</time>
      </trkpt>
      <trkpt lat="45.73458" lon="6.06483">
        <ele>1050</ele>
        <time>2014-05-25T10:47:04.000Z</time>
      </trkpt>
      <trkpt lat="45.73459" lon="6.06489">
        <ele>1050.8000488281</ele>
        <time>2014-05-25T10:47:10.000Z</time>
      </trkpt>
      <trkpt lat="45.73461" lon="6.06492">
        <ele>1051.1999511719</ele>
        <time>2014-05-25T10:47:15.000Z</time>
      </trkpt>
      <trkpt lat="45.73466" lon="6.06492">
        <ele>1051.5999755859</ele>
        <time>2014-05-25T10:47:20.000Z</time>
      </trkpt>
      <trkpt lat="45.73468" lon="6.06495">
        <ele>1052</ele>
        <time>2014-05-25T10:47:25.000Z</time>
      </trkpt>
      <trkpt lat="45.73466" lon="6.06492">
        <ele>1051.5999755859</ele>
        <time>2014-05-25T10:47:30.000Z</time>
      </trkpt>
      <trkpt lat="45.73464" lon="6.06493">
        <ele>1051.5999755859</ele>
        <time>2014-05-25T10:47:36.000Z</time>
      </trkpt>
      <trkpt lat="45.73459" lon="6.06493">
        <ele>1051.1999511719</ele>
        <time>2014-05-25T10:47:40.000Z</time>
      </trkpt>
      <trkpt lat="45.73455" lon="6.06492">
        <ele>1050.8000488281</ele>
        <time>2014-05-25T10:47:43.000Z</time>
      </trkpt>
      <trkpt lat="45.73448" lon="6.06484">
        <ele>1049.1999511719</ele>
        <time>2014-05-25T10:47:49.000Z</time>
      </trkpt>
      <trkpt lat="45.73447" lon="6.06483">
        <ele>1049.1999511719</ele>
        <time>2014-05-25T10:47:50.000Z</time>
      </trkpt>
      <trkpt lat="45.73444" lon="6.06483">
        <ele>1049</ele>
        <time>2014-05-25T10:47:53.000Z</time>
      </trkpt>
      <trkpt lat="45.73438" lon="6.0648">
        <ele>1048</ele>
        <time>2014-05-25T10:47:57.000Z</time>
      </trkpt>
      <trkpt lat="45.73435" lon="6.06474">
        <ele>1047.1999511719</ele>
        <time>2014-05-25T10:48:00.000Z</time>
      </trkpt>
      <trkpt lat="45.73428" lon="6.06464">
        <ele>1045.5999755859</ele>
        <time>2014-05-25T10:48:05.000Z</time>
      </trkpt>
      <trkpt lat="45.73423" lon="6.06452">
        <ele>1044</ele>
        <time>2014-05-25T10:48:12.000Z</time>
      </trkpt>
      <trkpt lat="45.73419" lon="6.06439">
        <ele>1042.1999511719</ele>
        <time>2014-05-25T10:48:16.000Z</time>
      </trkpt>
      <trkpt lat="45.73411" lon="6.06417">
        <ele>1039.1999511719</ele>
        <time>2014-05-25T10:48:22.000Z</time>
      </trkpt>
      <trkpt lat="45.73408" lon="6.06414">
        <ele>1038.8000488281</ele>
        <time>2014-05-25T10:48:23.000Z</time>
      </trkpt>
      <trkpt lat="45.73402" lon="6.064">
        <ele>1036.8000488281</ele>
        <time>2014-05-25T10:48:28.000Z</time>
      </trkpt>
      <trkpt lat="45.73401" lon="6.06388">
        <ele>1035.1999511719</ele>
        <time>2014-05-25T10:48:35.000Z</time>
      </trkpt>
      <trkpt lat="45.73401" lon="6.06382">
        <ele>1034.4000244141</ele>
        <time>2014-05-25T10:48:37.000Z</time>
      </trkpt>
      <trkpt lat="45.734" lon="6.06378">
        <ele>1033.5999755859</ele>
        <time>2014-05-25T10:48:44.000Z</time>
      </trkpt>
      <trkpt lat="45.73406" lon="6.06371">
        <ele>1033</ele>
        <time>2014-05-25T10:48:49.000Z</time>
      </trkpt>
      <trkpt lat="45.73412" lon="6.06364">
        <ele>1032.1999511719</ele>
        <time>2014-05-25T10:48:53.000Z</time>
      </trkpt>
      <trkpt lat="45.73413" lon="6.0636">
        <ele>1031.8000488281</ele>
        <time>2014-05-25T10:48:55.000Z</time>
      </trkpt>
      <trkpt lat="45.73413" lon="6.06343">
        <ele>1029.4000244141</ele>
        <time>2014-05-25T10:49:01.000Z</time>
      </trkpt>
      <trkpt lat="45.73412" lon="6.06339">
        <ele>1028.8000488281</ele>
        <time>2014-05-25T10:49:03.000Z</time>
      </trkpt>
      <trkpt lat="45.73408" lon="6.06334">
        <ele>1027.8000488281</ele>
        <time>2014-05-25T10:49:06.000Z</time>
      </trkpt>
      <trkpt lat="45.73401" lon="6.06329">
        <ele>1026.5999755859</ele>
        <time>2014-05-25T10:49:11.000Z</time>
      </trkpt>
      <trkpt lat="45.73396" lon="6.0633">
        <ele>1026.4000244141</ele>
        <time>2014-05-25T10:49:15.000Z</time>
      </trkpt>
      <trkpt lat="45.73393" lon="6.06331">
        <ele>1026.4000244141</ele>
        <time>2014-05-25T10:49:21.000Z</time>
      </trkpt>
      <trkpt lat="45.7339" lon="6.06331">
        <ele>1026.1999511719</ele>
        <time>2014-05-25T10:49:26.000Z</time>
      </trkpt>
      <trkpt lat="45.73388" lon="6.06334">
        <ele>1026.5999755859</ele>
        <time>2014-05-25T10:49:30.000Z</time>
      </trkpt>
      <trkpt lat="45.73389" lon="6.06328">
        <ele>1025.8000488281</ele>
        <time>2014-05-25T10:49:34.000Z</time>
      </trkpt>
      <trkpt lat="45.7339" lon="6.0632">
        <ele>1024.5999755859</ele>
        <time>2014-05-25T10:49:41.000Z</time>
      </trkpt>
      <trkpt lat="45.7339" lon="6.06319">
        <ele>1024.5999755859</ele>
        <time>2014-05-25T10:49:42.000Z</time>
      </trkpt>
      <trkpt lat="45.73397" lon="6.06318">
        <ele>1024.8000488281</ele>
        <time>2014-05-25T10:49:47.000Z</time>
      </trkpt>
      <trkpt lat="45.73396" lon="6.06314">
        <ele>1024.1999511719</ele>
        <time>2014-05-25T10:49:49.000Z</time>
      </trkpt>
      <trkpt lat="45.73397" lon="6.06311">
        <ele>1023.799987793</ele>
        <time>2014-05-25T10:49:51.000Z</time>
      </trkpt>
      <trkpt lat="45.73401" lon="6.06311">
        <ele>1023.799987793</ele>
        <time>2014-05-25T10:49:55.000Z</time>
      </trkpt>
      <trkpt lat="45.73405" lon="6.06311">
        <ele>1024</ele>
        <time>2014-05-25T10:49:57.000Z</time>
      </trkpt>
      <trkpt lat="45.73412" lon="6.06319">
        <ele>1025.8000488281</ele>
        <time>2014-05-25T10:50:03.000Z</time>
      </trkpt>
      <trkpt lat="45.73414" lon="6.0632">
        <ele>1025.8000488281</ele>
        <time>2014-05-25T10:50:05.000Z</time>
      </trkpt>
      <trkpt lat="45.73413" lon="6.0631">
        <ele>1024.1999511719</ele>
        <time>2014-05-25T10:50:11.000Z</time>
      </trkpt>
      <trkpt lat="45.73414" lon="6.06302">
        <ele>1023.4000244141</ele>
        <time>2014-05-25T10:50:16.000Z</time>
      </trkpt>
      <trkpt lat="45.73415" lon="6.06292">
        <ele>1022</ele>
        <time>2014-05-25T10:50:20.000Z</time>
      </trkpt>
      <trkpt lat="45.73407" lon="6.06271">
        <ele>1019</ele>
        <time>2014-05-25T10:50:24.000Z</time>
      </trkpt>
      <trkpt lat="45.73405" lon="6.06254">
        <ele>1016.5999755859</ele>
        <time>2014-05-25T10:50:27.000Z</time>
      </trkpt>
      <trkpt lat="45.73404" lon="6.06227">
        <ele>1013.200012207</ele>
        <time>2014-05-25T10:50:33.000Z</time>
      </trkpt>
      <trkpt lat="45.73401" lon="6.06212">
        <ele>1012.4000244141</ele>
        <time>2014-05-25T10:50:37.000Z</time>
      </trkpt>
      <trkpt lat="45.73401" lon="6.0621">
        <ele>1012.4000244141</ele>
        <time>2014-05-25T10:50:38.000Z</time>
      </trkpt>
      <trkpt lat="45.73401" lon="6.06195">
        <ele>1011.799987793</ele>
        <time>2014-05-25T10:50:43.000Z</time>
      </trkpt>
      <trkpt lat="45.73403" lon="6.06184">
        <ele>1011.5999755859</ele>
        <time>2014-05-25T10:50:47.000Z</time>
      </trkpt>
      <trkpt lat="45.734" lon="6.06161">
        <ele>1010.5999755859</ele>
        <time>2014-05-25T10:50:51.000Z</time>
      </trkpt>
      <trkpt lat="45.73392" lon="6.06144">
        <ele>1009.200012207</ele>
        <time>2014-05-25T10:50:55.000Z</time>
      </trkpt>
      <trkpt lat="45.7339" lon="6.06143">
        <ele>1009</ele>
        <time>2014-05-25T10:50:59.000Z</time>
      </trkpt>
      <trkpt lat="45.7339" lon="6.06142">
        <ele>1009</ele>
        <time>2014-05-25T10:51:00.000Z</time>
      </trkpt>
      <trkpt lat="45.73391" lon="6.06135">
        <ele>1008.4000244141</ele>
        <time>2014-05-25T10:51:06.000Z</time>
      </trkpt>
      <trkpt lat="45.73392" lon="6.06135">
        <ele>1008.4000244141</ele>
        <time>2014-05-25T10:51:15.000Z</time>
      </trkpt>
      <trkpt lat="45.7339" lon="6.06138">
        <ele>1008.5999755859</ele>
        <time>2014-05-25T10:51:17.000Z</time>
      </trkpt>
      <trkpt lat="45.73388" lon="6.0615">
        <ele>1009.4000244141</ele>
        <time>2014-05-25T10:51:22.000Z</time>
      </trkpt>
      <trkpt lat="45.73382" lon="6.06159">
        <ele>1009.4000244141</ele>
        <time>2014-05-25T10:51:26.000Z</time>
      </trkpt>
      <trkpt lat="45.73372" lon="6.0615">
        <ele>1008.799987793</ele>
        <time>2014-05-25T10:51:30.000Z</time>
      </trkpt>
      <trkpt lat="45.73365" lon="6.06143">
        <ele>1008.200012207</ele>
        <time>2014-05-25T10:51:34.000Z</time>
      </trkpt>
      <trkpt lat="45.73355" lon="6.06141">
        <ele>1007.799987793</ele>
        <time>2014-05-25T10:51:39.000Z</time>
      </trkpt>
      <trkpt lat="45.73353" lon="6.06124">
        <ele>1006.4000244141</ele>
        <time>2014-05-25T10:51:43.000Z</time>
      </trkpt>
      <trkpt lat="45.73353" lon="6.06116">
        <ele>1005.799987793</ele>
        <time>2014-05-25T10:51:45.000Z</time>
      </trkpt>
      <trkpt lat="45.73359" lon="6.06095">
        <ele>1004.200012207</ele>
        <time>2014-05-25T10:51:50.000Z</time>
      </trkpt>
      <trkpt lat="45.73364" lon="6.06081">
        <ele>1003.200012207</ele>
        <time>2014-05-25T10:51:54.000Z</time>
      </trkpt>
      <trkpt lat="45.73365" lon="6.06067">
        <ele>1002.200012207</ele>
        <time>2014-05-25T10:51:59.000Z</time>
      </trkpt>
      <trkpt lat="45.73362" lon="6.06036">
        <ele>1000.200012207</ele>
        <time>2014-05-25T10:52:05.000Z</time>
      </trkpt>
      <trkpt lat="45.7336" lon="6.06021">
        <ele>998.79998779297</ele>
        <time>2014-05-25T10:52:08.000Z</time>
      </trkpt>
      <trkpt lat="45.73348" lon="6.06016">
        <ele>998.79998779297</ele>
        <time>2014-05-25T10:52:13.000Z</time>
      </trkpt>
      <trkpt lat="45.73334" lon="6.06016">
        <ele>998.59997558594</ele>
        <time>2014-05-25T10:52:18.000Z</time>
      </trkpt>
      <trkpt lat="45.73324" lon="6.06016">
        <ele>998.40002441406</ele>
        <time>2014-05-25T10:52:23.000Z</time>
      </trkpt>
      <trkpt lat="45.7332" lon="6.06016">
        <ele>998.40002441406</ele>
        <time>2014-05-25T10:52:24.000Z</time>
      </trkpt>
      <trkpt lat="45.73309" lon="6.06012">
        <ele>997.79998779297</ele>
        <time>2014-05-25T10:52:29.000Z</time>
      </trkpt>
      <trkpt lat="45.73291" lon="6.06005">
        <ele>997.59997558594</ele>
        <time>2014-05-25T10:52:35.000Z</time>
      </trkpt>
      <trkpt lat="45.73288" lon="6.06003">
        <ele>997.59997558594</ele>
        <time>2014-05-25T10:52:36.000Z</time>
      </trkpt>
      <trkpt lat="45.73267" lon="6.05996">
        <ele>997.79998779297</ele>
        <time>2014-05-25T10:52:41.000Z</time>
      </trkpt>
      <trkpt lat="45.73253" lon="6.05993">
        <ele>998</ele>
        <time>2014-05-25T10:52:45.000Z</time>
      </trkpt>
      <trkpt lat="45.73241" lon="6.05987">
        <ele>998</ele>
        <time>2014-05-25T10:52:49.000Z</time>
      </trkpt>
      <trkpt lat="45.73225" lon="6.05987">
        <ele>998.40002441406</ele>
        <time>2014-05-25T10:52:54.000Z</time>
      </trkpt>
      <trkpt lat="45.7321" lon="6.05983">
        <ele>998.59997558594</ele>
        <time>2014-05-25T10:52:59.000Z</time>
      </trkpt>
      <trkpt lat="45.73197" lon="6.05975">
        <ele>998.59997558594</ele>
        <time>2014-05-25T10:53:03.000Z</time>
      </trkpt>
      <trkpt lat="45.73187" lon="6.05969">
        <ele>998.59997558594</ele>
        <time>2014-05-25T10:53:07.000Z</time>
      </trkpt>
      <trkpt lat="45.73175" lon="6.05957">
        <ele>998.40002441406</ele>
        <time>2014-05-25T10:53:11.000Z</time>
      </trkpt>
      <trkpt lat="45.73161" lon="6.05942">
        <ele>998.20001220703</ele>
        <time>2014-05-25T10:53:16.000Z</time>
      </trkpt>
      <trkpt lat="45.7315" lon="6.05933">
        <ele>998.20001220703</ele>
        <time>2014-05-25T10:53:20.000Z</time>
      </trkpt>
      <trkpt lat="45.73137" lon="6.05922">
        <ele>998</ele>
        <time>2014-05-25T10:53:25.000Z</time>
      </trkpt>
      <trkpt lat="45.73125" lon="6.0591">
        <ele>998.20001220703</ele>
        <time>2014-05-25T10:53:30.000Z</time>
      </trkpt>
      <trkpt lat="45.73114" lon="6.05893">
        <ele>998.20001220703</ele>
        <time>2014-05-25T10:53:35.000Z</time>
      </trkpt>
      <trkpt lat="45.731" lon="6.05876">
        <ele>998.40002441406</ele>
        <time>2014-05-25T10:53:41.000Z</time>
      </trkpt>
      <trkpt lat="45.73091" lon="6.05863">
        <ele>998.40002441406</ele>
        <time>2014-05-25T10:53:45.000Z</time>
      </trkpt>
      <trkpt lat="45.73089" lon="6.0586">
        <ele>998.59997558594</ele>
        <time>2014-05-25T10:53:46.000Z</time>
      </trkpt>
      <trkpt lat="45.73079" lon="6.05846">
        <ele>998.59997558594</ele>
        <time>2014-05-25T10:53:51.000Z</time>
      </trkpt>
      <trkpt lat="45.73073" lon="6.05833">
        <ele>998.59997558594</ele>
        <time>2014-05-25T10:53:55.000Z</time>
      </trkpt>
      <trkpt lat="45.7307" lon="6.05825">
        <ele>998.59997558594</ele>
        <time>2014-05-25T10:53:59.000Z</time>
      </trkpt>
      <trkpt lat="45.73066" lon="6.05809">
        <ele>998.20001220703</ele>
        <time>2014-05-25T10:54:04.000Z</time>
      </trkpt>
      <trkpt lat="45.73066" lon="6.05803">
        <ele>998.20001220703</ele>
        <time>2014-05-25T10:54:06.000Z</time>
      </trkpt>
      <trkpt lat="45.73065" lon="6.0579">
        <ele>998.40002441406</ele>
        <time>2014-05-25T10:54:10.000Z</time>
      </trkpt>
      <trkpt lat="45.73064" lon="6.05781">
        <ele>998.59997558594</ele>
        <time>2014-05-25T10:54:12.000Z</time>
      </trkpt>
      <trkpt lat="45.73065" lon="6.05767">
        <ele>998.59997558594</ele>
        <time>2014-05-25T10:54:15.000Z</time>
      </trkpt>
      <trkpt lat="45.73064" lon="6.05754">
        <ele>999</ele>
        <time>2014-05-25T10:54:18.000Z</time>
      </trkpt>
      <trkpt lat="45.73061" lon="6.05744">
        <ele>999.20001220703</ele>
        <time>2014-05-25T10:54:21.000Z</time>
      </trkpt>
      <trkpt lat="45.7306" lon="6.05734">
        <ele>999.40002441406</ele>
        <time>2014-05-25T10:54:24.000Z</time>
      </trkpt>
      <trkpt lat="45.7306" lon="6.05728">
        <ele>999.59997558594</ele>
        <time>2014-05-25T10:54:26.000Z</time>
      </trkpt>
      <trkpt lat="45.73062" lon="6.0572">
        <ele>999.79998779297</ele>
        <time>2014-05-25T10:54:29.000Z</time>
      </trkpt>
      <trkpt lat="45.7306" lon="6.05717">
        <ele>1000</ele>
        <time>2014-05-25T10:54:31.000Z</time>
      </trkpt>
      <trkpt lat="45.73054" lon="6.05714">
        <ele>1000.5999755859</ele>
        <time>2014-05-25T10:54:36.000Z</time>
      </trkpt>
      <trkpt lat="45.73052" lon="6.05713">
        <ele>1001.200012207</ele>
        <time>2014-05-25T10:54:39.000Z</time>
      </trkpt>
      <trkpt lat="45.73051" lon="6.0571">
        <ele>1001.4000244141</ele>
        <time>2014-05-25T10:54:45.000Z</time>
      </trkpt>
      <trkpt lat="45.7305" lon="6.05705">
        <ele>1002.200012207</ele>
        <time>2014-05-25T10:54:48.000Z</time>
      </trkpt>
      <trkpt lat="45.7304" lon="6.05686">
        <ele>1006</ele>
        <time>2014-05-25T10:54:54.000Z</time>
      </trkpt>
      <trkpt lat="45.73035" lon="6.05678">
        <ele>1008</ele>
        <time>2014-05-25T10:54:59.000Z</time>
      </trkpt>
      <trkpt lat="45.73026" lon="6.05681">
        <ele>1010.5999755859</ele>
        <time>2014-05-25T10:55:05.000Z</time>
      </trkpt>
      <trkpt lat="45.73019" lon="6.05689">
        <ele>1012.200012207</ele>
        <time>2014-05-25T10:55:09.000Z</time>
      </trkpt>
      <trkpt lat="45.73017" lon="6.0569">
        <ele>1012.5999755859</ele>
        <time>2014-05-25T10:55:10.000Z</time>
      </trkpt>
      <trkpt lat="45.73018" lon="6.05698">
        <ele>1011.799987793</ele>
        <time>2014-05-25T10:55:20.000Z</time>
      </trkpt>
      <trkpt lat="45.73006" lon="6.05694">
        <ele>1015.4000244141</ele>
        <time>2014-05-25T10:55:29.000Z</time>
      </trkpt>
      <trkpt lat="45.72993" lon="6.05696">
        <ele>1018.799987793</ele>
        <time>2014-05-25T10:55:35.000Z</time>
      </trkpt>
      <trkpt lat="45.72992" lon="6.05698">
        <ele>1019.200012207</ele>
        <time>2014-05-25T10:55:36.000Z</time>
      </trkpt>
      <trkpt lat="45.72981" lon="6.057">
        <ele>1022</ele>
        <time>2014-05-25T10:55:42.000Z</time>
      </trkpt>
      <trkpt lat="45.72973" lon="6.05708">
        <ele>1023.799987793</ele>
        <time>2014-05-25T10:55:46.000Z</time>
      </trkpt>
      <trkpt lat="45.72967" lon="6.05712">
        <ele>1024.8000488281</ele>
        <time>2014-05-25T10:55:50.000Z</time>
      </trkpt>
      <trkpt lat="45.72959" lon="6.0571">
        <ele>1026.5999755859</ele>
        <time>2014-05-25T10:56:07.000Z</time>
      </trkpt>
      <trkpt lat="45.72956" lon="6.05706">
        <ele>1027.1999511719</ele>
        <time>2014-05-25T10:56:11.000Z</time>
      </trkpt>
      <trkpt lat="45.72955" lon="6.057">
        <ele>1028</ele>
        <time>2014-05-25T10:56:14.000Z</time>
      </trkpt>
      <trkpt lat="45.72943" lon="6.05678">
        <ele>1032</ele>
        <time>2014-05-25T10:56:19.000Z</time>
      </trkpt>
      <trkpt lat="45.72943" lon="6.05667">
        <ele>1032.8000488281</ele>
        <time>2014-05-25T10:56:23.000Z</time>
      </trkpt>
      <trkpt lat="45.72945" lon="6.05667">
        <ele>1032.5999755859</ele>
        <time>2014-05-25T10:56:24.000Z</time>
      </trkpt>
      <trkpt lat="45.72947" lon="6.05665">
        <ele>1032.1999511719</ele>
        <time>2014-05-25T10:56:27.000Z</time>
      </trkpt>
      <trkpt lat="45.72948" lon="6.0566">
        <ele>1032.1999511719</ele>
        <time>2014-05-25T10:56:32.000Z</time>
      </trkpt>
      <trkpt lat="45.72943" lon="6.0566">
        <ele>1033.4000244141</ele>
        <time>2014-05-25T10:56:38.000Z</time>
      </trkpt>
      <trkpt lat="45.72939" lon="6.05659">
        <ele>1034.1999511719</ele>
        <time>2014-05-25T10:56:42.000Z</time>
      </trkpt>
      <trkpt lat="45.72935" lon="6.05657">
        <ele>1035.1999511719</ele>
        <time>2014-05-25T10:56:49.000Z</time>
      </trkpt>
      <trkpt lat="45.72935" lon="6.05651">
        <ele>1035.5999755859</ele>
        <time>2014-05-25T10:56:56.000Z</time>
      </trkpt>
      <trkpt lat="45.72932" lon="6.05647">
        <ele>1036.5999755859</ele>
        <time>2014-05-25T10:57:00.000Z</time>
      </trkpt>
      <trkpt lat="45.72929" lon="6.05641">
        <ele>1037.5999755859</ele>
        <time>2014-05-25T10:57:06.000Z</time>
      </trkpt>
      <trkpt lat="45.72928" lon="6.05643">
        <ele>1037.5999755859</ele>
        <time>2014-05-25T10:57:12.000Z</time>
      </trkpt>
      <trkpt lat="45.72929" lon="6.05641">
        <ele>1037.5999755859</ele>
        <time>2014-05-25T10:57:20.000Z</time>
      </trkpt>
      <trkpt lat="45.72931" lon="6.05633">
        <ele>1037.1999511719</ele>
        <time>2014-05-25T10:57:37.000Z</time>
      </trkpt>
      <trkpt lat="45.72932" lon="6.05633">
        <ele>1037</ele>
        <time>2014-05-25T10:57:39.000Z</time>
      </trkpt>
      <trkpt lat="45.72932" lon="6.0563">
        <ele>1037.1999511719</ele>
        <time>2014-05-25T10:57:42.000Z</time>
      </trkpt>
      <trkpt lat="45.72922" lon="6.05618">
        <ele>1039.4000244141</ele>
        <time>2014-05-25T10:57:48.000Z</time>
      </trkpt>
      <trkpt lat="45.72919" lon="6.05613">
        <ele>1040.1999511719</ele>
        <time>2014-05-25T10:57:52.000Z</time>
      </trkpt>
      <trkpt lat="45.72915" lon="6.05611">
        <ele>1041</ele>
        <time>2014-05-25T10:57:56.000Z</time>
      </trkpt>
      <trkpt lat="45.72909" lon="6.05607">
        <ele>1042.4000244141</ele>
        <time>2014-05-25T10:58:03.000Z</time>
      </trkpt>
      <trkpt lat="45.72904" lon="6.05606">
        <ele>1043.4000244141</ele>
        <time>2014-05-25T10:58:08.000Z</time>
      </trkpt>
      <trkpt lat="45.72901" lon="6.05601">
        <ele>1044.1999511719</ele>
        <time>2014-05-25T10:58:12.000Z</time>
      </trkpt>
      <trkpt lat="45.72897" lon="6.05601">
        <ele>1045</ele>
        <time>2014-05-25T10:58:16.000Z</time>
      </trkpt>
      <trkpt lat="45.72893" lon="6.05598">
        <ele>1046</ele>
        <time>2014-05-25T10:58:22.000Z</time>
      </trkpt>
      <trkpt lat="45.72891" lon="6.05593">
        <ele>1046.4000244141</ele>
        <time>2014-05-25T10:58:27.000Z</time>
      </trkpt>
      <trkpt lat="45.72886" lon="6.05591">
        <ele>1047.4000244141</ele>
        <time>2014-05-25T10:58:32.000Z</time>
      </trkpt>
      <trkpt lat="45.72884" lon="6.05591">
        <ele>1047.5999755859</ele>
        <time>2014-05-25T10:58:37.000Z</time>
      </trkpt>
      <trkpt lat="45.72879" lon="6.0559">
        <ele>1048.1999511719</ele>
        <time>2014-05-25T10:58:50.000Z</time>
      </trkpt>
      <trkpt lat="45.72872" lon="6.0559">
        <ele>1049</ele>
        <time>2014-05-25T10:58:58.000Z</time>
      </trkpt>
      <trkpt lat="45.72869" lon="6.05592">
        <ele>1049.1999511719</ele>
        <time>2014-05-25T10:59:00.000Z</time>
      </trkpt>
      <trkpt lat="45.72867" lon="6.05593">
        <ele>1049.4000244141</ele>
        <time>2014-05-25T10:59:03.000Z</time>
      </trkpt>
      <trkpt lat="45.72864" lon="6.05593">
        <ele>1049.5999755859</ele>
        <time>2014-05-25T10:59:06.000Z</time>
      </trkpt>
      <trkpt lat="45.72862" lon="6.05597">
        <ele>1049.8000488281</ele>
        <time>2014-05-25T10:59:08.000Z</time>
      </trkpt>
      <trkpt lat="45.72855" lon="6.05597">
        <ele>1050.5999755859</ele>
        <time>2014-05-25T10:59:14.000Z</time>
      </trkpt>
      <trkpt lat="45.72854" lon="6.05596">
        <ele>1050.5999755859</ele>
        <time>2014-05-25T10:59:15.000Z</time>
      </trkpt>
      <trkpt lat="45.72852" lon="6.05594">
        <ele>1051</ele>
        <time>2014-05-25T10:59:18.000Z</time>
      </trkpt>
      <trkpt lat="45.72847" lon="6.05584">
        <ele>1051.8000488281</ele>
        <time>2014-05-25T10:59:23.000Z</time>
      </trkpt>
      <trkpt lat="45.72846" lon="6.05582">
        <ele>1052</ele>
        <time>2014-05-25T10:59:24.000Z</time>
      </trkpt>
      <trkpt lat="45.72837" lon="6.05576">
        <ele>1053</ele>
        <time>2014-05-25T10:59:28.000Z</time>
      </trkpt>
      <trkpt lat="45.72831" lon="6.05576">
        <ele>1053.5999755859</ele>
        <time>2014-05-25T10:59:36.000Z</time>
      </trkpt>
      <trkpt lat="45.72832" lon="6.05581">
        <ele>1053.4000244141</ele>
        <time>2014-05-25T10:59:46.000Z</time>
      </trkpt>
      <trkpt lat="45.72832" lon="6.05573">
        <ele>1053.5999755859</ele>
        <time>2014-05-25T10:59:50.000Z</time>
      </trkpt>
      <trkpt lat="45.72831" lon="6.05569">
        <ele>1053.8000488281</ele>
        <time>2014-05-25T10:59:52.000Z</time>
      </trkpt>
      <trkpt lat="45.72829" lon="6.05552">
        <ele>1054</ele>
        <time>2014-05-25T10:59:57.000Z</time>
      </trkpt>
      <trkpt lat="45.72829" lon="6.05546">
        <ele>1053.5999755859</ele>
        <time>2014-05-25T10:59:59.000Z</time>
      </trkpt>
      <trkpt lat="45.72828" lon="6.05539">
        <ele>1053.4000244141</ele>
        <time>2014-05-25T11:00:01.000Z</time>
      </trkpt>
      <trkpt lat="45.72827" lon="6.05527">
        <ele>1053</ele>
        <time>2014-05-25T11:00:04.000Z</time>
      </trkpt>
      <trkpt lat="45.72818" lon="6.05517">
        <ele>1053.4000244141</ele>
        <time>2014-05-25T11:00:10.000Z</time>
      </trkpt>
      <trkpt lat="45.72812" lon="6.05516">
        <ele>1054</ele>
        <time>2014-05-25T11:00:13.000Z</time>
      </trkpt>
      <trkpt lat="45.72797" lon="6.05521">
        <ele>1055.8000488281</ele>
        <time>2014-05-25T11:00:19.000Z</time>
      </trkpt>
      <trkpt lat="45.72781" lon="6.05522">
        <ele>1057.4000244141</ele>
        <time>2014-05-25T11:00:24.000Z</time>
      </trkpt>
      <trkpt lat="45.72777" lon="6.05526">
        <ele>1058</ele>
        <time>2014-05-25T11:00:26.000Z</time>
      </trkpt>
      <trkpt lat="45.72765" lon="6.05546">
        <ele>1058.5999755859</ele>
        <time>2014-05-25T11:00:33.000Z</time>
      </trkpt>
      <trkpt lat="45.72752" lon="6.05562">
        <ele>1058.8000488281</ele>
        <time>2014-05-25T11:00:39.000Z</time>
      </trkpt>
      <trkpt lat="45.72738" lon="6.05568">
        <ele>1059.1999511719</ele>
        <time>2014-05-25T11:00:45.000Z</time>
      </trkpt>
      <trkpt lat="45.72735" lon="6.05567">
        <ele>1059.4000244141</ele>
        <time>2014-05-25T11:00:46.000Z</time>
      </trkpt>
      <trkpt lat="45.72723" lon="6.05569">
        <ele>1059.8000488281</ele>
        <time>2014-05-25T11:00:52.000Z</time>
      </trkpt>
      <trkpt lat="45.72722" lon="6.05569">
        <ele>1059.8000488281</ele>
        <time>2014-05-25T11:00:53.000Z</time>
      </trkpt>
      <trkpt lat="45.72711" lon="6.05572">
        <ele>1059.8000488281</ele>
        <time>2014-05-25T11:00:59.000Z</time>
      </trkpt>
      <trkpt lat="45.72707" lon="6.05574">
        <ele>1059.8000488281</ele>
        <time>2014-05-25T11:01:01.000Z</time>
      </trkpt>
      <trkpt lat="45.72698" lon="6.0558">
        <ele>1059.8000488281</ele>
        <time>2014-05-25T11:01:06.000Z</time>
      </trkpt>
      <trkpt lat="45.72693" lon="6.05582">
        <ele>1059.8000488281</ele>
        <time>2014-05-25T11:01:10.000Z</time>
      </trkpt>
      <trkpt lat="45.72688" lon="6.05579">
        <ele>1060</ele>
        <time>2014-05-25T11:01:14.000Z</time>
      </trkpt>
      <trkpt lat="45.72683" lon="6.05571">
        <ele>1060.1999511719</ele>
        <time>2014-05-25T11:01:20.000Z</time>
      </trkpt>
      <trkpt lat="45.72682" lon="6.05566">
        <ele>1060.4000244141</ele>
        <time>2014-05-25T11:01:22.000Z</time>
      </trkpt>
      <trkpt lat="45.72678" lon="6.05553">
        <ele>1060.5999755859</ele>
        <time>2014-05-25T11:01:25.000Z</time>
      </trkpt>
      <trkpt lat="45.72674" lon="6.05543">
        <ele>1061</ele>
        <time>2014-05-25T11:01:29.000Z</time>
      </trkpt>
      <trkpt lat="45.72669" lon="6.0554">
        <ele>1061</ele>
        <time>2014-05-25T11:01:33.000Z</time>
      </trkpt>
      <trkpt lat="45.72665" lon="6.05539">
        <ele>1061.1999511719</ele>
        <time>2014-05-25T11:01:36.000Z</time>
      </trkpt>
      <trkpt lat="45.72659" lon="6.05534">
        <ele>1061.4000244141</ele>
        <time>2014-05-25T11:01:41.000Z</time>
      </trkpt>
      <trkpt lat="45.72657" lon="6.05532">
        <ele>1061.4000244141</ele>
        <time>2014-05-25T11:01:42.000Z</time>
      </trkpt>
      <trkpt lat="45.72647" lon="6.05537">
        <ele>1061.4000244141</ele>
        <time>2014-05-25T11:01:47.000Z</time>
      </trkpt>
      <trkpt lat="45.72634" lon="6.0554">
        <ele>1061.5999755859</ele>
        <time>2014-05-25T11:01:51.000Z</time>
      </trkpt>
      <trkpt lat="45.7262" lon="6.05538">
        <ele>1062.5999755859</ele>
        <time>2014-05-25T11:01:55.000Z</time>
      </trkpt>
      <trkpt lat="45.72618" lon="6.05537">
        <ele>1062.5999755859</ele>
        <time>2014-05-25T11:01:56.000Z</time>
      </trkpt>
      <trkpt lat="45.72602" lon="6.05533">
        <ele>1063</ele>
        <time>2014-05-25T11:02:02.000Z</time>
      </trkpt>
      <trkpt lat="45.72599" lon="6.0553">
        <ele>1063.1999511719</ele>
        <time>2014-05-25T11:02:04.000Z</time>
      </trkpt>
      <trkpt lat="45.7259" lon="6.05525">
        <ele>1063.5999755859</ele>
        <time>2014-05-25T11:02:10.000Z</time>
      </trkpt>
      <trkpt lat="45.72583" lon="6.05524">
        <ele>1063.5999755859</ele>
        <time>2014-05-25T11:02:15.000Z</time>
      </trkpt>
      <trkpt lat="45.72575" lon="6.05528">
        <ele>1063</ele>
        <time>2014-05-25T11:02:21.000Z</time>
      </trkpt>
      <trkpt lat="45.72574" lon="6.05529">
        <ele>1062.5999755859</ele>
        <time>2014-05-25T11:02:22.000Z</time>
      </trkpt>
      <trkpt lat="45.72568" lon="6.05528">
        <ele>1062.8000488281</ele>
        <time>2014-05-25T11:02:27.000Z</time>
      </trkpt>
      <trkpt lat="45.72561" lon="6.05526">
        <ele>1062.8000488281</ele>
        <time>2014-05-25T11:02:33.000Z</time>
      </trkpt>
      <trkpt lat="45.72559" lon="6.05526">
        <ele>1062.5999755859</ele>
        <time>2014-05-25T11:02:34.000Z</time>
      </trkpt>
      <trkpt lat="45.72551" lon="6.05519">
        <ele>1063.4000244141</ele>
        <time>2014-05-25T11:02:40.000Z</time>
      </trkpt>
      <trkpt lat="45.72549" lon="6.05516">
        <ele>1063.8000488281</ele>
        <time>2014-05-25T11:02:42.000Z</time>
      </trkpt>
      <trkpt lat="45.72545" lon="6.05515">
        <ele>1063.8000488281</ele>
        <time>2014-05-25T11:02:44.000Z</time>
      </trkpt>
      <trkpt lat="45.72538" lon="6.05508">
        <ele>1064.8000488281</ele>
        <time>2014-05-25T11:02:49.000Z</time>
      </trkpt>
      <trkpt lat="45.72537" lon="6.05506">
        <ele>1065</ele>
        <time>2014-05-25T11:02:50.000Z</time>
      </trkpt>
      <trkpt lat="45.72533" lon="6.05501">
        <ele>1065.5999755859</ele>
        <time>2014-05-25T11:02:56.000Z</time>
      </trkpt>
      <trkpt lat="45.72532" lon="6.05501">
        <ele>1065.5999755859</ele>
        <time>2014-05-25T11:02:57.000Z</time>
      </trkpt>
      <trkpt lat="45.72528" lon="6.05502">
        <ele>1065.5999755859</ele>
        <time>2014-05-25T11:03:01.000Z</time>
      </trkpt>
      <trkpt lat="45.72524" lon="6.05502">
        <ele>1065.5999755859</ele>
        <time>2014-05-25T11:03:05.000Z</time>
      </trkpt>
      <trkpt lat="45.72516" lon="6.05495">
        <ele>1066.4000244141</ele>
        <time>2014-05-25T11:03:10.000Z</time>
      </trkpt>
      <trkpt lat="45.72514" lon="6.0549">
        <ele>1067</ele>
        <time>2014-05-25T11:03:17.000Z</time>
      </trkpt>
      <trkpt lat="45.72513" lon="6.05484">
        <ele>1067.5999755859</ele>
        <time>2014-05-25T11:03:21.000Z</time>
      </trkpt>
      <trkpt lat="45.72509" lon="6.05481">
        <ele>1068</ele>
        <time>2014-05-25T11:03:28.000Z</time>
      </trkpt>
      <trkpt lat="45.72504" lon="6.05482">
        <ele>1068</ele>
        <time>2014-05-25T11:03:39.000Z</time>
      </trkpt>
      <trkpt lat="45.72501" lon="6.0548">
        <ele>1068.1999511719</ele>
        <time>2014-05-25T11:03:41.000Z</time>
      </trkpt>
      <trkpt lat="45.725" lon="6.05477">
        <ele>1068.5999755859</ele>
        <time>2014-05-25T11:03:43.000Z</time>
      </trkpt>
      <trkpt lat="45.72495" lon="6.05479">
        <ele>1068.4000244141</ele>
        <time>2014-05-25T11:03:49.000Z</time>
      </trkpt>
      <trkpt lat="45.72491" lon="6.05473">
        <ele>1069.1999511719</ele>
        <time>2014-05-25T11:03:54.000Z</time>
      </trkpt>
      <trkpt lat="45.72488" lon="6.05474">
        <ele>1069</ele>
        <time>2014-05-25T11:03:56.000Z</time>
      </trkpt>
      <trkpt lat="45.7248" lon="6.05482">
        <ele>1068.1999511719</ele>
        <time>2014-05-25T11:04:02.000Z</time>
      </trkpt>
      <trkpt lat="45.7248" lon="6.05483">
        <ele>1068.1999511719</ele>
        <time>2014-05-25T11:04:03.000Z</time>
      </trkpt>
      <trkpt lat="45.7248" lon="6.05478">
        <ele>1068.5999755859</ele>
        <time>2014-05-25T11:04:07.000Z</time>
      </trkpt>
      <trkpt lat="45.72477" lon="6.05473">
        <ele>1069.1999511719</ele>
        <time>2014-05-25T11:04:10.000Z</time>
      </trkpt>
      <trkpt lat="45.72469" lon="6.05474">
        <ele>1069.5999755859</ele>
        <time>2014-05-25T11:04:16.000Z</time>
      </trkpt>
      <trkpt lat="45.72464" lon="6.05475">
        <ele>1070</ele>
        <time>2014-05-25T11:04:19.000Z</time>
      </trkpt>
      <trkpt lat="45.72459" lon="6.05469">
        <ele>1071.5999755859</ele>
        <time>2014-05-25T11:04:23.000Z</time>
      </trkpt>
      <trkpt lat="45.72457" lon="6.05467">
        <ele>1072</ele>
        <time>2014-05-25T11:04:25.000Z</time>
      </trkpt>
      <trkpt lat="45.72453" lon="6.05466">
        <ele>1072.8000488281</ele>
        <time>2014-05-25T11:04:30.000Z</time>
      </trkpt>
      <trkpt lat="45.72451" lon="6.0546">
        <ele>1073.8000488281</ele>
        <time>2014-05-25T11:04:35.000Z</time>
      </trkpt>
      <trkpt lat="45.72449" lon="6.05461">
        <ele>1074</ele>
        <time>2014-05-25T11:04:40.000Z</time>
      </trkpt>
      <trkpt lat="45.72444" lon="6.05458">
        <ele>1075</ele>
        <time>2014-05-25T11:04:46.000Z</time>
      </trkpt>
      <trkpt lat="45.72437" lon="6.05451">
        <ele>1076.8000488281</ele>
        <time>2014-05-25T11:04:56.000Z</time>
      </trkpt>
      <trkpt lat="45.72435" lon="6.05445">
        <ele>1077.8000488281</ele>
        <time>2014-05-25T11:05:01.000Z</time>
      </trkpt>
      <trkpt lat="45.7243" lon="6.0544">
        <ele>1079</ele>
        <time>2014-05-25T11:05:06.000Z</time>
      </trkpt>
      <trkpt lat="45.72424" lon="6.05434">
        <ele>1080.8000488281</ele>
        <time>2014-05-25T11:05:13.000Z</time>
      </trkpt>
      <trkpt lat="45.72423" lon="6.05434">
        <ele>1080.8000488281</ele>
        <time>2014-05-25T11:05:14.000Z</time>
      </trkpt>
      <trkpt lat="45.72417" lon="6.05431">
        <ele>1082</ele>
        <time>2014-05-25T11:05:21.000Z</time>
      </trkpt>
      <trkpt lat="45.72413" lon="6.05423">
        <ele>1083.5999755859</ele>
        <time>2014-05-25T11:05:27.000Z</time>
      </trkpt>
      <trkpt lat="45.72413" lon="6.05423">
        <ele>1083.5999755859</ele>
        <time>2014-05-25T11:05:35.000Z</time>
      </trkpt>
      <trkpt lat="45.72415" lon="6.05422">
        <ele>1083.5999755859</ele>
        <time>2014-05-25T11:05:41.000Z</time>
      </trkpt>
      <trkpt lat="45.72413" lon="6.05415">
        <ele>1084.8000488281</ele>
        <time>2014-05-25T11:05:47.000Z</time>
      </trkpt>
      <trkpt lat="45.72413" lon="6.05408">
        <ele>1085.5999755859</ele>
        <time>2014-05-25T11:05:52.000Z</time>
      </trkpt>
      <trkpt lat="45.72415" lon="6.05403">
        <ele>1086</ele>
        <time>2014-05-25T11:05:57.000Z</time>
      </trkpt>
      <trkpt lat="45.72415" lon="6.05399">
        <ele>1086.4000244141</ele>
        <time>2014-05-25T11:05:59.000Z</time>
      </trkpt>
      <trkpt lat="45.72416" lon="6.05391">
        <ele>1087.4000244141</ele>
        <time>2014-05-25T11:06:03.000Z</time>
      </trkpt>
      <trkpt lat="45.72414" lon="6.05386">
        <ele>1088.4000244141</ele>
        <time>2014-05-25T11:06:07.000Z</time>
      </trkpt>
      <trkpt lat="45.72415" lon="6.05384">
        <ele>1088.8000488281</ele>
        <time>2014-05-25T11:06:09.000Z</time>
      </trkpt>
      <trkpt lat="45.72413" lon="6.05377">
        <ele>1090</ele>
        <time>2014-05-25T11:06:14.000Z</time>
      </trkpt>
      <trkpt lat="45.72413" lon="6.05376">
        <ele>1090.1999511719</ele>
        <time>2014-05-25T11:06:15.000Z</time>
      </trkpt>
      <trkpt lat="45.72412" lon="6.0537">
        <ele>1091.4000244141</ele>
        <time>2014-05-25T11:06:21.000Z</time>
      </trkpt>
      <trkpt lat="45.72411" lon="6.05367">
        <ele>1091.8000488281</ele>
        <time>2014-05-25T11:06:26.000Z</time>
      </trkpt>
      <trkpt lat="45.72404" lon="6.05368">
        <ele>1092.5999755859</ele>
        <time>2014-05-25T11:06:32.000Z</time>
      </trkpt>
      <trkpt lat="45.72399" lon="6.05369">
        <ele>1093.1999511719</ele>
        <time>2014-05-25T11:06:40.000Z</time>
      </trkpt>
      <trkpt lat="45.72395" lon="6.05368">
        <ele>1093.8000488281</ele>
        <time>2014-05-25T11:06:43.000Z</time>
      </trkpt>
      <trkpt lat="45.7239" lon="6.05358">
        <ele>1096</ele>
        <time>2014-05-25T11:06:49.000Z</time>
      </trkpt>
      <trkpt lat="45.72388" lon="6.05351">
        <ele>1097.4000244141</ele>
        <time>2014-05-25T11:06:54.000Z</time>
      </trkpt>
      <trkpt lat="45.72383" lon="6.05343">
        <ele>1099.4000244141</ele>
        <time>2014-05-25T11:07:03.000Z</time>
      </trkpt>
      <trkpt lat="45.7238" lon="6.05343">
        <ele>1100</ele>
        <time>2014-05-25T11:07:08.000Z</time>
      </trkpt>
      <trkpt lat="45.72377" lon="6.05342">
        <ele>1100.8000488281</ele>
        <time>2014-05-25T11:07:15.000Z</time>
      </trkpt>
      <trkpt lat="45.72374" lon="6.05343">
        <ele>1101.1999511719</ele>
        <time>2014-05-25T11:07:28.000Z</time>
      </trkpt>
      <trkpt lat="45.72372" lon="6.05339">
        <ele>1102</ele>
        <time>2014-05-25T11:07:31.000Z</time>
      </trkpt>
      <trkpt lat="45.72369" lon="6.05333">
        <ele>1103.4000244141</ele>
        <time>2014-05-25T11:07:38.000Z</time>
      </trkpt>
      <trkpt lat="45.72364" lon="6.05326">
        <ele>1105.4000244141</ele>
        <time>2014-05-25T11:07:46.000Z</time>
      </trkpt>
      <trkpt lat="45.72361" lon="6.05325">
        <ele>1106.1999511719</ele>
        <time>2014-05-25T11:07:52.000Z</time>
      </trkpt>
      <trkpt lat="45.72356" lon="6.05324">
        <ele>1107.4000244141</ele>
        <time>2014-05-25T11:07:59.000Z</time>
      </trkpt>
      <trkpt lat="45.72351" lon="6.05327">
        <ele>1107.5999755859</ele>
        <time>2014-05-25T11:08:04.000Z</time>
      </trkpt>
      <trkpt lat="45.72349" lon="6.0533">
        <ele>1107.5999755859</ele>
        <time>2014-05-25T11:08:07.000Z</time>
      </trkpt>
      <trkpt lat="45.72344" lon="6.05336">
        <ele>1107.5999755859</ele>
        <time>2014-05-25T11:08:13.000Z</time>
      </trkpt>
      <trkpt lat="45.72341" lon="6.05342">
        <ele>1107.1999511719</ele>
        <time>2014-05-25T11:08:20.000Z</time>
      </trkpt>
      <trkpt lat="45.72338" lon="6.05341">
        <ele>1108</ele>
        <time>2014-05-25T11:08:27.000Z</time>
      </trkpt>
      <trkpt lat="45.72334" lon="6.05344">
        <ele>1108.1999511719</ele>
        <time>2014-05-25T11:08:33.000Z</time>
      </trkpt>
      <trkpt lat="45.72333" lon="6.05347">
        <ele>1108</ele>
        <time>2014-05-25T11:08:38.000Z</time>
      </trkpt>
      <trkpt lat="45.72333" lon="6.05345">
        <ele>1108.4000244141</ele>
        <time>2014-05-25T11:08:48.000Z</time>
      </trkpt>
      <trkpt lat="45.72339" lon="6.05334">
        <ele>1108.8000488281</ele>
        <time>2014-05-25T11:08:53.000Z</time>
      </trkpt>
      <trkpt lat="45.72344" lon="6.05325">
        <ele>1109.1999511719</ele>
        <time>2014-05-25T11:08:58.000Z</time>
      </trkpt>
      <trkpt lat="45.72345" lon="6.05323">
        <ele>1109.4000244141</ele>
        <time>2014-05-25T11:08:59.000Z</time>
      </trkpt>
      <trkpt lat="45.72347" lon="6.0532">
        <ele>1109.5999755859</ele>
        <time>2014-05-25T11:09:01.000Z</time>
      </trkpt>
      <trkpt lat="45.72354" lon="6.05308">
        <ele>1110.1999511719</ele>
        <time>2014-05-25T11:09:08.000Z</time>
      </trkpt>
      <trkpt lat="45.72357" lon="6.05303">
        <ele>1110.4000244141</ele>
        <time>2014-05-25T11:09:14.000Z</time>
      </trkpt>
      <trkpt lat="45.72358" lon="6.05298">
        <ele>1111</ele>
        <time>2014-05-25T11:09:19.000Z</time>
      </trkpt>
      <trkpt lat="45.72361" lon="6.05294">
        <ele>1111.1999511719</ele>
        <time>2014-05-25T11:09:24.000Z</time>
      </trkpt>
      <trkpt lat="45.72365" lon="6.05291">
        <ele>1111</ele>
        <time>2014-05-25T11:09:29.000Z</time>
      </trkpt>
      <trkpt lat="45.72367" lon="6.05289">
        <ele>1110.8000488281</ele>
        <time>2014-05-25T11:09:36.000Z</time>
      </trkpt>
      <trkpt lat="45.72373" lon="6.05281">
        <ele>1110.8000488281</ele>
        <time>2014-05-25T11:09:43.000Z</time>
      </trkpt>
      <trkpt lat="45.72374" lon="6.0528">
        <ele>1110.8000488281</ele>
        <time>2014-05-25T11:09:44.000Z</time>
      </trkpt>
      <trkpt lat="45.72379" lon="6.05274">
        <ele>1110.5999755859</ele>
        <time>2014-05-25T11:09:49.000Z</time>
      </trkpt>
      <trkpt lat="45.72392" lon="6.0527">
        <ele>1108.8000488281</ele>
        <time>2014-05-25T11:09:54.000Z</time>
      </trkpt>
      <trkpt lat="45.72393" lon="6.05269">
        <ele>1108.8000488281</ele>
        <time>2014-05-25T11:09:55.000Z</time>
      </trkpt>
      <trkpt lat="45.724" lon="6.05269">
        <ele>1107.5999755859</ele>
        <time>2014-05-25T11:10:02.000Z</time>
      </trkpt>
      <trkpt lat="45.72409" lon="6.05261">
        <ele>1107.4000244141</ele>
        <time>2014-05-25T11:10:07.000Z</time>
      </trkpt>
      <trkpt lat="45.7241" lon="6.05257">
        <ele>1107.5999755859</ele>
        <time>2014-05-25T11:10:09.000Z</time>
      </trkpt>
      <trkpt lat="45.72414" lon="6.05251">
        <ele>1108</ele>
        <time>2014-05-25T11:10:14.000Z</time>
      </trkpt>
      <trkpt lat="45.72412" lon="6.05248">
        <ele>1108.5999755859</ele>
        <time>2014-05-25T11:10:29.000Z</time>
      </trkpt>
      <trkpt lat="45.72415" lon="6.05254">
        <ele>1107.4000244141</ele>
        <time>2014-05-25T11:10:35.000Z</time>
      </trkpt>
      <trkpt lat="45.72412" lon="6.05256">
        <ele>1107.4000244141</ele>
        <time>2014-05-25T11:10:42.000Z</time>
      </trkpt>
      <trkpt lat="45.72408" lon="6.05257">
        <ele>1108.1999511719</ele>
        <time>2014-05-25T11:10:48.000Z</time>
      </trkpt>
      <trkpt lat="45.72405" lon="6.05261">
        <ele>1108</ele>
        <time>2014-05-25T11:10:51.000Z</time>
      </trkpt>
      <trkpt lat="45.724" lon="6.05266">
        <ele>1108</ele>
        <time>2014-05-25T11:10:55.000Z</time>
      </trkpt>
      <trkpt lat="45.72396" lon="6.05269">
        <ele>1108.1999511719</ele>
        <time>2014-05-25T11:11:00.000Z</time>
      </trkpt>
      <trkpt lat="45.72391" lon="6.05273">
        <ele>1108.4000244141</ele>
        <time>2014-05-25T11:11:05.000Z</time>
      </trkpt>
      <trkpt lat="45.72389" lon="6.05278">
        <ele>1108.1999511719</ele>
        <time>2014-05-25T11:11:08.000Z</time>
      </trkpt>
      <trkpt lat="45.72382" lon="6.05288">
        <ele>1108</ele>
        <time>2014-05-25T11:11:14.000Z</time>
      </trkpt>
      <trkpt lat="45.72379" lon="6.05292">
        <ele>1108</ele>
        <time>2014-05-25T11:11:17.000Z</time>
      </trkpt>
      <trkpt lat="45.72376" lon="6.05296">
        <ele>1108</ele>
        <time>2014-05-25T11:11:20.000Z</time>
      </trkpt>
      <trkpt lat="45.7237" lon="6.05301">
        <ele>1108.5999755859</ele>
        <time>2014-05-25T11:11:28.000Z</time>
      </trkpt>
      <trkpt lat="45.72366" lon="6.05303">
        <ele>1108.8000488281</ele>
        <time>2014-05-25T11:11:33.000Z</time>
      </trkpt>
      <trkpt lat="45.72361" lon="6.05304">
        <ele>1109.4000244141</ele>
        <time>2014-05-25T11:11:38.000Z</time>
      </trkpt>
      <trkpt lat="45.72358" lon="6.05308">
        <ele>1109.1999511719</ele>
        <time>2014-05-25T11:11:43.000Z</time>
      </trkpt>
      <trkpt lat="45.72356" lon="6.05318">
        <ele>1108.1999511719</ele>
        <time>2014-05-25T11:11:48.000Z</time>
      </trkpt>
      <trkpt lat="45.72351" lon="6.05325">
        <ele>1108.1999511719</ele>
        <time>2014-05-25T11:11:53.000Z</time>
      </trkpt>
      <trkpt lat="45.72346" lon="6.05337">
        <ele>1107.1999511719</ele>
        <time>2014-05-25T11:11:59.000Z</time>
      </trkpt>
      <trkpt lat="45.72344" lon="6.05342">
        <ele>1106.8000488281</ele>
        <time>2014-05-25T11:12:04.000Z</time>
      </trkpt>
      <trkpt lat="45.7234" lon="6.05352">
        <ele>1106</ele>
        <time>2014-05-25T11:12:14.000Z</time>
      </trkpt>
      <trkpt lat="45.72339" lon="6.05355">
        <ele>1105.8000488281</ele>
        <time>2014-05-25T11:12:16.000Z</time>
      </trkpt>
      <trkpt lat="45.72338" lon="6.05358">
        <ele>1105.8000488281</ele>
        <time>2014-05-25T11:12:19.000Z</time>
      </trkpt>
      <trkpt lat="45.72333" lon="6.05364">
        <ele>1105.8000488281</ele>
        <time>2014-05-25T11:12:24.000Z</time>
      </trkpt>
      <trkpt lat="45.72332" lon="6.05367">
        <ele>1105.8000488281</ele>
        <time>2014-05-25T11:12:26.000Z</time>
      </trkpt>
      <trkpt lat="45.72328" lon="6.05368">
        <ele>1106.4000244141</ele>
        <time>2014-05-25T11:12:30.000Z</time>
      </trkpt>
      <trkpt lat="45.7232" lon="6.0537">
        <ele>1107.5999755859</ele>
        <time>2014-05-25T11:12:38.000Z</time>
      </trkpt>
      <trkpt lat="45.72316" lon="6.05371">
        <ele>1108.4000244141</ele>
        <time>2014-05-25T11:12:42.000Z</time>
      </trkpt>
      <trkpt lat="45.72313" lon="6.05374">
        <ele>1108.5999755859</ele>
        <time>2014-05-25T11:12:45.000Z</time>
      </trkpt>
      <trkpt lat="45.72308" lon="6.05376">
        <ele>1109.4000244141</ele>
        <time>2014-05-25T11:12:50.000Z</time>
      </trkpt>
      <trkpt lat="45.72305" lon="6.05379">
        <ele>1109.5999755859</ele>
        <time>2014-05-25T11:12:56.000Z</time>
      </trkpt>
      <trkpt lat="45.72309" lon="6.05375">
        <ele>1109.1999511719</ele>
        <time>2014-05-25T11:13:13.000Z</time>
      </trkpt>
      <trkpt lat="45.72307" lon="6.05383">
        <ele>1108.5999755859</ele>
        <time>2014-05-25T11:13:17.000Z</time>
      </trkpt>
      <trkpt lat="45.72306" lon="6.05386">
        <ele>1108.4000244141</ele>
        <time>2014-05-25T11:13:18.000Z</time>
      </trkpt>
      <trkpt lat="45.723" lon="6.05403">
        <ele>1107.1999511719</ele>
        <time>2014-05-25T11:13:23.000Z</time>
      </trkpt>
      <trkpt lat="45.72296" lon="6.05413">
        <ele>1106.5999755859</ele>
        <time>2014-05-25T11:13:27.000Z</time>
      </trkpt>
      <trkpt lat="45.72294" lon="6.05416">
        <ele>1106.4000244141</ele>
        <time>2014-05-25T11:13:32.000Z</time>
      </trkpt>
      <trkpt lat="45.72293" lon="6.05419">
        <ele>1106.1999511719</ele>
        <time>2014-05-25T11:13:34.000Z</time>
      </trkpt>
      <trkpt lat="45.72291" lon="6.05425">
        <ele>1106</ele>
        <time>2014-05-25T11:13:38.000Z</time>
      </trkpt>
      <trkpt lat="45.72288" lon="6.05437">
        <ele>1104.8000488281</ele>
        <time>2014-05-25T11:13:44.000Z</time>
      </trkpt>
      <trkpt lat="45.72285" lon="6.05448">
        <ele>1103.5999755859</ele>
        <time>2014-05-25T11:13:48.000Z</time>
      </trkpt>
      <trkpt lat="45.72281" lon="6.05455">
        <ele>1103.4000244141</ele>
        <time>2014-05-25T11:13:52.000Z</time>
      </trkpt>
      <trkpt lat="45.72278" lon="6.05457">
        <ele>1103.4000244141</ele>
        <time>2014-05-25T11:13:55.000Z</time>
      </trkpt>
      <trkpt lat="45.72273" lon="6.05467">
        <ele>1102.8000488281</ele>
        <time>2014-05-25T11:14:01.000Z</time>
      </trkpt>
      <trkpt lat="45.72272" lon="6.05467">
        <ele>1102.8000488281</ele>
        <time>2014-05-25T11:14:02.000Z</time>
      </trkpt>
      <trkpt lat="45.72272" lon="6.05472">
        <ele>1101.8000488281</ele>
        <time>2014-05-25T11:14:05.000Z</time>
      </trkpt>
      <trkpt lat="45.72273" lon="6.05477">
        <ele>1100.8000488281</ele>
        <time>2014-05-25T11:14:09.000Z</time>
      </trkpt>
      <trkpt lat="45.72277" lon="6.0548">
        <ele>1099.1999511719</ele>
        <time>2014-05-25T11:14:15.000Z</time>
      </trkpt>
      <trkpt lat="45.7228" lon="6.05481">
        <ele>1098.5999755859</ele>
        <time>2014-05-25T11:14:19.000Z</time>
      </trkpt>
      <trkpt lat="45.72282" lon="6.05487">
        <ele>1097.1999511719</ele>
        <time>2014-05-25T11:14:25.000Z</time>
      </trkpt>
      <trkpt lat="45.72285" lon="6.05494">
        <ele>1095.4000244141</ele>
        <time>2014-05-25T11:14:42.000Z</time>
      </trkpt>
      <trkpt lat="45.72287" lon="6.05486">
        <ele>1096.5999755859</ele>
        <time>2014-05-25T11:14:48.000Z</time>
      </trkpt>
      <trkpt lat="45.7229" lon="6.05483">
        <ele>1096.1999511719</ele>
        <time>2014-05-25T11:14:54.000Z</time>
      </trkpt>
      <trkpt lat="45.72292" lon="6.05476">
        <ele>1097.1999511719</ele>
        <time>2014-05-25T11:14:59.000Z</time>
      </trkpt>
      <trkpt lat="45.72291" lon="6.05467">
        <ele>1099.1999511719</ele>
        <time>2014-05-25T11:15:05.000Z</time>
      </trkpt>
      <trkpt lat="45.72292" lon="6.05464">
        <ele>1099.4000244141</ele>
        <time>2014-05-25T11:15:07.000Z</time>
      </trkpt>
      <trkpt lat="45.72293" lon="6.0546">
        <ele>1099.8000488281</ele>
        <time>2014-05-25T11:15:10.000Z</time>
      </trkpt>
      <trkpt lat="45.72297" lon="6.05457">
        <ele>1099.4000244141</ele>
        <time>2014-05-25T11:15:14.000Z</time>
      </trkpt>
      <trkpt lat="45.72302" lon="6.05449">
        <ele>1099.8000488281</ele>
        <time>2014-05-25T11:15:20.000Z</time>
      </trkpt>
      <trkpt lat="45.72305" lon="6.05444">
        <ele>1099.8000488281</ele>
        <time>2014-05-25T11:15:25.000Z</time>
      </trkpt>
      <trkpt lat="45.72312" lon="6.05449">
        <ele>1097.5999755859</ele>
        <time>2014-05-25T11:15:30.000Z</time>
      </trkpt>
      <trkpt lat="45.72316" lon="6.05447">
        <ele>1097.5999755859</ele>
        <time>2014-05-25T11:15:33.000Z</time>
      </trkpt>
      <trkpt lat="45.72318" lon="6.05444">
        <ele>1097.5999755859</ele>
        <time>2014-05-25T11:15:35.000Z</time>
      </trkpt>
      <trkpt lat="45.72323" lon="6.0544">
        <ele>1097.4000244141</ele>
        <time>2014-05-25T11:15:38.000Z</time>
      </trkpt>
      <trkpt lat="45.72326" lon="6.05433">
        <ele>1098</ele>
        <time>2014-05-25T11:15:44.000Z</time>
      </trkpt>
      <trkpt lat="45.72328" lon="6.05424">
        <ele>1099</ele>
        <time>2014-05-25T11:15:52.000Z</time>
      </trkpt>
      <trkpt lat="45.72333" lon="6.05416">
        <ele>1099</ele>
        <time>2014-05-25T11:15:56.000Z</time>
      </trkpt>
      <trkpt lat="45.72341" lon="6.05408">
        <ele>1098.5999755859</ele>
        <time>2014-05-25T11:16:01.000Z</time>
      </trkpt>
      <trkpt lat="45.72349" lon="6.05397">
        <ele>1098.1999511719</ele>
        <time>2014-05-25T11:16:06.000Z</time>
      </trkpt>
      <trkpt lat="45.7235" lon="6.05396">
        <ele>1098.1999511719</ele>
        <time>2014-05-25T11:16:08.000Z</time>
      </trkpt>
      <trkpt lat="45.72356" lon="6.05388">
        <ele>1098</ele>
        <time>2014-05-25T11:16:14.000Z</time>
      </trkpt>
      <trkpt lat="45.72357" lon="6.05383">
        <ele>1098.4000244141</ele>
        <time>2014-05-25T11:16:16.000Z</time>
      </trkpt>
      <trkpt lat="45.72361" lon="6.05377">
        <ele>1098.4000244141</ele>
        <time>2014-05-25T11:16:21.000Z</time>
      </trkpt>
      <trkpt lat="45.72362" lon="6.05374">
        <ele>1098.5999755859</ele>
        <time>2014-05-25T11:16:30.000Z</time>
      </trkpt>
      <trkpt lat="45.72364" lon="6.05368">
        <ele>1099</ele>
        <time>2014-05-25T11:16:39.000Z</time>
      </trkpt>
      <trkpt lat="45.72371" lon="6.05363">
        <ele>1098.5999755859</ele>
        <time>2014-05-25T11:16:43.000Z</time>
      </trkpt>
      <trkpt lat="45.72379" lon="6.05347">
        <ele>1099.4000244141</ele>
        <time>2014-05-25T11:16:49.000Z</time>
      </trkpt>
      <trkpt lat="45.72383" lon="6.05343">
        <ele>1099.4000244141</ele>
        <time>2014-05-25T11:16:53.000Z</time>
      </trkpt>
      <trkpt lat="45.72384" lon="6.0534">
        <ele>1099.8000488281</ele>
        <time>2014-05-25T11:16:56.000Z</time>
      </trkpt>
      <trkpt lat="45.72384" lon="6.05334">
        <ele>1100.8000488281</ele>
        <time>2014-05-25T11:17:03.000Z</time>
      </trkpt>
      <trkpt lat="45.72393" lon="6.05332">
        <ele>1099.8000488281</ele>
        <time>2014-05-25T11:17:09.000Z</time>
      </trkpt>
      <trkpt lat="45.72397" lon="6.05327">
        <ele>1100</ele>
        <time>2014-05-25T11:17:16.000Z</time>
      </trkpt>
      <trkpt lat="45.72404" lon="6.05325">
        <ele>1099.1999511719</ele>
        <time>2014-05-25T11:17:22.000Z</time>
      </trkpt>
      <trkpt lat="45.72406" lon="6.05324">
        <ele>1099</ele>
        <time>2014-05-25T11:17:28.000Z</time>
      </trkpt>
      <trkpt lat="45.72405" lon="6.05322">
        <ele>1099.5999755859</ele>
        <time>2014-05-25T11:17:32.000Z</time>
      </trkpt>
      <trkpt lat="45.72404" lon="6.05328">
        <ele>1098.8000488281</ele>
        <time>2014-05-25T11:17:36.000Z</time>
      </trkpt>
      <trkpt lat="45.72403" lon="6.05332">
        <ele>1098.4000244141</ele>
        <time>2014-05-25T11:17:38.000Z</time>
      </trkpt>
      <trkpt lat="45.72398" lon="6.05335">
        <ele>1098.5999755859</ele>
        <time>2014-05-25T11:17:46.000Z</time>
      </trkpt>
      <trkpt lat="45.72398" lon="6.05335">
        <ele>1098.5999755859</ele>
        <time>2014-05-25T11:17:47.000Z</time>
      </trkpt>
      <trkpt lat="45.7239" lon="6.0533">
        <ele>1100.4000244141</ele>
        <time>2014-05-25T11:17:53.000Z</time>
      </trkpt>
      <trkpt lat="45.72386" lon="6.0532">
        <ele>1102.5999755859</ele>
        <time>2014-05-25T11:18:00.000Z</time>
      </trkpt>
      <trkpt lat="45.72382" lon="6.05309">
        <ele>1105</ele>
        <time>2014-05-25T11:18:13.000Z</time>
      </trkpt>
      <trkpt lat="45.72378" lon="6.05307">
        <ele>1106</ele>
        <time>2014-05-25T11:18:22.000Z</time>
      </trkpt>
      <trkpt lat="45.72373" lon="6.05306">
        <ele>1107.1999511719</ele>
        <time>2014-05-25T11:18:30.000Z</time>
      </trkpt>
      <trkpt lat="45.72369" lon="6.05301">
        <ele>1108.5999755859</ele>
        <time>2014-05-25T11:18:36.000Z</time>
      </trkpt>
      <trkpt lat="45.72365" lon="6.05299">
        <ele>1109.5999755859</ele>
        <time>2014-05-25T11:18:42.000Z</time>
      </trkpt>
      <trkpt lat="45.72362" lon="6.05301">
        <ele>1109.8000488281</ele>
        <time>2014-05-25T11:18:50.000Z</time>
      </trkpt>
      <trkpt lat="45.72358" lon="6.05306">
        <ele>1109.8000488281</ele>
        <time>2014-05-25T11:18:57.000Z</time>
      </trkpt>
      <trkpt lat="45.72352" lon="6.05316">
        <ele>1109.4000244141</ele>
        <time>2014-05-25T11:19:03.000Z</time>
      </trkpt>
      <trkpt lat="45.7235" lon="6.05322">
        <ele>1108.5999755859</ele>
        <time>2014-05-25T11:19:07.000Z</time>
      </trkpt>
      <trkpt lat="45.7235" lon="6.05325">
        <ele>1108.1999511719</ele>
        <time>2014-05-25T11:19:09.000Z</time>
      </trkpt>
      <trkpt lat="45.72347" lon="6.05336">
        <ele>1107.1999511719</ele>
        <time>2014-05-25T11:19:13.000Z</time>
      </trkpt>
      <trkpt lat="45.72342" lon="6.05343">
        <ele>1106.8000488281</ele>
        <time>2014-05-25T11:19:19.000Z</time>
      </trkpt>
      <trkpt lat="45.72341" lon="6.05348">
        <ele>1106.4000244141</ele>
        <time>2014-05-25T11:19:23.000Z</time>
      </trkpt>
      <trkpt lat="45.72338" lon="6.05354">
        <ele>1106</ele>
        <time>2014-05-25T11:19:28.000Z</time>
      </trkpt>
      <trkpt lat="45.72336" lon="6.05357">
        <ele>1106.1999511719</ele>
        <time>2014-05-25T11:19:33.000Z</time>
      </trkpt>
      <trkpt lat="45.72331" lon="6.05358">
        <ele>1107</ele>
        <time>2014-05-25T11:19:38.000Z</time>
      </trkpt>
      <trkpt lat="45.72328" lon="6.05357">
        <ele>1107.8000488281</ele>
        <time>2014-05-25T11:19:43.000Z</time>
      </trkpt>
      <trkpt lat="45.72322" lon="6.05357">
        <ele>1109</ele>
        <time>2014-05-25T11:19:49.000Z</time>
      </trkpt>
      <trkpt lat="45.72317" lon="6.05363">
        <ele>1109.1999511719</ele>
        <time>2014-05-25T11:19:54.000Z</time>
      </trkpt>
      <trkpt lat="45.72316" lon="6.05366">
        <ele>1109</ele>
        <time>2014-05-25T11:19:56.000Z</time>
      </trkpt>
      <trkpt lat="45.72313" lon="6.05373">
        <ele>1108.8000488281</ele>
        <time>2014-05-25T11:20:01.000Z</time>
      </trkpt>
      <trkpt lat="45.72312" lon="6.05374">
        <ele>1108.5999755859</ele>
        <time>2014-05-25T11:20:02.000Z</time>
      </trkpt>
      <trkpt lat="45.72307" lon="6.05386">
        <ele>1108.1999511719</ele>
        <time>2014-05-25T11:20:09.000Z</time>
      </trkpt>
      <trkpt lat="45.723" lon="6.05398">
        <ele>1108</ele>
        <time>2014-05-25T11:20:14.000Z</time>
      </trkpt>
      <trkpt lat="45.72297" lon="6.05404">
        <ele>1107.8000488281</ele>
        <time>2014-05-25T11:20:17.000Z</time>
      </trkpt>
      <trkpt lat="45.72292" lon="6.0542">
        <ele>1106.4000244141</ele>
        <time>2014-05-25T11:20:22.000Z</time>
      </trkpt>
      <trkpt lat="45.72291" lon="6.05427">
        <ele>1105.5999755859</ele>
        <time>2014-05-25T11:20:26.000Z</time>
      </trkpt>
      <trkpt lat="45.72291" lon="6.0543">
        <ele>1105</ele>
        <time>2014-05-25T11:20:27.000Z</time>
      </trkpt>
      <trkpt lat="45.72284" lon="6.05454">
        <ele>1103</ele>
        <time>2014-05-25T11:20:32.000Z</time>
      </trkpt>
      <trkpt lat="45.72283" lon="6.05457">
        <ele>1102.8000488281</ele>
        <time>2014-05-25T11:20:33.000Z</time>
      </trkpt>
      <trkpt lat="45.72278" lon="6.05464">
        <ele>1102.1999511719</ele>
        <time>2014-05-25T11:20:40.000Z</time>
      </trkpt>
      <trkpt lat="45.72276" lon="6.05475">
        <ele>1100.4000244141</ele>
        <time>2014-05-25T11:20:46.000Z</time>
      </trkpt>
      <trkpt lat="45.72276" lon="6.05476">
        <ele>1100.4000244141</ele>
        <time>2014-05-25T11:20:47.000Z</time>
      </trkpt>
      <trkpt lat="45.72273" lon="6.05487">
        <ele>1099</ele>
        <time>2014-05-25T11:20:54.000Z</time>
      </trkpt>
      <trkpt lat="45.72273" lon="6.0549">
        <ele>1098.5999755859</ele>
        <time>2014-05-25T11:20:57.000Z</time>
      </trkpt>
      <trkpt lat="45.72269" lon="6.05498">
        <ele>1097.5999755859</ele>
        <time>2014-05-25T11:21:02.000Z</time>
      </trkpt>
      <trkpt lat="45.72261" lon="6.05512">
        <ele>1096.8000488281</ele>
        <time>2014-05-25T11:21:09.000Z</time>
      </trkpt>
      <trkpt lat="45.72257" lon="6.05524">
        <ele>1095.1999511719</ele>
        <time>2014-05-25T11:21:13.000Z</time>
      </trkpt>
      <trkpt lat="45.7225" lon="6.05542">
        <ele>1093</ele>
        <time>2014-05-25T11:21:19.000Z</time>
      </trkpt>
      <trkpt lat="45.72243" lon="6.05556">
        <ele>1091.5999755859</ele>
        <time>2014-05-25T11:21:23.000Z</time>
      </trkpt>
      <trkpt lat="45.72239" lon="6.05563">
        <ele>1091</ele>
        <time>2014-05-25T11:21:27.000Z</time>
      </trkpt>
      <trkpt lat="45.72234" lon="6.05571">
        <ele>1090.4000244141</ele>
        <time>2014-05-25T11:21:33.000Z</time>
      </trkpt>
      <trkpt lat="45.72229" lon="6.05582">
        <ele>1088.8000488281</ele>
        <time>2014-05-25T11:21:40.000Z</time>
      </trkpt>
      <trkpt lat="45.72221" lon="6.05592">
        <ele>1088</ele>
        <time>2014-05-25T11:21:46.000Z</time>
      </trkpt>
      <trkpt lat="45.72217" lon="6.05597">
        <ele>1087.5999755859</ele>
        <time>2014-05-25T11:21:48.000Z</time>
      </trkpt>
      <trkpt lat="45.72209" lon="6.05612">
        <ele>1085.8000488281</ele>
        <time>2014-05-25T11:21:54.000Z</time>
      </trkpt>
      <trkpt lat="45.72202" lon="6.05628">
        <ele>1083.4000244141</ele>
        <time>2014-05-25T11:21:59.000Z</time>
      </trkpt>
      <trkpt lat="45.72198" lon="6.05636">
        <ele>1082.5999755859</ele>
        <time>2014-05-25T11:22:02.000Z</time>
      </trkpt>
      <trkpt lat="45.72193" lon="6.05643">
        <ele>1082.1999511719</ele>
        <time>2014-05-25T11:22:07.000Z</time>
      </trkpt>
      <trkpt lat="45.7219" lon="6.05648">
        <ele>1081.8000488281</ele>
        <time>2014-05-25T11:22:11.000Z</time>
      </trkpt>
      <trkpt lat="45.72186" lon="6.0566">
        <ele>1080.4000244141</ele>
        <time>2014-05-25T11:22:17.000Z</time>
      </trkpt>
      <trkpt lat="45.72185" lon="6.05661">
        <ele>1080.4000244141</ele>
        <time>2014-05-25T11:22:18.000Z</time>
      </trkpt>
      <trkpt lat="45.72185" lon="6.05669">
        <ele>1079.1999511719</ele>
        <time>2014-05-25T11:22:24.000Z</time>
      </trkpt>
      <trkpt lat="45.72185" lon="6.0567">
        <ele>1079</ele>
        <time>2014-05-25T11:22:25.000Z</time>
      </trkpt>
      <trkpt lat="45.72184" lon="6.0568">
        <ele>1077.4000244141</ele>
        <time>2014-05-25T11:22:29.000Z</time>
      </trkpt>
      <trkpt lat="45.72181" lon="6.05685">
        <ele>1077</ele>
        <time>2014-05-25T11:22:31.000Z</time>
      </trkpt>
      <trkpt lat="45.72179" lon="6.05698">
        <ele>1074.5999755859</ele>
        <time>2014-05-25T11:22:38.000Z</time>
      </trkpt>
      <trkpt lat="45.72179" lon="6.05699">
        <ele>1074.4000244141</ele>
        <time>2014-05-25T11:22:39.000Z</time>
      </trkpt>
      <trkpt lat="45.72176" lon="6.05705">
        <ele>1073.5999755859</ele>
        <time>2014-05-25T11:22:43.000Z</time>
      </trkpt>
      <trkpt lat="45.72172" lon="6.05709">
        <ele>1073.5999755859</ele>
        <time>2014-05-25T11:22:49.000Z</time>
      </trkpt>
      <trkpt lat="45.7217" lon="6.0571">
        <ele>1073.5999755859</ele>
        <time>2014-05-25T11:23:40.000Z</time>
      </trkpt>
      <trkpt lat="45.72178" lon="6.0572">
        <ele>1070.4000244141</ele>
        <time>2014-05-25T11:23:55.000Z</time>
      </trkpt>
      <trkpt lat="45.72174" lon="6.05723">
        <ele>1070.4000244141</ele>
        <time>2014-05-25T11:24:01.000Z</time>
      </trkpt>
      <trkpt lat="45.7217" lon="6.05725">
        <ele>1070.5999755859</ele>
        <time>2014-05-25T11:24:07.000Z</time>
      </trkpt>
      <trkpt lat="45.72169" lon="6.05728">
        <ele>1070.1999511719</ele>
        <time>2014-05-25T11:24:10.000Z</time>
      </trkpt>
      <trkpt lat="45.72169" lon="6.05732">
        <ele>1069.8000488281</ele>
        <time>2014-05-25T11:24:13.000Z</time>
      </trkpt>
      <trkpt lat="45.72168" lon="6.05738">
        <ele>1069.1999511719</ele>
        <time>2014-05-25T11:24:17.000Z</time>
      </trkpt>
      <trkpt lat="45.72165" lon="6.05751">
        <ele>1067.8000488281</ele>
        <time>2014-05-25T11:24:23.000Z</time>
      </trkpt>
      <trkpt lat="45.72164" lon="6.05754">
        <ele>1067.4000244141</ele>
        <time>2014-05-25T11:24:25.000Z</time>
      </trkpt>
      <trkpt lat="45.72162" lon="6.05759">
        <ele>1066.8000488281</ele>
        <time>2014-05-25T11:24:30.000Z</time>
      </trkpt>
      <trkpt lat="45.72161" lon="6.05759">
        <ele>1066.8000488281</ele>
        <time>2014-05-25T11:24:31.000Z</time>
      </trkpt>
      <trkpt lat="45.72158" lon="6.05764">
        <ele>1066.4000244141</ele>
        <time>2014-05-25T11:24:37.000Z</time>
      </trkpt>
      <trkpt lat="45.72157" lon="6.05767">
        <ele>1066</ele>
        <time>2014-05-25T11:24:43.000Z</time>
      </trkpt>
      <trkpt lat="45.72154" lon="6.05773">
        <ele>1065.1999511719</ele>
        <time>2014-05-25T11:24:49.000Z</time>
      </trkpt>
      <trkpt lat="45.72154" lon="6.05775">
        <ele>1065</ele>
        <time>2014-05-25T11:24:53.000Z</time>
      </trkpt>
      <trkpt lat="45.72153" lon="6.05783">
        <ele>1063.8000488281</ele>
        <time>2014-05-25T11:24:57.000Z</time>
      </trkpt>
      <trkpt lat="45.7215" lon="6.0579">
        <ele>1062.8000488281</ele>
        <time>2014-05-25T11:25:01.000Z</time>
      </trkpt>
      <trkpt lat="45.72149" lon="6.05795">
        <ele>1062</ele>
        <time>2014-05-25T11:25:06.000Z</time>
      </trkpt>
      <trkpt lat="45.72146" lon="6.05803">
        <ele>1060.8000488281</ele>
        <time>2014-05-25T11:25:09.000Z</time>
      </trkpt>
      <trkpt lat="45.72137" lon="6.05805">
        <ele>1061.8000488281</ele>
        <time>2014-05-25T11:25:16.000Z</time>
      </trkpt>
      <trkpt lat="45.72131" lon="6.05811">
        <ele>1061.1999511719</ele>
        <time>2014-05-25T11:25:22.000Z</time>
      </trkpt>
      <trkpt lat="45.72128" lon="6.05817">
        <ele>1060.1999511719</ele>
        <time>2014-05-25T11:25:26.000Z</time>
      </trkpt>
      <trkpt lat="45.72127" lon="6.0582">
        <ele>1059.8000488281</ele>
        <time>2014-05-25T11:25:27.000Z</time>
      </trkpt>
      <trkpt lat="45.72124" lon="6.05821">
        <ele>1059.8000488281</ele>
        <time>2014-05-25T11:25:34.000Z</time>
      </trkpt>
      <trkpt lat="45.72121" lon="6.05823">
        <ele>1059.8000488281</ele>
        <time>2014-05-25T11:25:46.000Z</time>
      </trkpt>
      <trkpt lat="45.72118" lon="6.05829">
        <ele>1058.8000488281</ele>
        <time>2014-05-25T11:25:51.000Z</time>
      </trkpt>
      <trkpt lat="45.72116" lon="6.05837">
        <ele>1057.5999755859</ele>
        <time>2014-05-25T11:25:55.000Z</time>
      </trkpt>
      <trkpt lat="45.72116" lon="6.05839">
        <ele>1057.4000244141</ele>
        <time>2014-05-25T11:25:57.000Z</time>
      </trkpt>
      <trkpt lat="45.72114" lon="6.05843">
        <ele>1056.5999755859</ele>
        <time>2014-05-25T11:26:00.000Z</time>
      </trkpt>
      <trkpt lat="45.72114" lon="6.05853">
        <ele>1055.1999511719</ele>
        <time>2014-05-25T11:26:04.000Z</time>
      </trkpt>
      <trkpt lat="45.72114" lon="6.05872">
        <ele>1051.8000488281</ele>
        <time>2014-05-25T11:26:10.000Z</time>
      </trkpt>
      <trkpt lat="45.72112" lon="6.05883">
        <ele>1050</ele>
        <time>2014-05-25T11:26:15.000Z</time>
      </trkpt>
      <trkpt lat="45.72111" lon="6.05895">
        <ele>1048</ele>
        <time>2014-05-25T11:26:20.000Z</time>
      </trkpt>
      <trkpt lat="45.7211" lon="6.05904">
        <ele>1047</ele>
        <time>2014-05-25T11:26:24.000Z</time>
      </trkpt>
      <trkpt lat="45.72107" lon="6.05909">
        <ele>1046.8000488281</ele>
        <time>2014-05-25T11:26:27.000Z</time>
      </trkpt>
      <trkpt lat="45.72103" lon="6.05917">
        <ele>1046</ele>
        <time>2014-05-25T11:26:34.000Z</time>
      </trkpt>
      <trkpt lat="45.72101" lon="6.05916">
        <ele>1046.1999511719</ele>
        <time>2014-05-25T11:26:39.000Z</time>
      </trkpt>
      <trkpt lat="45.72099" lon="6.05918">
        <ele>1046.1999511719</ele>
        <time>2014-05-25T11:26:43.000Z</time>
      </trkpt>
      <trkpt lat="45.72101" lon="6.05926">
        <ele>1045.1999511719</ele>
        <time>2014-05-25T11:26:48.000Z</time>
      </trkpt>
      <trkpt lat="45.721" lon="6.0593">
        <ele>1044.8000488281</ele>
        <time>2014-05-25T11:26:50.000Z</time>
      </trkpt>
      <trkpt lat="45.72099" lon="6.05938">
        <ele>1044</ele>
        <time>2014-05-25T11:26:53.000Z</time>
      </trkpt>
      <trkpt lat="45.72091" lon="6.05955">
        <ele>1043.1999511719</ele>
        <time>2014-05-25T11:26:58.000Z</time>
      </trkpt>
      <trkpt lat="45.72081" lon="6.05968">
        <ele>1042.8000488281</ele>
        <time>2014-05-25T11:27:02.000Z</time>
      </trkpt>
      <trkpt lat="45.72067" lon="6.0597">
        <ele>1043.5999755859</ele>
        <time>2014-05-25T11:27:08.000Z</time>
      </trkpt>
      <trkpt lat="45.72061" lon="6.05969">
        <ele>1044</ele>
        <time>2014-05-25T11:27:12.000Z</time>
      </trkpt>
      <trkpt lat="45.72052" lon="6.05968">
        <ele>1044.5999755859</ele>
        <time>2014-05-25T11:27:16.000Z</time>
      </trkpt>
      <trkpt lat="45.72045" lon="6.05971">
        <ele>1043.5999755859</ele>
        <time>2014-05-25T11:27:19.000Z</time>
      </trkpt>
      <trkpt lat="45.72033" lon="6.05974">
        <ele>1041.1999511719</ele>
        <time>2014-05-25T11:27:25.000Z</time>
      </trkpt>
      <trkpt lat="45.72022" lon="6.05974">
        <ele>1039.4000244141</ele>
        <time>2014-05-25T11:27:29.000Z</time>
      </trkpt>
      <trkpt lat="45.72011" lon="6.05979">
        <ele>1037</ele>
        <time>2014-05-25T11:27:34.000Z</time>
      </trkpt>
      <trkpt lat="45.72" lon="6.0599">
        <ele>1034</ele>
        <time>2014-05-25T11:27:39.000Z</time>
      </trkpt>
      <trkpt lat="45.71996" lon="6.05993">
        <ele>1033.1999511719</ele>
        <time>2014-05-25T11:27:41.000Z</time>
      </trkpt>
      <trkpt lat="45.71987" lon="6.06005">
        <ele>1029.5999755859</ele>
        <time>2014-05-25T11:27:47.000Z</time>
      </trkpt>
      <trkpt lat="45.71983" lon="6.06006">
        <ele>1028.4000244141</ele>
        <time>2014-05-25T11:27:49.000Z</time>
      </trkpt>
      <trkpt lat="45.71973" lon="6.06006">
        <ele>1026.1999511719</ele>
        <time>2014-05-25T11:27:55.000Z</time>
      </trkpt>
      <trkpt lat="45.71961" lon="6.06005">
        <ele>1023.5999755859</ele>
        <time>2014-05-25T11:28:00.000Z</time>
      </trkpt>
      <trkpt lat="45.71949" lon="6.0601">
        <ele>1020</ele>
        <time>2014-05-25T11:28:05.000Z</time>
      </trkpt>
      <trkpt lat="45.71926" lon="6.06015">
        <ele>1013.799987793</ele>
        <time>2014-05-25T11:28:13.000Z</time>
      </trkpt>
      <trkpt lat="45.71915" lon="6.0601">
        <ele>1011.799987793</ele>
        <time>2014-05-25T11:28:17.000Z</time>
      </trkpt>
      <trkpt lat="45.71903" lon="6.06005">
        <ele>1009.5999755859</ele>
        <time>2014-05-25T11:28:21.000Z</time>
      </trkpt>
      <trkpt lat="45.7189" lon="6.06001">
        <ele>1006.5999755859</ele>
        <time>2014-05-25T11:28:26.000Z</time>
      </trkpt>
      <trkpt lat="45.71887" lon="6.05999">
        <ele>1006.200012207</ele>
        <time>2014-05-25T11:28:28.000Z</time>
      </trkpt>
      <trkpt lat="45.71879" lon="6.05994">
        <ele>1006.200012207</ele>
        <time>2014-05-25T11:28:32.000Z</time>
      </trkpt>
      <trkpt lat="45.71881" lon="6.05997">
        <ele>1005.5999755859</ele>
        <time>2014-05-25T11:28:34.000Z</time>
      </trkpt>
      <trkpt lat="45.71879" lon="6.06004">
        <ele>1003.799987793</ele>
        <time>2014-05-25T11:28:40.000Z</time>
      </trkpt>
      <trkpt lat="45.71873" lon="6.06007">
        <ele>1001.799987793</ele>
        <time>2014-05-25T11:28:46.000Z</time>
      </trkpt>
      <trkpt lat="45.71874" lon="6.06012">
        <ele>1000.799987793</ele>
        <time>2014-05-25T11:28:50.000Z</time>
      </trkpt>
      <trkpt lat="45.71871" lon="6.06013">
        <ele>999.79998779297</ele>
        <time>2014-05-25T11:28:57.000Z</time>
      </trkpt>
      <trkpt lat="45.71863" lon="6.06008">
        <ele>999.79998779297</ele>
        <time>2014-05-25T11:29:02.000Z</time>
      </trkpt>
      <trkpt lat="45.71857" lon="6.06011">
        <ele>998</ele>
        <time>2014-05-25T11:29:06.000Z</time>
      </trkpt>
      <trkpt lat="45.7185" lon="6.06028">
        <ele>992.79998779297</ele>
        <time>2014-05-25T11:29:14.000Z</time>
      </trkpt>
      <trkpt lat="45.71847" lon="6.06047">
        <ele>988.59997558594</ele>
        <time>2014-05-25T11:29:18.000Z</time>
      </trkpt>
      <trkpt lat="45.71834" lon="6.06048">
        <ele>987</ele>
        <time>2014-05-25T11:29:22.000Z</time>
      </trkpt>
      <trkpt lat="45.71831" lon="6.06046">
        <ele>987</ele>
        <time>2014-05-25T11:29:23.000Z</time>
      </trkpt>
      <trkpt lat="45.71816" lon="6.06033">
        <ele>987.79998779297</ele>
        <time>2014-05-25T11:29:29.000Z</time>
      </trkpt>
      <trkpt lat="45.71805" lon="6.06032">
        <ele>986.59997558594</ele>
        <time>2014-05-25T11:29:34.000Z</time>
      </trkpt>
      <trkpt lat="45.71792" lon="6.06038">
        <ele>984.20001220703</ele>
        <time>2014-05-25T11:29:39.000Z</time>
      </trkpt>
      <trkpt lat="45.71778" lon="6.06046">
        <ele>981.79998779297</ele>
        <time>2014-05-25T11:29:43.000Z</time>
      </trkpt>
      <trkpt lat="45.71769" lon="6.06046">
        <ele>981.20001220703</ele>
        <time>2014-05-25T11:29:46.000Z</time>
      </trkpt>
      <trkpt lat="45.71758" lon="6.06056">
        <ele>978.79998779297</ele>
        <time>2014-05-25T11:29:51.000Z</time>
      </trkpt>
      <trkpt lat="45.71744" lon="6.0607">
        <ele>975.20001220703</ele>
        <time>2014-05-25T11:29:57.000Z</time>
      </trkpt>
      <trkpt lat="45.71732" lon="6.06075">
        <ele>973.59997558594</ele>
        <time>2014-05-25T11:30:01.000Z</time>
      </trkpt>
      <trkpt lat="45.7172" lon="6.06086">
        <ele>971.20001220703</ele>
        <time>2014-05-25T11:30:05.000Z</time>
      </trkpt>
      <trkpt lat="45.71718" lon="6.06089">
        <ele>970.59997558594</ele>
        <time>2014-05-25T11:30:06.000Z</time>
      </trkpt>
      <trkpt lat="45.71716" lon="6.0611">
        <ele>966.79998779297</ele>
        <time>2014-05-25T11:30:11.000Z</time>
      </trkpt>
      <trkpt lat="45.71712" lon="6.06133">
        <ele>962.79998779297</ele>
        <time>2014-05-25T11:30:17.000Z</time>
      </trkpt>
      <trkpt lat="45.71712" lon="6.06147">
        <ele>960.79998779297</ele>
        <time>2014-05-25T11:30:21.000Z</time>
      </trkpt>
      <trkpt lat="45.71708" lon="6.06158">
        <ele>959.79998779297</ele>
        <time>2014-05-25T11:30:23.000Z</time>
      </trkpt>
      <trkpt lat="45.71701" lon="6.06185">
        <ele>957.40002441406</ele>
        <time>2014-05-25T11:30:28.000Z</time>
      </trkpt>
      <trkpt lat="45.71694" lon="6.062">
        <ele>956.20001220703</ele>
        <time>2014-05-25T11:30:32.000Z</time>
      </trkpt>
      <trkpt lat="45.7169" lon="6.06202">
        <ele>956</ele>
        <time>2014-05-25T11:30:36.000Z</time>
      </trkpt>
      <trkpt lat="45.71683" lon="6.06208">
        <ele>955.79998779297</ele>
        <time>2014-05-25T11:30:42.000Z</time>
      </trkpt>
      <trkpt lat="45.71676" lon="6.0621">
        <ele>956</ele>
        <time>2014-05-25T11:30:46.000Z</time>
      </trkpt>
      <trkpt lat="45.71665" lon="6.06213">
        <ele>956</ele>
        <time>2014-05-25T11:30:52.000Z</time>
      </trkpt>
      <trkpt lat="45.71661" lon="6.06218">
        <ele>955.79998779297</ele>
        <time>2014-05-25T11:30:55.000Z</time>
      </trkpt>
      <trkpt lat="45.71649" lon="6.06213">
        <ele>956.59997558594</ele>
        <time>2014-05-25T11:31:02.000Z</time>
      </trkpt>
      <trkpt lat="45.71644" lon="6.06204">
        <ele>957.59997558594</ele>
        <time>2014-05-25T11:31:07.000Z</time>
      </trkpt>
      <trkpt lat="45.71642" lon="6.06203">
        <ele>957.79998779297</ele>
        <time>2014-05-25T11:31:08.000Z</time>
      </trkpt>
      <trkpt lat="45.71635" lon="6.06202">
        <ele>958.20001220703</ele>
        <time>2014-05-25T11:31:13.000Z</time>
      </trkpt>
      <trkpt lat="45.71631" lon="6.06206">
        <ele>958</ele>
        <time>2014-05-25T11:31:18.000Z</time>
      </trkpt>
      <trkpt lat="45.7163" lon="6.06207">
        <ele>958</ele>
        <time>2014-05-25T11:31:22.000Z</time>
      </trkpt>
      <trkpt lat="45.71625" lon="6.06213">
        <ele>957.79998779297</ele>
        <time>2014-05-25T11:31:27.000Z</time>
      </trkpt>
      <trkpt lat="45.7162" lon="6.06217">
        <ele>957.40002441406</ele>
        <time>2014-05-25T11:31:31.000Z</time>
      </trkpt>
      <trkpt lat="45.7161" lon="6.06226">
        <ele>956.40002441406</ele>
        <time>2014-05-25T11:31:37.000Z</time>
      </trkpt>
      <trkpt lat="45.71596" lon="6.06239">
        <ele>954.40002441406</ele>
        <time>2014-05-25T11:31:43.000Z</time>
      </trkpt>
      <trkpt lat="45.71593" lon="6.06242">
        <ele>954</ele>
        <time>2014-05-25T11:31:44.000Z</time>
      </trkpt>
      <trkpt lat="45.71583" lon="6.06252">
        <ele>952.59997558594</ele>
        <time>2014-05-25T11:31:49.000Z</time>
      </trkpt>
      <trkpt lat="45.7158" lon="6.06255">
        <ele>952.20001220703</ele>
        <time>2014-05-25T11:31:51.000Z</time>
      </trkpt>
      <trkpt lat="45.71576" lon="6.0626">
        <ele>951.59997558594</ele>
        <time>2014-05-25T11:31:55.000Z</time>
      </trkpt>
      <trkpt lat="45.71574" lon="6.06258">
        <ele>951.79998779297</ele>
        <time>2014-05-25T11:31:57.000Z</time>
      </trkpt>
      <trkpt lat="45.71568" lon="6.06248">
        <ele>953.59997558594</ele>
        <time>2014-05-25T11:32:02.000Z</time>
      </trkpt>
      <trkpt lat="45.71566" lon="6.06247">
        <ele>953.59997558594</ele>
        <time>2014-05-25T11:32:03.000Z</time>
      </trkpt>
      <trkpt lat="45.71565" lon="6.06246">
        <ele>953.79998779297</ele>
        <time>2014-05-25T11:32:05.000Z</time>
      </trkpt>
      <trkpt lat="45.71557" lon="6.06248">
        <ele>953.79998779297</ele>
        <time>2014-05-25T11:32:09.000Z</time>
      </trkpt>
      <trkpt lat="45.71552" lon="6.06266">
        <ele>951.20001220703</ele>
        <time>2014-05-25T11:32:14.000Z</time>
      </trkpt>
      <trkpt lat="45.71553" lon="6.06287">
        <ele>948.20001220703</ele>
        <time>2014-05-25T11:32:18.000Z</time>
      </trkpt>
      <trkpt lat="45.71553" lon="6.06304">
        <ele>945.79998779297</ele>
        <time>2014-05-25T11:32:23.000Z</time>
      </trkpt>
      <trkpt lat="45.71547" lon="6.0632">
        <ele>942.79998779297</ele>
        <time>2014-05-25T11:32:27.000Z</time>
      </trkpt>
      <trkpt lat="45.71542" lon="6.0634">
        <ele>939</ele>
        <time>2014-05-25T11:32:32.000Z</time>
      </trkpt>
      <trkpt lat="45.71536" lon="6.06356">
        <ele>936</ele>
        <time>2014-05-25T11:32:37.000Z</time>
      </trkpt>
      <trkpt lat="45.71533" lon="6.06364">
        <ele>934.40002441406</ele>
        <time>2014-05-25T11:32:39.000Z</time>
      </trkpt>
      <trkpt lat="45.71522" lon="6.06384">
        <ele>929.79998779297</ele>
        <time>2014-05-25T11:32:43.000Z</time>
      </trkpt>
      <trkpt lat="45.71516" lon="6.06404">
        <ele>925.40002441406</ele>
        <time>2014-05-25T11:32:46.000Z</time>
      </trkpt>
      <trkpt lat="45.71506" lon="6.06423">
        <ele>920.40002441406</ele>
        <time>2014-05-25T11:32:51.000Z</time>
      </trkpt>
      <trkpt lat="45.71502" lon="6.06434">
        <ele>918.20001220703</ele>
        <time>2014-05-25T11:32:55.000Z</time>
      </trkpt>
      <trkpt lat="45.715" lon="6.06448">
        <ele>916.20001220703</ele>
        <time>2014-05-25T11:32:59.000Z</time>
      </trkpt>
      <trkpt lat="45.71495" lon="6.06464">
        <ele>913.59997558594</ele>
        <time>2014-05-25T11:33:04.000Z</time>
      </trkpt>
      <trkpt lat="45.7149" lon="6.0648">
        <ele>910.79998779297</ele>
        <time>2014-05-25T11:33:08.000Z</time>
      </trkpt>
      <trkpt lat="45.71478" lon="6.06499">
        <ele>907</ele>
        <time>2014-05-25T11:33:13.000Z</time>
      </trkpt>
      <trkpt lat="45.71473" lon="6.06501">
        <ele>906.40002441406</ele>
        <time>2014-05-25T11:33:15.000Z</time>
      </trkpt>
      <trkpt lat="45.71467" lon="6.06514">
        <ele>903.79998779297</ele>
        <time>2014-05-25T11:33:20.000Z</time>
      </trkpt>
      <trkpt lat="45.7146" lon="6.06519">
        <ele>902.59997558594</ele>
        <time>2014-05-25T11:33:22.000Z</time>
      </trkpt>
      <trkpt lat="45.71448" lon="6.06528">
        <ele>901</ele>
        <time>2014-05-25T11:33:25.000Z</time>
      </trkpt>
      <trkpt lat="45.71435" lon="6.06556">
        <ele>895.20001220703</ele>
        <time>2014-05-25T11:33:31.000Z</time>
      </trkpt>
      <trkpt lat="45.71434" lon="6.06569">
        <ele>892.59997558594</ele>
        <time>2014-05-25T11:33:35.000Z</time>
      </trkpt>
      <trkpt lat="45.71436" lon="6.06576">
        <ele>891</ele>
        <time>2014-05-25T11:33:39.000Z</time>
      </trkpt>
    </trkseg>
  </trk>
</gpx>